<?xml version="1.0" encoding="UTF-8" standalone="no" ?>
<gpx xmlns="http://www.topografix.com/GPX/1/1" xmlns:xsi="http://www.w3.org/2001/XMLSchema-instance" xsi:schemaLocation="http://www.topografix.com/GPX/1/1 http://www.topografix.com/GPX/1/1/gpx.xsd" version="1.1" creator="VisuGPX - https://www.visugpx.com">
  <metadata>
    <name>CKCV - 2014/03/15 matin - Larmor-Baden (le port) =&gt;Courant/bacs/Pointes......</name>
    <desc><![CDATA[PM Arradon 6h03 Coef 77
Départ Larmor-Baden (le port)
Courant/bacs/Pointes.......]]></desc>
  </metadata>
  <trk>
    <name><![CDATA[Parcours 2014-03-15 08:09]]></name>
    <trkseg>
      <trkpt lat="47.58195" lon="-2.8953">
        <ele>4</ele>
        <time>2014-03-15T07:10:15Z</time>
      </trkpt>
      <trkpt lat="47.58192" lon="-2.89524">
        <ele>4</ele>
        <time>2014-03-15T07:10:32Z</time>
      </trkpt>
      <trkpt lat="47.58193" lon="-2.89517">
        <ele>4</ele>
        <time>2014-03-15T07:10:41Z</time>
      </trkpt>
      <trkpt lat="47.58189" lon="-2.8952">
        <ele>4</ele>
        <time>2014-03-15T07:11:05Z</time>
      </trkpt>
      <trkpt lat="47.58192" lon="-2.89526">
        <ele>4</ele>
        <time>2014-03-15T07:11:10Z</time>
      </trkpt>
      <trkpt lat="47.58199" lon="-2.89529">
        <ele>4</ele>
        <time>2014-03-15T07:11:12Z</time>
      </trkpt>
      <trkpt lat="47.58204" lon="-2.8953">
        <ele>4</ele>
        <time>2014-03-15T07:11:15Z</time>
      </trkpt>
      <trkpt lat="47.5821" lon="-2.8953">
        <ele>4</ele>
        <time>2014-03-15T07:11:16Z</time>
      </trkpt>
      <trkpt lat="47.58217" lon="-2.89533">
        <ele>4</ele>
        <time>2014-03-15T07:11:20Z</time>
      </trkpt>
      <trkpt lat="47.58224" lon="-2.89534">
        <ele>4</ele>
        <time>2014-03-15T07:11:22Z</time>
      </trkpt>
      <trkpt lat="47.58229" lon="-2.89537">
        <ele>4</ele>
        <time>2014-03-15T07:11:24Z</time>
      </trkpt>
      <trkpt lat="47.58235" lon="-2.8954">
        <ele>4</ele>
        <time>2014-03-15T07:11:26Z</time>
      </trkpt>
      <trkpt lat="47.58241" lon="-2.89546">
        <ele>4</ele>
        <time>2014-03-15T07:11:29Z</time>
      </trkpt>
      <trkpt lat="47.58247" lon="-2.8955">
        <ele>4</ele>
        <time>2014-03-15T07:11:31Z</time>
      </trkpt>
      <trkpt lat="47.58251" lon="-2.89554">
        <ele>4</ele>
        <time>2014-03-15T07:11:34Z</time>
      </trkpt>
      <trkpt lat="47.58248" lon="-2.89558">
        <ele>4</ele>
        <time>2014-03-15T07:11:39Z</time>
      </trkpt>
      <trkpt lat="47.58243" lon="-2.89555">
        <ele>4</ele>
        <time>2014-03-15T07:12:44Z</time>
      </trkpt>
      <trkpt lat="47.5824" lon="-2.8955">
        <ele>4</ele>
        <time>2014-03-15T07:12:46Z</time>
      </trkpt>
      <trkpt lat="47.58234" lon="-2.89548">
        <ele>4</ele>
        <time>2014-03-15T07:12:47Z</time>
      </trkpt>
      <trkpt lat="47.58229" lon="-2.89546">
        <ele>4</ele>
        <time>2014-03-15T07:12:50Z</time>
      </trkpt>
      <trkpt lat="47.58223" lon="-2.8954">
        <ele>4</ele>
        <time>2014-03-15T07:12:53Z</time>
      </trkpt>
      <trkpt lat="47.58219" lon="-2.89537">
        <ele>4</ele>
        <time>2014-03-15T07:12:55Z</time>
      </trkpt>
      <trkpt lat="47.58215" lon="-2.89534">
        <ele>4</ele>
        <time>2014-03-15T07:12:57Z</time>
      </trkpt>
      <trkpt lat="47.58209" lon="-2.89531">
        <ele>4</ele>
        <time>2014-03-15T07:12:59Z</time>
      </trkpt>
      <trkpt lat="47.58203" lon="-2.89529">
        <ele>4</ele>
        <time>2014-03-15T07:13:01Z</time>
      </trkpt>
      <trkpt lat="47.58198" lon="-2.89529">
        <ele>4</ele>
        <time>2014-03-15T07:13:03Z</time>
      </trkpt>
      <trkpt lat="47.58193" lon="-2.89531">
        <ele>4</ele>
        <time>2014-03-15T07:13:05Z</time>
      </trkpt>
      <trkpt lat="47.58188" lon="-2.89532">
        <ele>4</ele>
        <time>2014-03-15T07:13:08Z</time>
      </trkpt>
      <trkpt lat="47.5819" lon="-2.89526">
        <ele>4</ele>
        <time>2014-03-15T07:13:14Z</time>
      </trkpt>
      <trkpt lat="47.58194" lon="-2.89522">
        <ele>4</ele>
        <time>2014-03-15T07:13:53Z</time>
      </trkpt>
      <trkpt lat="47.58193" lon="-2.89514">
        <ele>4</ele>
        <time>2014-03-15T07:14:07Z</time>
      </trkpt>
      <trkpt lat="47.58189" lon="-2.89511">
        <ele>4</ele>
        <time>2014-03-15T07:22:01Z</time>
      </trkpt>
      <trkpt lat="47.58184" lon="-2.89508">
        <ele>4</ele>
        <time>2014-03-15T07:22:06Z</time>
      </trkpt>
      <trkpt lat="47.58178" lon="-2.89508">
        <ele>4</ele>
        <time>2014-03-15T07:22:10Z</time>
      </trkpt>
      <trkpt lat="47.58173" lon="-2.89508">
        <ele>4</ele>
        <time>2014-03-15T07:22:15Z</time>
      </trkpt>
      <trkpt lat="47.58169" lon="-2.8951">
        <ele>4</ele>
        <time>2014-03-15T07:22:21Z</time>
      </trkpt>
      <trkpt lat="47.58164" lon="-2.89512">
        <time>2014-03-15T07:22:26Z</time>
      </trkpt>
      <trkpt lat="47.58159" lon="-2.89512">
        <time>2014-03-15T07:23:40Z</time>
      </trkpt>
      <trkpt lat="47.58155" lon="-2.89512">
        <time>2014-03-15T07:24:41Z</time>
      </trkpt>
      <trkpt lat="47.5815" lon="-2.89511">
        <time>2014-03-15T07:24:55Z</time>
      </trkpt>
      <trkpt lat="47.58146" lon="-2.89517">
        <time>2014-03-15T07:25:17Z</time>
      </trkpt>
      <trkpt lat="47.58142" lon="-2.89523">
        <time>2014-03-15T07:25:21Z</time>
      </trkpt>
      <trkpt lat="47.58139" lon="-2.89527">
        <time>2014-03-15T07:25:28Z</time>
      </trkpt>
      <trkpt lat="47.58134" lon="-2.89524">
        <time>2014-03-15T07:25:33Z</time>
      </trkpt>
      <trkpt lat="47.58132" lon="-2.89517">
        <time>2014-03-15T07:25:38Z</time>
      </trkpt>
      <trkpt lat="47.58132" lon="-2.8951">
        <time>2014-03-15T07:25:46Z</time>
      </trkpt>
      <trkpt lat="47.58131" lon="-2.89517">
        <time>2014-03-15T07:27:28Z</time>
      </trkpt>
      <trkpt lat="47.58131" lon="-2.89524">
        <time>2014-03-15T07:29:46Z</time>
      </trkpt>
      <trkpt lat="47.58132" lon="-2.89532">
        <time>2014-03-15T07:29:52Z</time>
      </trkpt>
      <trkpt lat="47.58133" lon="-2.89538">
        <time>2014-03-15T07:29:58Z</time>
      </trkpt>
      <trkpt lat="47.58134" lon="-2.89546">
        <time>2014-03-15T07:30:14Z</time>
      </trkpt>
      <trkpt lat="47.58136" lon="-2.89552">
        <time>2014-03-15T07:30:19Z</time>
      </trkpt>
      <trkpt lat="47.58138" lon="-2.89559">
        <time>2014-03-15T07:30:25Z</time>
      </trkpt>
      <trkpt lat="47.5814" lon="-2.89566">
        <time>2014-03-15T07:30:31Z</time>
      </trkpt>
      <trkpt lat="47.58142" lon="-2.89572">
        <time>2014-03-15T07:30:38Z</time>
      </trkpt>
      <trkpt lat="47.58145" lon="-2.89579">
        <time>2014-03-15T07:30:46Z</time>
      </trkpt>
      <trkpt lat="47.58147" lon="-2.89584">
        <time>2014-03-15T07:30:55Z</time>
      </trkpt>
      <trkpt lat="47.5815" lon="-2.89589">
        <time>2014-03-15T07:31:04Z</time>
      </trkpt>
      <trkpt lat="47.58153" lon="-2.89594">
        <time>2014-03-15T07:31:17Z</time>
      </trkpt>
      <trkpt lat="47.58156" lon="-2.896">
        <time>2014-03-15T07:31:26Z</time>
      </trkpt>
      <trkpt lat="47.58159" lon="-2.89606">
        <time>2014-03-15T07:31:38Z</time>
      </trkpt>
      <trkpt lat="47.58161" lon="-2.89612">
        <time>2014-03-15T07:31:44Z</time>
      </trkpt>
      <trkpt lat="47.58159" lon="-2.89605">
        <time>2014-03-15T07:32:23Z</time>
      </trkpt>
      <trkpt lat="47.58155" lon="-2.896">
        <time>2014-03-15T07:32:27Z</time>
      </trkpt>
      <trkpt lat="47.58153" lon="-2.89594">
        <time>2014-03-15T07:32:32Z</time>
      </trkpt>
      <trkpt lat="47.58151" lon="-2.89587">
        <time>2014-03-15T07:32:39Z</time>
      </trkpt>
      <trkpt lat="47.5815" lon="-2.8958">
        <time>2014-03-15T07:32:45Z</time>
      </trkpt>
      <trkpt lat="47.5815" lon="-2.89573">
        <time>2014-03-15T07:32:50Z</time>
      </trkpt>
      <trkpt lat="47.58149" lon="-2.89566">
        <time>2014-03-15T07:32:55Z</time>
      </trkpt>
      <trkpt lat="47.58148" lon="-2.89559">
        <time>2014-03-15T07:33:00Z</time>
      </trkpt>
      <trkpt lat="47.58147" lon="-2.89551">
        <time>2014-03-15T07:33:04Z</time>
      </trkpt>
      <trkpt lat="47.58146" lon="-2.89544">
        <time>2014-03-15T07:33:08Z</time>
      </trkpt>
      <trkpt lat="47.58145" lon="-2.89537">
        <time>2014-03-15T07:33:13Z</time>
      </trkpt>
      <trkpt lat="47.58142" lon="-2.89532">
        <time>2014-03-15T07:33:16Z</time>
      </trkpt>
      <trkpt lat="47.5814" lon="-2.89525">
        <time>2014-03-15T07:33:18Z</time>
      </trkpt>
      <trkpt lat="47.58139" lon="-2.89519">
        <time>2014-03-15T07:33:22Z</time>
      </trkpt>
      <trkpt lat="47.58137" lon="-2.89512">
        <time>2014-03-15T07:33:25Z</time>
      </trkpt>
      <trkpt lat="47.58136" lon="-2.89505">
        <time>2014-03-15T07:33:27Z</time>
      </trkpt>
      <trkpt lat="47.58134" lon="-2.89498">
        <time>2014-03-15T07:33:31Z</time>
      </trkpt>
      <trkpt lat="47.58132" lon="-2.89491">
        <time>2014-03-15T07:33:34Z</time>
      </trkpt>
      <trkpt lat="47.5813" lon="-2.89485">
        <time>2014-03-15T07:33:36Z</time>
      </trkpt>
      <trkpt lat="47.58128" lon="-2.89479">
        <time>2014-03-15T07:33:40Z</time>
      </trkpt>
      <trkpt lat="47.58125" lon="-2.89473">
        <time>2014-03-15T07:33:43Z</time>
      </trkpt>
      <trkpt lat="47.58123" lon="-2.89466">
        <time>2014-03-15T07:33:45Z</time>
      </trkpt>
      <trkpt lat="47.58122" lon="-2.89458">
        <time>2014-03-15T07:33:49Z</time>
      </trkpt>
      <trkpt lat="47.5812" lon="-2.89452">
        <time>2014-03-15T07:33:51Z</time>
      </trkpt>
      <trkpt lat="47.58117" lon="-2.89446">
        <time>2014-03-15T07:33:54Z</time>
      </trkpt>
      <trkpt lat="47.58115" lon="-2.8944">
        <time>2014-03-15T07:33:57Z</time>
      </trkpt>
      <trkpt lat="47.58112" lon="-2.89433">
        <time>2014-03-15T07:34:00Z</time>
      </trkpt>
      <trkpt lat="47.58109" lon="-2.89426">
        <time>2014-03-15T07:34:03Z</time>
      </trkpt>
      <trkpt lat="47.58107" lon="-2.8942">
        <time>2014-03-15T07:34:07Z</time>
      </trkpt>
      <trkpt lat="47.58104" lon="-2.89413">
        <time>2014-03-15T07:34:09Z</time>
      </trkpt>
      <trkpt lat="47.581" lon="-2.89407">
        <time>2014-03-15T07:34:13Z</time>
      </trkpt>
      <trkpt lat="47.58097" lon="-2.894">
        <time>2014-03-15T07:34:16Z</time>
      </trkpt>
      <trkpt lat="47.58093" lon="-2.89393">
        <time>2014-03-15T07:34:18Z</time>
      </trkpt>
      <trkpt lat="47.58089" lon="-2.89387">
        <time>2014-03-15T07:34:22Z</time>
      </trkpt>
      <trkpt lat="47.58085" lon="-2.89381">
        <time>2014-03-15T07:34:25Z</time>
      </trkpt>
      <trkpt lat="47.58081" lon="-2.89376">
        <time>2014-03-15T07:34:27Z</time>
      </trkpt>
      <trkpt lat="47.58076" lon="-2.89372">
        <time>2014-03-15T07:34:30Z</time>
      </trkpt>
      <trkpt lat="47.58071" lon="-2.89367">
        <time>2014-03-15T07:34:33Z</time>
      </trkpt>
      <trkpt lat="47.58067" lon="-2.89361">
        <time>2014-03-15T07:34:37Z</time>
      </trkpt>
      <trkpt lat="47.58064" lon="-2.89355">
        <time>2014-03-15T07:34:39Z</time>
      </trkpt>
      <trkpt lat="47.5806" lon="-2.89349">
        <time>2014-03-15T07:34:42Z</time>
      </trkpt>
      <trkpt lat="47.58057" lon="-2.89344">
        <time>2014-03-15T07:34:45Z</time>
      </trkpt>
      <trkpt lat="47.58053" lon="-2.89337">
        <time>2014-03-15T07:34:48Z</time>
      </trkpt>
      <trkpt lat="47.58049" lon="-2.89331">
        <time>2014-03-15T07:34:51Z</time>
      </trkpt>
      <trkpt lat="47.58045" lon="-2.89324">
        <time>2014-03-15T07:34:54Z</time>
      </trkpt>
      <trkpt lat="47.58041" lon="-2.89318">
        <time>2014-03-15T07:34:57Z</time>
      </trkpt>
      <trkpt lat="47.58036" lon="-2.89312">
        <time>2014-03-15T07:35:01Z</time>
      </trkpt>
      <trkpt lat="47.58032" lon="-2.89306">
        <time>2014-03-15T07:35:04Z</time>
      </trkpt>
      <trkpt lat="47.58028" lon="-2.89299">
        <time>2014-03-15T07:35:06Z</time>
      </trkpt>
      <trkpt lat="47.58023" lon="-2.89293">
        <time>2014-03-15T07:35:10Z</time>
      </trkpt>
      <trkpt lat="47.58019" lon="-2.89287">
        <time>2014-03-15T07:35:12Z</time>
      </trkpt>
      <trkpt lat="47.58015" lon="-2.8928">
        <time>2014-03-15T07:35:15Z</time>
      </trkpt>
      <trkpt lat="47.58011" lon="-2.89274">
        <time>2014-03-15T07:35:18Z</time>
      </trkpt>
      <trkpt lat="47.58006" lon="-2.89267">
        <time>2014-03-15T07:35:21Z</time>
      </trkpt>
      <trkpt lat="47.58002" lon="-2.89261">
        <time>2014-03-15T07:35:24Z</time>
      </trkpt>
      <trkpt lat="47.57998" lon="-2.89255">
        <time>2014-03-15T07:35:27Z</time>
      </trkpt>
      <trkpt lat="47.57993" lon="-2.8925">
        <time>2014-03-15T07:35:30Z</time>
      </trkpt>
      <trkpt lat="47.57989" lon="-2.89245">
        <time>2014-03-15T07:35:33Z</time>
      </trkpt>
      <trkpt lat="47.57985" lon="-2.89241">
        <time>2014-03-15T07:35:36Z</time>
      </trkpt>
      <trkpt lat="47.57982" lon="-2.89236">
        <time>2014-03-15T07:35:39Z</time>
      </trkpt>
      <trkpt lat="47.57977" lon="-2.8923">
        <time>2014-03-15T07:35:42Z</time>
      </trkpt>
      <trkpt lat="47.57973" lon="-2.89225">
        <time>2014-03-15T07:35:45Z</time>
      </trkpt>
      <trkpt lat="47.57969" lon="-2.8922">
        <time>2014-03-15T07:35:49Z</time>
      </trkpt>
      <trkpt lat="47.57964" lon="-2.89215">
        <time>2014-03-15T07:35:51Z</time>
      </trkpt>
      <trkpt lat="47.5796" lon="-2.89211">
        <time>2014-03-15T07:35:55Z</time>
      </trkpt>
      <trkpt lat="47.57956" lon="-2.89207">
        <time>2014-03-15T07:35:58Z</time>
      </trkpt>
      <trkpt lat="47.57951" lon="-2.89203">
        <time>2014-03-15T07:36:00Z</time>
      </trkpt>
      <trkpt lat="47.57946" lon="-2.89198">
        <time>2014-03-15T07:36:04Z</time>
      </trkpt>
      <trkpt lat="47.57942" lon="-2.89194">
        <time>2014-03-15T07:36:07Z</time>
      </trkpt>
      <trkpt lat="47.57937" lon="-2.8919">
        <time>2014-03-15T07:36:09Z</time>
      </trkpt>
      <trkpt lat="47.57932" lon="-2.89187">
        <time>2014-03-15T07:36:13Z</time>
      </trkpt>
      <trkpt lat="47.57926" lon="-2.89183">
        <time>2014-03-15T07:36:15Z</time>
      </trkpt>
      <trkpt lat="47.57921" lon="-2.89179">
        <time>2014-03-15T07:36:18Z</time>
      </trkpt>
      <trkpt lat="47.57915" lon="-2.89177">
        <time>2014-03-15T07:36:21Z</time>
      </trkpt>
      <trkpt lat="47.57909" lon="-2.89175">
        <time>2014-03-15T07:36:24Z</time>
      </trkpt>
      <trkpt lat="47.57903" lon="-2.89172">
        <time>2014-03-15T07:36:27Z</time>
      </trkpt>
      <trkpt lat="47.57898" lon="-2.8917">
        <time>2014-03-15T07:36:30Z</time>
      </trkpt>
      <trkpt lat="47.57891" lon="-2.89168">
        <time>2014-03-15T07:36:33Z</time>
      </trkpt>
      <trkpt lat="47.57885" lon="-2.89166">
        <ele>13</ele>
        <time>2014-03-15T07:36:37Z</time>
      </trkpt>
      <trkpt lat="47.5788" lon="-2.89165">
        <ele>13</ele>
        <time>2014-03-15T07:36:39Z</time>
      </trkpt>
      <trkpt lat="47.57874" lon="-2.89163">
        <ele>13</ele>
        <time>2014-03-15T07:36:42Z</time>
      </trkpt>
      <trkpt lat="47.57869" lon="-2.89162">
        <ele>13</ele>
        <time>2014-03-15T07:36:45Z</time>
      </trkpt>
      <trkpt lat="47.57863" lon="-2.8916">
        <ele>13</ele>
        <time>2014-03-15T07:36:49Z</time>
      </trkpt>
      <trkpt lat="47.57856" lon="-2.89159">
        <ele>13</ele>
        <time>2014-03-15T07:36:52Z</time>
      </trkpt>
      <trkpt lat="47.5785" lon="-2.89159">
        <ele>13</ele>
        <time>2014-03-15T07:36:54Z</time>
      </trkpt>
      <trkpt lat="47.57843" lon="-2.89158">
        <ele>13</ele>
        <time>2014-03-15T07:36:58Z</time>
      </trkpt>
      <trkpt lat="47.57837" lon="-2.89158">
        <ele>13</ele>
        <time>2014-03-15T07:37:00Z</time>
      </trkpt>
      <trkpt lat="47.57831" lon="-2.89157">
        <ele>13</ele>
        <time>2014-03-15T07:37:03Z</time>
      </trkpt>
      <trkpt lat="47.57824" lon="-2.89157">
        <ele>13</ele>
        <time>2014-03-15T07:37:06Z</time>
      </trkpt>
      <trkpt lat="47.57818" lon="-2.89157">
        <ele>13</ele>
        <time>2014-03-15T07:37:09Z</time>
      </trkpt>
      <trkpt lat="47.57812" lon="-2.89157">
        <ele>13</ele>
        <time>2014-03-15T07:37:12Z</time>
      </trkpt>
      <trkpt lat="47.57805" lon="-2.89157">
        <ele>13</ele>
        <time>2014-03-15T07:37:15Z</time>
      </trkpt>
      <trkpt lat="47.578" lon="-2.89157">
        <ele>13</ele>
        <time>2014-03-15T07:37:18Z</time>
      </trkpt>
      <trkpt lat="47.57794" lon="-2.89157">
        <ele>13</ele>
        <time>2014-03-15T07:37:21Z</time>
      </trkpt>
      <trkpt lat="47.57788" lon="-2.89157">
        <ele>14</ele>
        <time>2014-03-15T07:37:24Z</time>
      </trkpt>
      <trkpt lat="47.57782" lon="-2.89158">
        <ele>14</ele>
        <time>2014-03-15T07:37:28Z</time>
      </trkpt>
      <trkpt lat="47.57776" lon="-2.89159">
        <ele>14</ele>
        <time>2014-03-15T07:37:31Z</time>
      </trkpt>
      <trkpt lat="47.5777" lon="-2.8916">
        <ele>14</ele>
        <time>2014-03-15T07:37:33Z</time>
      </trkpt>
      <trkpt lat="47.57765" lon="-2.89161">
        <ele>14</ele>
        <time>2014-03-15T07:37:37Z</time>
      </trkpt>
      <trkpt lat="47.57759" lon="-2.89163">
        <ele>14</ele>
        <time>2014-03-15T07:37:40Z</time>
      </trkpt>
      <trkpt lat="47.57753" lon="-2.89164">
        <ele>14</ele>
        <time>2014-03-15T07:37:42Z</time>
      </trkpt>
      <trkpt lat="47.57748" lon="-2.89165">
        <ele>11</ele>
        <time>2014-03-15T07:37:46Z</time>
      </trkpt>
      <trkpt lat="47.57742" lon="-2.89167">
        <ele>5</ele>
        <time>2014-03-15T07:37:48Z</time>
      </trkpt>
      <trkpt lat="47.57736" lon="-2.89169">
        <ele>5</ele>
        <time>2014-03-15T07:37:51Z</time>
      </trkpt>
      <trkpt lat="47.5773" lon="-2.8917">
        <ele>5</ele>
        <time>2014-03-15T07:37:55Z</time>
      </trkpt>
      <trkpt lat="47.57725" lon="-2.89172">
        <ele>5</ele>
        <time>2014-03-15T07:37:57Z</time>
      </trkpt>
      <trkpt lat="47.57719" lon="-2.89174">
        <ele>5</ele>
        <time>2014-03-15T07:38:00Z</time>
      </trkpt>
      <trkpt lat="47.57713" lon="-2.89176">
        <ele>5</ele>
        <time>2014-03-15T07:38:03Z</time>
      </trkpt>
      <trkpt lat="47.57708" lon="-2.89178">
        <ele>5</ele>
        <time>2014-03-15T07:38:06Z</time>
      </trkpt>
      <trkpt lat="47.57703" lon="-2.8918">
        <ele>5</ele>
        <time>2014-03-15T07:38:10Z</time>
      </trkpt>
      <trkpt lat="47.57699" lon="-2.89182">
        <ele>5</ele>
        <time>2014-03-15T07:38:13Z</time>
      </trkpt>
      <trkpt lat="47.57694" lon="-2.89183">
        <ele>5</ele>
        <time>2014-03-15T07:38:15Z</time>
      </trkpt>
      <trkpt lat="47.57688" lon="-2.89183">
        <ele>5</ele>
        <time>2014-03-15T07:38:18Z</time>
      </trkpt>
      <trkpt lat="47.57683" lon="-2.89182">
        <ele>5</ele>
        <time>2014-03-15T07:38:21Z</time>
      </trkpt>
      <trkpt lat="47.57676" lon="-2.89182">
        <ele>5</ele>
        <time>2014-03-15T07:38:24Z</time>
      </trkpt>
      <trkpt lat="47.5767" lon="-2.89181">
        <ele>5</ele>
        <time>2014-03-15T07:38:27Z</time>
      </trkpt>
      <trkpt lat="47.57665" lon="-2.89179">
        <ele>5</ele>
        <time>2014-03-15T07:38:30Z</time>
      </trkpt>
      <trkpt lat="47.57658" lon="-2.89177">
        <ele>5</ele>
        <time>2014-03-15T07:38:33Z</time>
      </trkpt>
      <trkpt lat="47.57652" lon="-2.89176">
        <ele>5</ele>
        <time>2014-03-15T07:38:36Z</time>
      </trkpt>
      <trkpt lat="47.57646" lon="-2.89175">
        <ele>5</ele>
        <time>2014-03-15T07:38:39Z</time>
      </trkpt>
      <trkpt lat="47.5764" lon="-2.89173">
        <ele>5</ele>
        <time>2014-03-15T07:38:42Z</time>
      </trkpt>
      <trkpt lat="47.57634" lon="-2.89172">
        <ele>5</ele>
        <time>2014-03-15T07:38:46Z</time>
      </trkpt>
      <trkpt lat="47.57627" lon="-2.8917">
        <ele>5</ele>
        <time>2014-03-15T07:38:48Z</time>
      </trkpt>
      <trkpt lat="47.57621" lon="-2.89169">
        <ele>4</ele>
        <time>2014-03-15T07:38:52Z</time>
      </trkpt>
      <trkpt lat="47.57615" lon="-2.89168">
        <ele>4</ele>
        <time>2014-03-15T07:38:55Z</time>
      </trkpt>
      <trkpt lat="47.5761" lon="-2.89167">
        <ele>4</ele>
        <time>2014-03-15T07:38:56Z</time>
      </trkpt>
      <trkpt lat="47.57604" lon="-2.89166">
        <ele>7</ele>
        <time>2014-03-15T07:39:00Z</time>
      </trkpt>
      <trkpt lat="47.57598" lon="-2.89165">
        <ele>6</ele>
        <time>2014-03-15T07:39:02Z</time>
      </trkpt>
      <trkpt lat="47.57592" lon="-2.89166">
        <ele>6</ele>
        <time>2014-03-15T07:39:05Z</time>
      </trkpt>
      <trkpt lat="47.57586" lon="-2.89166">
        <ele>5</ele>
        <time>2014-03-15T07:39:09Z</time>
      </trkpt>
      <trkpt lat="47.5758" lon="-2.89166">
        <ele>4</ele>
        <time>2014-03-15T07:39:11Z</time>
      </trkpt>
      <trkpt lat="47.57575" lon="-2.89166">
        <ele>5</ele>
        <time>2014-03-15T07:39:15Z</time>
      </trkpt>
      <trkpt lat="47.57569" lon="-2.89166">
        <ele>6</ele>
        <time>2014-03-15T07:39:18Z</time>
      </trkpt>
      <trkpt lat="47.57563" lon="-2.89165">
        <ele>6</ele>
        <time>2014-03-15T07:39:20Z</time>
      </trkpt>
      <trkpt lat="47.57558" lon="-2.89164">
        <ele>7</ele>
        <time>2014-03-15T07:39:24Z</time>
      </trkpt>
      <trkpt lat="47.57553" lon="-2.89163">
        <ele>7</ele>
        <time>2014-03-15T07:39:27Z</time>
      </trkpt>
      <trkpt lat="47.57548" lon="-2.89162">
        <ele>7</ele>
        <time>2014-03-15T07:39:29Z</time>
      </trkpt>
      <trkpt lat="47.57543" lon="-2.89161">
        <ele>7</ele>
        <time>2014-03-15T07:39:33Z</time>
      </trkpt>
      <trkpt lat="47.57538" lon="-2.8916">
        <ele>8</ele>
        <time>2014-03-15T07:39:36Z</time>
      </trkpt>
      <trkpt lat="47.57533" lon="-2.89159">
        <ele>8</ele>
        <time>2014-03-15T07:39:38Z</time>
      </trkpt>
      <trkpt lat="47.57528" lon="-2.89159">
        <ele>8</ele>
        <time>2014-03-15T07:39:42Z</time>
      </trkpt>
      <trkpt lat="47.57523" lon="-2.8916">
        <ele>8</ele>
        <time>2014-03-15T07:39:45Z</time>
      </trkpt>
      <trkpt lat="47.57518" lon="-2.8916">
        <ele>8</ele>
        <time>2014-03-15T07:39:47Z</time>
      </trkpt>
      <trkpt lat="47.57513" lon="-2.89161">
        <ele>8</ele>
        <time>2014-03-15T07:39:51Z</time>
      </trkpt>
      <trkpt lat="47.57508" lon="-2.89161">
        <ele>8</ele>
        <time>2014-03-15T07:39:53Z</time>
      </trkpt>
      <trkpt lat="47.57502" lon="-2.89161">
        <ele>8</ele>
        <time>2014-03-15T07:39:57Z</time>
      </trkpt>
      <trkpt lat="47.57496" lon="-2.8916">
        <ele>8</ele>
        <time>2014-03-15T07:40:01Z</time>
      </trkpt>
      <trkpt lat="47.5749" lon="-2.89158">
        <ele>8</ele>
        <time>2014-03-15T07:40:05Z</time>
      </trkpt>
      <trkpt lat="47.57486" lon="-2.89154">
        <ele>8</ele>
        <time>2014-03-15T07:40:09Z</time>
      </trkpt>
      <trkpt lat="47.57483" lon="-2.89149">
        <ele>8</ele>
        <time>2014-03-15T07:40:13Z</time>
      </trkpt>
      <trkpt lat="47.5748" lon="-2.89143">
        <ele>8</ele>
        <time>2014-03-15T07:40:15Z</time>
      </trkpt>
      <trkpt lat="47.57477" lon="-2.89137">
        <ele>8</ele>
        <time>2014-03-15T07:40:19Z</time>
      </trkpt>
      <trkpt lat="47.57474" lon="-2.8913">
        <ele>8</ele>
        <time>2014-03-15T07:40:22Z</time>
      </trkpt>
      <trkpt lat="47.57471" lon="-2.89125">
        <ele>8</ele>
        <time>2014-03-15T07:40:24Z</time>
      </trkpt>
      <trkpt lat="47.57467" lon="-2.89119">
        <ele>8</ele>
        <time>2014-03-15T07:40:28Z</time>
      </trkpt>
      <trkpt lat="47.57464" lon="-2.89113">
        <ele>8</ele>
        <time>2014-03-15T07:40:31Z</time>
      </trkpt>
      <trkpt lat="47.57461" lon="-2.89107">
        <ele>8</ele>
        <time>2014-03-15T07:40:33Z</time>
      </trkpt>
      <trkpt lat="47.57458" lon="-2.89102">
        <ele>8</ele>
        <time>2014-03-15T07:40:36Z</time>
      </trkpt>
      <trkpt lat="47.57454" lon="-2.89096">
        <ele>8</ele>
        <time>2014-03-15T07:40:40Z</time>
      </trkpt>
      <trkpt lat="47.5745" lon="-2.8909">
        <ele>8</ele>
        <time>2014-03-15T07:40:45Z</time>
      </trkpt>
      <trkpt lat="47.57448" lon="-2.89083">
        <ele>8</ele>
        <time>2014-03-15T07:40:49Z</time>
      </trkpt>
      <trkpt lat="47.57446" lon="-2.89077">
        <ele>9</ele>
        <time>2014-03-15T07:40:51Z</time>
      </trkpt>
      <trkpt lat="47.57445" lon="-2.8907">
        <ele>10</ele>
        <time>2014-03-15T07:40:55Z</time>
      </trkpt>
      <trkpt lat="47.57443" lon="-2.89062">
        <ele>10</ele>
        <time>2014-03-15T07:40:58Z</time>
      </trkpt>
      <trkpt lat="47.57442" lon="-2.89054">
        <ele>10</ele>
        <time>2014-03-15T07:41:00Z</time>
      </trkpt>
      <trkpt lat="47.5744" lon="-2.89046">
        <ele>10</ele>
        <time>2014-03-15T07:41:04Z</time>
      </trkpt>
      <trkpt lat="47.57438" lon="-2.89039">
        <ele>10</ele>
        <time>2014-03-15T07:41:06Z</time>
      </trkpt>
      <trkpt lat="47.57437" lon="-2.89032">
        <ele>10</ele>
        <time>2014-03-15T07:41:09Z</time>
      </trkpt>
      <trkpt lat="47.57435" lon="-2.89026">
        <ele>10</ele>
        <time>2014-03-15T07:41:13Z</time>
      </trkpt>
      <trkpt lat="47.57433" lon="-2.89018">
        <ele>10</ele>
        <time>2014-03-15T07:41:17Z</time>
      </trkpt>
      <trkpt lat="47.57432" lon="-2.89011">
        <ele>10</ele>
        <time>2014-03-15T07:41:19Z</time>
      </trkpt>
      <trkpt lat="47.57431" lon="-2.89004">
        <ele>10</ele>
        <time>2014-03-15T07:41:22Z</time>
      </trkpt>
      <trkpt lat="47.57432" lon="-2.88997">
        <ele>11</ele>
        <time>2014-03-15T07:41:25Z</time>
      </trkpt>
      <trkpt lat="47.57434" lon="-2.8899">
        <ele>11</ele>
        <time>2014-03-15T07:41:29Z</time>
      </trkpt>
      <trkpt lat="47.57436" lon="-2.88983">
        <ele>11</ele>
        <time>2014-03-15T07:41:34Z</time>
      </trkpt>
      <trkpt lat="47.57438" lon="-2.88976">
        <ele>11</ele>
        <time>2014-03-15T07:41:40Z</time>
      </trkpt>
      <trkpt lat="47.5744" lon="-2.8897">
        <ele>11</ele>
        <time>2014-03-15T07:41:49Z</time>
      </trkpt>
      <trkpt lat="47.57444" lon="-2.88965">
        <ele>11</ele>
        <time>2014-03-15T07:41:58Z</time>
      </trkpt>
      <trkpt lat="47.57446" lon="-2.8896">
        <ele>11</ele>
        <time>2014-03-15T07:42:04Z</time>
      </trkpt>
      <trkpt lat="47.57448" lon="-2.88953">
        <ele>10</ele>
        <time>2014-03-15T07:42:17Z</time>
      </trkpt>
      <trkpt lat="47.57451" lon="-2.88949">
        <ele>10</ele>
        <time>2014-03-15T07:42:31Z</time>
      </trkpt>
      <trkpt lat="47.57455" lon="-2.88944">
        <ele>10</ele>
        <time>2014-03-15T07:42:49Z</time>
      </trkpt>
      <trkpt lat="47.57458" lon="-2.88939">
        <ele>10</ele>
        <time>2014-03-15T07:43:59Z</time>
      </trkpt>
      <trkpt lat="47.57462" lon="-2.88936">
        <ele>10</ele>
        <time>2014-03-15T07:45:01Z</time>
      </trkpt>
      <trkpt lat="47.57463" lon="-2.88929">
        <ele>10</ele>
        <time>2014-03-15T07:49:51Z</time>
      </trkpt>
      <trkpt lat="47.57465" lon="-2.88922">
        <ele>10</ele>
        <time>2014-03-15T07:49:54Z</time>
      </trkpt>
      <trkpt lat="47.57467" lon="-2.88915">
        <ele>9</ele>
        <time>2014-03-15T07:49:58Z</time>
      </trkpt>
      <trkpt lat="47.57468" lon="-2.88908">
        <ele>9</ele>
        <time>2014-03-15T07:50:03Z</time>
      </trkpt>
      <trkpt lat="47.57467" lon="-2.88902">
        <ele>9</ele>
        <time>2014-03-15T07:50:08Z</time>
      </trkpt>
      <trkpt lat="47.57463" lon="-2.88898">
        <ele>9</ele>
        <time>2014-03-15T07:50:20Z</time>
      </trkpt>
      <trkpt lat="47.57457" lon="-2.88896">
        <ele>9</ele>
        <time>2014-03-15T07:50:22Z</time>
      </trkpt>
      <trkpt lat="47.57452" lon="-2.88896">
        <ele>9</ele>
        <time>2014-03-15T07:50:27Z</time>
      </trkpt>
      <trkpt lat="47.57448" lon="-2.88902">
        <ele>9</ele>
        <time>2014-03-15T07:50:32Z</time>
      </trkpt>
      <trkpt lat="47.57446" lon="-2.88908">
        <ele>9</ele>
        <time>2014-03-15T07:50:37Z</time>
      </trkpt>
      <trkpt lat="47.57446" lon="-2.88915">
        <ele>9</ele>
        <time>2014-03-15T07:50:42Z</time>
      </trkpt>
      <trkpt lat="47.57444" lon="-2.88921">
        <ele>10</ele>
        <time>2014-03-15T07:50:46Z</time>
      </trkpt>
      <trkpt lat="47.57439" lon="-2.88923">
        <ele>10</ele>
        <time>2014-03-15T07:50:50Z</time>
      </trkpt>
      <trkpt lat="47.57434" lon="-2.88925">
        <ele>10</ele>
        <time>2014-03-15T07:50:55Z</time>
      </trkpt>
      <trkpt lat="47.57429" lon="-2.88927">
        <ele>10</ele>
        <time>2014-03-15T07:51:00Z</time>
      </trkpt>
      <trkpt lat="47.57424" lon="-2.88931">
        <ele>10</ele>
        <time>2014-03-15T07:51:02Z</time>
      </trkpt>
      <trkpt lat="47.5742" lon="-2.88935">
        <ele>10</ele>
        <time>2014-03-15T07:51:05Z</time>
      </trkpt>
      <trkpt lat="47.57416" lon="-2.88938">
        <time>2014-03-15T07:51:08Z</time>
      </trkpt>
      <trkpt lat="47.5741" lon="-2.88941">
        <time>2014-03-15T07:51:12Z</time>
      </trkpt>
      <trkpt lat="47.57405" lon="-2.88944">
        <time>2014-03-15T07:51:16Z</time>
      </trkpt>
      <trkpt lat="47.574" lon="-2.88947">
        <time>2014-03-15T07:51:21Z</time>
      </trkpt>
      <trkpt lat="47.57396" lon="-2.88949">
        <time>2014-03-15T07:51:23Z</time>
      </trkpt>
      <trkpt lat="47.57391" lon="-2.88952">
        <time>2014-03-15T07:51:27Z</time>
      </trkpt>
      <trkpt lat="47.57385" lon="-2.88954">
        <time>2014-03-15T07:51:29Z</time>
      </trkpt>
      <trkpt lat="47.5738" lon="-2.88956">
        <time>2014-03-15T07:51:32Z</time>
      </trkpt>
      <trkpt lat="47.57374" lon="-2.88957">
        <time>2014-03-15T07:51:35Z</time>
      </trkpt>
      <trkpt lat="47.57368" lon="-2.88958">
        <time>2014-03-15T07:51:39Z</time>
      </trkpt>
      <trkpt lat="47.57363" lon="-2.88959">
        <time>2014-03-15T07:51:42Z</time>
      </trkpt>
      <trkpt lat="47.57357" lon="-2.8896">
        <time>2014-03-15T07:51:44Z</time>
      </trkpt>
      <trkpt lat="47.57352" lon="-2.88962">
        <time>2014-03-15T07:51:48Z</time>
      </trkpt>
      <trkpt lat="47.57347" lon="-2.88963">
        <time>2014-03-15T07:51:50Z</time>
      </trkpt>
      <trkpt lat="47.57341" lon="-2.88965">
        <time>2014-03-15T07:51:54Z</time>
      </trkpt>
      <trkpt lat="47.57335" lon="-2.88967">
        <time>2014-03-15T07:51:56Z</time>
      </trkpt>
      <trkpt lat="47.5733" lon="-2.88969">
        <time>2014-03-15T07:52:00Z</time>
      </trkpt>
      <trkpt lat="47.57325" lon="-2.88971">
        <time>2014-03-15T07:52:02Z</time>
      </trkpt>
      <trkpt lat="47.57321" lon="-2.88973">
        <time>2014-03-15T07:52:05Z</time>
      </trkpt>
      <trkpt lat="47.57316" lon="-2.88975">
        <time>2014-03-15T07:52:08Z</time>
      </trkpt>
      <trkpt lat="47.57311" lon="-2.88978">
        <time>2014-03-15T07:52:12Z</time>
      </trkpt>
      <trkpt lat="47.57306" lon="-2.8898">
        <time>2014-03-15T07:52:16Z</time>
      </trkpt>
      <trkpt lat="47.57301" lon="-2.88982">
        <time>2014-03-15T07:52:21Z</time>
      </trkpt>
      <trkpt lat="47.57296" lon="-2.88985">
        <time>2014-03-15T07:52:24Z</time>
      </trkpt>
      <trkpt lat="47.57292" lon="-2.88987">
        <time>2014-03-15T07:52:28Z</time>
      </trkpt>
      <trkpt lat="47.57287" lon="-2.88991">
        <time>2014-03-15T07:52:32Z</time>
      </trkpt>
      <trkpt lat="47.57282" lon="-2.88994">
        <time>2014-03-15T07:52:35Z</time>
      </trkpt>
      <trkpt lat="47.57277" lon="-2.88998">
        <time>2014-03-15T07:52:38Z</time>
      </trkpt>
      <trkpt lat="47.57273" lon="-2.89002">
        <time>2014-03-15T07:52:42Z</time>
      </trkpt>
      <trkpt lat="47.57269" lon="-2.89007">
        <time>2014-03-15T07:52:46Z</time>
      </trkpt>
      <trkpt lat="47.57266" lon="-2.89012">
        <time>2014-03-15T07:52:50Z</time>
      </trkpt>
      <trkpt lat="47.57264" lon="-2.89018">
        <time>2014-03-15T07:52:56Z</time>
      </trkpt>
      <trkpt lat="47.57263" lon="-2.89025">
        <time>2014-03-15T07:53:01Z</time>
      </trkpt>
      <trkpt lat="47.5726" lon="-2.89031">
        <time>2014-03-15T07:53:04Z</time>
      </trkpt>
      <trkpt lat="47.57258" lon="-2.89037">
        <time>2014-03-15T07:53:08Z</time>
      </trkpt>
      <trkpt lat="47.57256" lon="-2.89045">
        <time>2014-03-15T07:53:13Z</time>
      </trkpt>
      <trkpt lat="47.57254" lon="-2.89052">
        <time>2014-03-15T07:53:18Z</time>
      </trkpt>
      <trkpt lat="47.57252" lon="-2.89058">
        <time>2014-03-15T07:53:23Z</time>
      </trkpt>
      <trkpt lat="47.57249" lon="-2.89063">
        <time>2014-03-15T07:53:28Z</time>
      </trkpt>
      <trkpt lat="47.57247" lon="-2.8907">
        <time>2014-03-15T07:53:35Z</time>
      </trkpt>
      <trkpt lat="47.57246" lon="-2.89077">
        <time>2014-03-15T07:53:40Z</time>
      </trkpt>
      <trkpt lat="47.57243" lon="-2.89084">
        <time>2014-03-15T07:53:44Z</time>
      </trkpt>
      <trkpt lat="47.57242" lon="-2.89092">
        <time>2014-03-15T07:53:49Z</time>
      </trkpt>
      <trkpt lat="47.57241" lon="-2.89099">
        <time>2014-03-15T07:53:54Z</time>
      </trkpt>
      <trkpt lat="47.57238" lon="-2.89106">
        <time>2014-03-15T07:53:57Z</time>
      </trkpt>
      <trkpt lat="47.57235" lon="-2.89112">
        <time>2014-03-15T07:54:02Z</time>
      </trkpt>
      <trkpt lat="47.57232" lon="-2.89117">
        <time>2014-03-15T07:54:04Z</time>
      </trkpt>
      <trkpt lat="47.57228" lon="-2.89123">
        <time>2014-03-15T07:54:09Z</time>
      </trkpt>
      <trkpt lat="47.57223" lon="-2.89127">
        <time>2014-03-15T07:54:12Z</time>
      </trkpt>
      <trkpt lat="47.57218" lon="-2.8913">
        <time>2014-03-15T07:54:17Z</time>
      </trkpt>
      <trkpt lat="47.57214" lon="-2.89133">
        <time>2014-03-15T07:54:21Z</time>
      </trkpt>
      <trkpt lat="47.5721" lon="-2.89135">
        <time>2014-03-15T07:54:26Z</time>
      </trkpt>
      <trkpt lat="47.57205" lon="-2.89137">
        <time>2014-03-15T07:54:29Z</time>
      </trkpt>
      <trkpt lat="47.572" lon="-2.89139">
        <time>2014-03-15T07:54:34Z</time>
      </trkpt>
      <trkpt lat="47.57195" lon="-2.89143">
        <time>2014-03-15T07:54:40Z</time>
      </trkpt>
      <trkpt lat="47.57191" lon="-2.89144">
        <time>2014-03-15T07:54:44Z</time>
      </trkpt>
      <trkpt lat="47.57186" lon="-2.89146">
        <time>2014-03-15T07:54:51Z</time>
      </trkpt>
      <trkpt lat="47.57182" lon="-2.89147">
        <time>2014-03-15T07:55:00Z</time>
      </trkpt>
      <trkpt lat="47.57177" lon="-2.89146">
        <time>2014-03-15T07:55:07Z</time>
      </trkpt>
      <trkpt lat="47.57172" lon="-2.89145">
        <time>2014-03-15T07:55:13Z</time>
      </trkpt>
      <trkpt lat="47.5717" lon="-2.89139">
        <time>2014-03-15T07:55:26Z</time>
      </trkpt>
      <trkpt lat="47.57166" lon="-2.89136">
        <time>2014-03-15T07:55:35Z</time>
      </trkpt>
      <trkpt lat="47.57162" lon="-2.8913">
        <time>2014-03-15T07:55:44Z</time>
      </trkpt>
      <trkpt lat="47.57161" lon="-2.89123">
        <time>2014-03-15T07:55:56Z</time>
      </trkpt>
      <trkpt lat="47.57157" lon="-2.89118">
        <time>2014-03-15T07:56:10Z</time>
      </trkpt>
      <trkpt lat="47.57154" lon="-2.89113">
        <time>2014-03-15T07:56:16Z</time>
      </trkpt>
      <trkpt lat="47.57151" lon="-2.89108">
        <time>2014-03-15T07:56:29Z</time>
      </trkpt>
      <trkpt lat="47.57151" lon="-2.891">
        <time>2014-03-15T07:56:36Z</time>
      </trkpt>
      <trkpt lat="47.5715" lon="-2.89092">
        <time>2014-03-15T07:56:41Z</time>
      </trkpt>
      <trkpt lat="47.5715" lon="-2.89085">
        <time>2014-03-15T07:56:44Z</time>
      </trkpt>
      <trkpt lat="47.57154" lon="-2.89081">
        <time>2014-03-15T07:57:09Z</time>
      </trkpt>
      <trkpt lat="47.57151" lon="-2.89074">
        <time>2014-03-15T07:57:41Z</time>
      </trkpt>
      <trkpt lat="47.57146" lon="-2.89072">
        <time>2014-03-15T07:57:45Z</time>
      </trkpt>
      <trkpt lat="47.57141" lon="-2.89072">
        <time>2014-03-15T07:57:48Z</time>
      </trkpt>
      <trkpt lat="47.57136" lon="-2.89072">
        <time>2014-03-15T07:57:53Z</time>
      </trkpt>
      <trkpt lat="47.57131" lon="-2.89072">
        <time>2014-03-15T07:57:55Z</time>
      </trkpt>
      <trkpt lat="47.57126" lon="-2.89071">
        <time>2014-03-15T07:57:58Z</time>
      </trkpt>
      <trkpt lat="47.57121" lon="-2.89069">
        <time>2014-03-15T07:58:03Z</time>
      </trkpt>
      <trkpt lat="47.57117" lon="-2.89065">
        <time>2014-03-15T07:58:11Z</time>
      </trkpt>
      <trkpt lat="47.57115" lon="-2.89058">
        <time>2014-03-15T07:58:22Z</time>
      </trkpt>
      <trkpt lat="47.57112" lon="-2.89051">
        <time>2014-03-15T07:58:29Z</time>
      </trkpt>
      <trkpt lat="47.57109" lon="-2.89046">
        <time>2014-03-15T07:58:35Z</time>
      </trkpt>
      <trkpt lat="47.57106" lon="-2.89039">
        <time>2014-03-15T07:58:41Z</time>
      </trkpt>
      <trkpt lat="47.57105" lon="-2.89032">
        <time>2014-03-15T07:58:46Z</time>
      </trkpt>
      <trkpt lat="47.57103" lon="-2.89025">
        <time>2014-03-15T07:58:50Z</time>
      </trkpt>
      <trkpt lat="47.57102" lon="-2.89018">
        <time>2014-03-15T07:58:55Z</time>
      </trkpt>
      <trkpt lat="47.57102" lon="-2.89011">
        <time>2014-03-15T07:59:01Z</time>
      </trkpt>
      <trkpt lat="47.57103" lon="-2.89004">
        <time>2014-03-15T07:59:06Z</time>
      </trkpt>
      <trkpt lat="47.57105" lon="-2.88997">
        <time>2014-03-15T07:59:11Z</time>
      </trkpt>
      <trkpt lat="47.57107" lon="-2.8899">
        <time>2014-03-15T07:59:16Z</time>
      </trkpt>
      <trkpt lat="47.57111" lon="-2.88984">
        <time>2014-03-15T07:59:22Z</time>
      </trkpt>
      <trkpt lat="47.57114" lon="-2.88977">
        <time>2014-03-15T07:59:26Z</time>
      </trkpt>
      <trkpt lat="47.57115" lon="-2.8897">
        <time>2014-03-15T07:59:32Z</time>
      </trkpt>
      <trkpt lat="47.57117" lon="-2.88961">
        <time>2014-03-15T07:59:36Z</time>
      </trkpt>
      <trkpt lat="47.57118" lon="-2.88954">
        <time>2014-03-15T07:59:40Z</time>
      </trkpt>
      <trkpt lat="47.5712" lon="-2.88946">
        <time>2014-03-15T07:59:45Z</time>
      </trkpt>
      <trkpt lat="47.57122" lon="-2.8894">
        <time>2014-03-15T07:59:47Z</time>
      </trkpt>
      <trkpt lat="47.57125" lon="-2.88934">
        <time>2014-03-15T07:59:50Z</time>
      </trkpt>
      <trkpt lat="47.57129" lon="-2.88929">
        <time>2014-03-15T07:59:53Z</time>
      </trkpt>
      <trkpt lat="47.57133" lon="-2.88925">
        <time>2014-03-15T07:59:57Z</time>
      </trkpt>
      <trkpt lat="47.57138" lon="-2.88921">
        <time>2014-03-15T07:59:59Z</time>
      </trkpt>
      <trkpt lat="47.57142" lon="-2.88916">
        <ele>6</ele>
        <time>2014-03-15T08:00:02Z</time>
      </trkpt>
      <trkpt lat="47.57146" lon="-2.88911">
        <ele>6</ele>
        <time>2014-03-15T08:00:06Z</time>
      </trkpt>
      <trkpt lat="47.57149" lon="-2.88906">
        <ele>6</ele>
        <time>2014-03-15T08:00:09Z</time>
      </trkpt>
      <trkpt lat="47.57152" lon="-2.88899">
        <ele>6</ele>
        <time>2014-03-15T08:00:14Z</time>
      </trkpt>
      <trkpt lat="47.57155" lon="-2.88891">
        <ele>6</ele>
        <time>2014-03-15T08:00:17Z</time>
      </trkpt>
      <trkpt lat="47.57157" lon="-2.88885">
        <ele>6</ele>
        <time>2014-03-15T08:00:20Z</time>
      </trkpt>
      <trkpt lat="47.5716" lon="-2.8888">
        <ele>6</ele>
        <time>2014-03-15T08:00:23Z</time>
      </trkpt>
      <trkpt lat="47.57164" lon="-2.88875">
        <ele>6</ele>
        <time>2014-03-15T08:00:27Z</time>
      </trkpt>
      <trkpt lat="47.57168" lon="-2.8887">
        <time>2014-03-15T08:00:30Z</time>
      </trkpt>
      <trkpt lat="47.57172" lon="-2.88865">
        <time>2014-03-15T08:00:33Z</time>
      </trkpt>
      <trkpt lat="47.57176" lon="-2.88861">
        <ele>6</ele>
        <time>2014-03-15T08:00:36Z</time>
      </trkpt>
      <trkpt lat="47.5718" lon="-2.88856">
        <ele>6</ele>
        <time>2014-03-15T08:00:38Z</time>
      </trkpt>
      <trkpt lat="47.57185" lon="-2.88852">
        <ele>6</ele>
        <time>2014-03-15T08:00:41Z</time>
      </trkpt>
      <trkpt lat="47.5719" lon="-2.88847">
        <ele>6</ele>
        <time>2014-03-15T08:00:45Z</time>
      </trkpt>
      <trkpt lat="47.57195" lon="-2.88842">
        <time>2014-03-15T08:00:47Z</time>
      </trkpt>
      <trkpt lat="47.57199" lon="-2.88836">
        <time>2014-03-15T08:00:50Z</time>
      </trkpt>
      <trkpt lat="47.57203" lon="-2.88829">
        <ele>9</ele>
        <time>2014-03-15T08:00:53Z</time>
      </trkpt>
      <trkpt lat="47.57207" lon="-2.88821">
        <ele>9</ele>
        <time>2014-03-15T08:00:56Z</time>
      </trkpt>
      <trkpt lat="47.5721" lon="-2.88815">
        <ele>9</ele>
        <time>2014-03-15T08:00:59Z</time>
      </trkpt>
      <trkpt lat="47.57211" lon="-2.88808">
        <ele>9</ele>
        <time>2014-03-15T08:01:04Z</time>
      </trkpt>
      <trkpt lat="47.57211" lon="-2.88801">
        <ele>9</ele>
        <time>2014-03-15T08:01:07Z</time>
      </trkpt>
      <trkpt lat="47.57212" lon="-2.88793">
        <ele>9</ele>
        <time>2014-03-15T08:01:13Z</time>
      </trkpt>
      <trkpt lat="47.57213" lon="-2.88786">
        <ele>9</ele>
        <time>2014-03-15T08:01:16Z</time>
      </trkpt>
      <trkpt lat="47.57214" lon="-2.88779">
        <ele>9</ele>
        <time>2014-03-15T08:01:20Z</time>
      </trkpt>
      <trkpt lat="47.57214" lon="-2.8877">
        <ele>9</ele>
        <time>2014-03-15T08:01:23Z</time>
      </trkpt>
      <trkpt lat="47.57214" lon="-2.88761">
        <ele>9</ele>
        <time>2014-03-15T08:01:26Z</time>
      </trkpt>
      <trkpt lat="47.57213" lon="-2.88752">
        <ele>9</ele>
        <time>2014-03-15T08:01:28Z</time>
      </trkpt>
      <trkpt lat="47.57213" lon="-2.88745">
        <ele>9</ele>
        <time>2014-03-15T08:01:33Z</time>
      </trkpt>
      <trkpt lat="47.57216" lon="-2.88739">
        <ele>9</ele>
        <time>2014-03-15T08:01:51Z</time>
      </trkpt>
      <trkpt lat="47.5722" lon="-2.88735">
        <ele>9</ele>
        <time>2014-03-15T08:01:58Z</time>
      </trkpt>
      <trkpt lat="47.57224" lon="-2.8873">
        <ele>9</ele>
        <time>2014-03-15T08:02:07Z</time>
      </trkpt>
      <trkpt lat="47.57223" lon="-2.88723">
        <ele>9</ele>
        <time>2014-03-15T08:02:13Z</time>
      </trkpt>
      <trkpt lat="47.57221" lon="-2.88716">
        <ele>9</ele>
        <time>2014-03-15T08:02:19Z</time>
      </trkpt>
      <trkpt lat="47.57218" lon="-2.88721">
        <ele>9</ele>
        <time>2014-03-15T08:02:31Z</time>
      </trkpt>
      <trkpt lat="47.57215" lon="-2.88728">
        <ele>9</ele>
        <time>2014-03-15T08:02:36Z</time>
      </trkpt>
      <trkpt lat="47.57212" lon="-2.88733">
        <ele>9</ele>
        <time>2014-03-15T08:02:40Z</time>
      </trkpt>
      <trkpt lat="47.57211" lon="-2.88741">
        <ele>9</ele>
        <time>2014-03-15T08:05:48Z</time>
      </trkpt>
      <trkpt lat="47.57217" lon="-2.88741">
        <ele>9</ele>
        <time>2014-03-15T08:05:55Z</time>
      </trkpt>
      <trkpt lat="47.57222" lon="-2.88742">
        <ele>9</ele>
        <time>2014-03-15T08:05:58Z</time>
      </trkpt>
      <trkpt lat="47.57226" lon="-2.88747">
        <ele>9</ele>
        <time>2014-03-15T08:06:02Z</time>
      </trkpt>
      <trkpt lat="47.57228" lon="-2.88752">
        <ele>9</ele>
        <time>2014-03-15T08:06:06Z</time>
      </trkpt>
      <trkpt lat="47.57232" lon="-2.88758">
        <ele>9</ele>
        <time>2014-03-15T08:06:11Z</time>
      </trkpt>
      <trkpt lat="47.57236" lon="-2.88764">
        <ele>9</ele>
        <time>2014-03-15T08:06:14Z</time>
      </trkpt>
      <trkpt lat="47.57241" lon="-2.88768">
        <ele>9</ele>
        <time>2014-03-15T08:06:17Z</time>
      </trkpt>
      <trkpt lat="47.57245" lon="-2.88772">
        <ele>9</ele>
        <time>2014-03-15T08:06:20Z</time>
      </trkpt>
      <trkpt lat="47.57249" lon="-2.88779">
        <ele>9</ele>
        <time>2014-03-15T08:06:23Z</time>
      </trkpt>
      <trkpt lat="47.5725" lon="-2.88785">
        <time>2014-03-15T08:06:25Z</time>
      </trkpt>
      <trkpt lat="47.57252" lon="-2.88792">
        <time>2014-03-15T08:06:27Z</time>
      </trkpt>
      <trkpt lat="47.57253" lon="-2.888">
        <time>2014-03-15T08:06:29Z</time>
      </trkpt>
      <trkpt lat="47.57254" lon="-2.88808">
        <time>2014-03-15T08:06:31Z</time>
      </trkpt>
      <trkpt lat="47.57254" lon="-2.88818">
        <time>2014-03-15T08:06:33Z</time>
      </trkpt>
      <trkpt lat="47.57253" lon="-2.88828">
        <time>2014-03-15T08:06:35Z</time>
      </trkpt>
      <trkpt lat="47.57252" lon="-2.88837">
        <time>2014-03-15T08:06:37Z</time>
      </trkpt>
      <trkpt lat="47.5725" lon="-2.88847">
        <time>2014-03-15T08:06:39Z</time>
      </trkpt>
      <trkpt lat="47.57248" lon="-2.88857">
        <time>2014-03-15T08:06:41Z</time>
      </trkpt>
      <trkpt lat="47.57246" lon="-2.88867">
        <time>2014-03-15T08:06:43Z</time>
      </trkpt>
      <trkpt lat="47.57244" lon="-2.88878">
        <time>2014-03-15T08:06:45Z</time>
      </trkpt>
      <trkpt lat="47.57243" lon="-2.88888">
        <time>2014-03-15T08:06:47Z</time>
      </trkpt>
      <trkpt lat="47.57242" lon="-2.88899">
        <time>2014-03-15T08:06:49Z</time>
      </trkpt>
      <trkpt lat="47.5724" lon="-2.8891">
        <time>2014-03-15T08:06:51Z</time>
      </trkpt>
      <trkpt lat="47.57239" lon="-2.8892">
        <time>2014-03-15T08:06:53Z</time>
      </trkpt>
      <trkpt lat="47.57237" lon="-2.88931">
        <time>2014-03-15T08:06:55Z</time>
      </trkpt>
      <trkpt lat="47.57236" lon="-2.88942">
        <time>2014-03-15T08:06:57Z</time>
      </trkpt>
      <trkpt lat="47.57234" lon="-2.88953">
        <time>2014-03-15T08:06:59Z</time>
      </trkpt>
      <trkpt lat="47.57232" lon="-2.88964">
        <time>2014-03-15T08:07:01Z</time>
      </trkpt>
      <trkpt lat="47.57231" lon="-2.88976">
        <time>2014-03-15T08:07:03Z</time>
      </trkpt>
      <trkpt lat="47.5723" lon="-2.88988">
        <time>2014-03-15T08:07:05Z</time>
      </trkpt>
      <trkpt lat="47.57229" lon="-2.88995">
        <time>2014-03-15T08:07:06Z</time>
      </trkpt>
      <trkpt lat="47.57227" lon="-2.89008">
        <time>2014-03-15T08:07:08Z</time>
      </trkpt>
      <trkpt lat="47.57226" lon="-2.89015">
        <time>2014-03-15T08:07:09Z</time>
      </trkpt>
      <trkpt lat="47.57224" lon="-2.89022">
        <time>2014-03-15T08:07:10Z</time>
      </trkpt>
      <trkpt lat="47.57222" lon="-2.89029">
        <time>2014-03-15T08:07:11Z</time>
      </trkpt>
      <trkpt lat="47.57221" lon="-2.89036">
        <time>2014-03-15T08:07:12Z</time>
      </trkpt>
      <trkpt lat="47.5722" lon="-2.89043">
        <time>2014-03-15T08:07:13Z</time>
      </trkpt>
      <trkpt lat="47.57219" lon="-2.8905">
        <time>2014-03-15T08:07:14Z</time>
      </trkpt>
      <trkpt lat="47.57216" lon="-2.89063">
        <time>2014-03-15T08:07:16Z</time>
      </trkpt>
      <trkpt lat="47.57214" lon="-2.8907">
        <time>2014-03-15T08:07:17Z</time>
      </trkpt>
      <trkpt lat="47.57212" lon="-2.89076">
        <time>2014-03-15T08:07:19Z</time>
      </trkpt>
      <trkpt lat="47.57209" lon="-2.8909">
        <time>2014-03-15T08:07:20Z</time>
      </trkpt>
      <trkpt lat="47.57207" lon="-2.89103">
        <time>2014-03-15T08:07:22Z</time>
      </trkpt>
      <trkpt lat="47.57204" lon="-2.89116">
        <time>2014-03-15T08:07:24Z</time>
      </trkpt>
      <trkpt lat="47.57202" lon="-2.89122">
        <time>2014-03-15T08:07:25Z</time>
      </trkpt>
      <trkpt lat="47.57199" lon="-2.89134">
        <time>2014-03-15T08:07:27Z</time>
      </trkpt>
      <trkpt lat="47.57197" lon="-2.89141">
        <time>2014-03-15T08:07:28Z</time>
      </trkpt>
      <trkpt lat="47.57194" lon="-2.89152">
        <time>2014-03-15T08:07:30Z</time>
      </trkpt>
      <trkpt lat="47.5719" lon="-2.89163">
        <time>2014-03-15T08:07:32Z</time>
      </trkpt>
      <trkpt lat="47.57185" lon="-2.89173">
        <time>2014-03-15T08:07:34Z</time>
      </trkpt>
      <trkpt lat="47.57182" lon="-2.89183">
        <time>2014-03-15T08:07:36Z</time>
      </trkpt>
      <trkpt lat="47.57178" lon="-2.89191">
        <time>2014-03-15T08:07:39Z</time>
      </trkpt>
      <trkpt lat="47.57174" lon="-2.892">
        <time>2014-03-15T08:07:41Z</time>
      </trkpt>
      <trkpt lat="47.5717" lon="-2.89209">
        <time>2014-03-15T08:07:42Z</time>
      </trkpt>
      <trkpt lat="47.57166" lon="-2.89218">
        <time>2014-03-15T08:07:45Z</time>
      </trkpt>
      <trkpt lat="47.57163" lon="-2.89226">
        <time>2014-03-15T08:07:47Z</time>
      </trkpt>
      <trkpt lat="47.57158" lon="-2.89234">
        <time>2014-03-15T08:07:48Z</time>
      </trkpt>
      <trkpt lat="47.57154" lon="-2.89242">
        <time>2014-03-15T08:07:51Z</time>
      </trkpt>
      <trkpt lat="47.57149" lon="-2.89249">
        <time>2014-03-15T08:07:53Z</time>
      </trkpt>
      <trkpt lat="47.57146" lon="-2.89257">
        <time>2014-03-15T08:07:54Z</time>
      </trkpt>
      <trkpt lat="47.57142" lon="-2.89264">
        <time>2014-03-15T08:07:56Z</time>
      </trkpt>
      <trkpt lat="47.57138" lon="-2.89271">
        <time>2014-03-15T08:07:59Z</time>
      </trkpt>
      <trkpt lat="47.57133" lon="-2.89277">
        <time>2014-03-15T08:08:01Z</time>
      </trkpt>
      <trkpt lat="47.57128" lon="-2.89282">
        <time>2014-03-15T08:08:02Z</time>
      </trkpt>
      <trkpt lat="47.57124" lon="-2.89287">
        <time>2014-03-15T08:08:05Z</time>
      </trkpt>
      <trkpt lat="47.5712" lon="-2.89292">
        <time>2014-03-15T08:08:07Z</time>
      </trkpt>
      <trkpt lat="47.57117" lon="-2.89297">
        <time>2014-03-15T08:08:08Z</time>
      </trkpt>
      <trkpt lat="47.57113" lon="-2.89302">
        <time>2014-03-15T08:08:10Z</time>
      </trkpt>
      <trkpt lat="47.57109" lon="-2.89306">
        <time>2014-03-15T08:08:13Z</time>
      </trkpt>
      <trkpt lat="47.57105" lon="-2.8931">
        <time>2014-03-15T08:08:14Z</time>
      </trkpt>
      <trkpt lat="47.57101" lon="-2.89314">
        <time>2014-03-15T08:08:16Z</time>
      </trkpt>
      <trkpt lat="47.57096" lon="-2.8932">
        <time>2014-03-15T08:08:19Z</time>
      </trkpt>
      <trkpt lat="47.57092" lon="-2.89325">
        <time>2014-03-15T08:08:21Z</time>
      </trkpt>
      <trkpt lat="47.57089" lon="-2.89329">
        <time>2014-03-15T08:08:23Z</time>
      </trkpt>
      <trkpt lat="47.57085" lon="-2.89333">
        <time>2014-03-15T08:08:26Z</time>
      </trkpt>
      <trkpt lat="47.57081" lon="-2.89337">
        <time>2014-03-15T08:08:27Z</time>
      </trkpt>
      <trkpt lat="47.57077" lon="-2.89342">
        <time>2014-03-15T08:08:29Z</time>
      </trkpt>
      <trkpt lat="47.57073" lon="-2.89346">
        <time>2014-03-15T08:08:31Z</time>
      </trkpt>
      <trkpt lat="47.57069" lon="-2.89351">
        <time>2014-03-15T08:08:34Z</time>
      </trkpt>
      <trkpt lat="47.57065" lon="-2.89355">
        <time>2014-03-15T08:08:35Z</time>
      </trkpt>
      <trkpt lat="47.57061" lon="-2.89359">
        <time>2014-03-15T08:08:37Z</time>
      </trkpt>
      <trkpt lat="47.57057" lon="-2.89364">
        <time>2014-03-15T08:08:39Z</time>
      </trkpt>
      <trkpt lat="47.57053" lon="-2.89369">
        <time>2014-03-15T08:08:41Z</time>
      </trkpt>
      <trkpt lat="47.57048" lon="-2.89373">
        <time>2014-03-15T08:08:43Z</time>
      </trkpt>
      <trkpt lat="47.57044" lon="-2.89377">
        <time>2014-03-15T08:08:46Z</time>
      </trkpt>
      <trkpt lat="47.5704" lon="-2.89381">
        <time>2014-03-15T08:08:47Z</time>
      </trkpt>
      <trkpt lat="47.57036" lon="-2.89385">
        <time>2014-03-15T08:08:49Z</time>
      </trkpt>
      <trkpt lat="47.57031" lon="-2.89389">
        <time>2014-03-15T08:08:52Z</time>
      </trkpt>
      <trkpt lat="47.57027" lon="-2.89392">
        <time>2014-03-15T08:08:54Z</time>
      </trkpt>
      <trkpt lat="47.57023" lon="-2.89397">
        <time>2014-03-15T08:08:55Z</time>
      </trkpt>
      <trkpt lat="47.57019" lon="-2.89402">
        <time>2014-03-15T08:08:57Z</time>
      </trkpt>
      <trkpt lat="47.57014" lon="-2.89406">
        <time>2014-03-15T08:09:00Z</time>
      </trkpt>
      <trkpt lat="47.5701" lon="-2.8941">
        <time>2014-03-15T08:09:01Z</time>
      </trkpt>
      <trkpt lat="47.57005" lon="-2.89413">
        <time>2014-03-15T08:09:04Z</time>
      </trkpt>
      <trkpt lat="47.57" lon="-2.89415">
        <time>2014-03-15T08:09:06Z</time>
      </trkpt>
      <trkpt lat="47.56994" lon="-2.89417">
        <time>2014-03-15T08:09:07Z</time>
      </trkpt>
      <trkpt lat="47.56989" lon="-2.8942">
        <time>2014-03-15T08:09:09Z</time>
      </trkpt>
      <trkpt lat="47.56984" lon="-2.89423">
        <time>2014-03-15T08:09:11Z</time>
      </trkpt>
      <trkpt lat="47.5698" lon="-2.89426">
        <time>2014-03-15T08:09:14Z</time>
      </trkpt>
      <trkpt lat="47.56975" lon="-2.8943">
        <time>2014-03-15T08:09:15Z</time>
      </trkpt>
      <trkpt lat="47.56971" lon="-2.89434">
        <time>2014-03-15T08:09:18Z</time>
      </trkpt>
      <trkpt lat="47.56967" lon="-2.89437">
        <time>2014-03-15T08:09:19Z</time>
      </trkpt>
      <trkpt lat="47.56962" lon="-2.89442">
        <time>2014-03-15T08:09:21Z</time>
      </trkpt>
      <trkpt lat="47.56958" lon="-2.89445">
        <time>2014-03-15T08:09:23Z</time>
      </trkpt>
      <trkpt lat="47.56953" lon="-2.89449">
        <time>2014-03-15T08:09:25Z</time>
      </trkpt>
      <trkpt lat="47.56949" lon="-2.89453">
        <time>2014-03-15T08:09:27Z</time>
      </trkpt>
      <trkpt lat="47.56944" lon="-2.89456">
        <time>2014-03-15T08:09:29Z</time>
      </trkpt>
      <trkpt lat="47.56939" lon="-2.8946">
        <time>2014-03-15T08:09:31Z</time>
      </trkpt>
      <trkpt lat="47.56935" lon="-2.89463">
        <time>2014-03-15T08:09:33Z</time>
      </trkpt>
      <trkpt lat="47.5693" lon="-2.89466">
        <time>2014-03-15T08:09:35Z</time>
      </trkpt>
      <trkpt lat="47.56926" lon="-2.89469">
        <time>2014-03-15T08:09:37Z</time>
      </trkpt>
      <trkpt lat="47.56921" lon="-2.89472">
        <time>2014-03-15T08:09:39Z</time>
      </trkpt>
      <trkpt lat="47.56916" lon="-2.89475">
        <time>2014-03-15T08:09:41Z</time>
      </trkpt>
      <trkpt lat="47.56912" lon="-2.89476">
        <time>2014-03-15T08:09:44Z</time>
      </trkpt>
      <trkpt lat="47.56907" lon="-2.89478">
        <time>2014-03-15T08:09:46Z</time>
      </trkpt>
      <trkpt lat="47.56903" lon="-2.89479">
        <time>2014-03-15T08:09:47Z</time>
      </trkpt>
      <trkpt lat="47.56896" lon="-2.89481">
        <time>2014-03-15T08:09:50Z</time>
      </trkpt>
      <trkpt lat="47.56892" lon="-2.89483">
        <time>2014-03-15T08:09:52Z</time>
      </trkpt>
      <trkpt lat="47.56887" lon="-2.89485">
        <time>2014-03-15T08:09:54Z</time>
      </trkpt>
      <trkpt lat="47.56882" lon="-2.89487">
        <time>2014-03-15T08:09:57Z</time>
      </trkpt>
      <trkpt lat="47.56877" lon="-2.89488">
        <time>2014-03-15T08:09:59Z</time>
      </trkpt>
      <trkpt lat="47.56872" lon="-2.8949">
        <time>2014-03-15T08:10:00Z</time>
      </trkpt>
      <trkpt lat="47.56868" lon="-2.89491">
        <time>2014-03-15T08:10:02Z</time>
      </trkpt>
      <trkpt lat="47.56863" lon="-2.89492">
        <time>2014-03-15T08:10:05Z</time>
      </trkpt>
      <trkpt lat="47.56858" lon="-2.89493">
        <time>2014-03-15T08:10:06Z</time>
      </trkpt>
      <trkpt lat="47.56852" lon="-2.89493">
        <time>2014-03-15T08:10:09Z</time>
      </trkpt>
      <trkpt lat="47.56847" lon="-2.89494">
        <time>2014-03-15T08:10:11Z</time>
      </trkpt>
      <trkpt lat="47.56842" lon="-2.89495">
        <time>2014-03-15T08:10:13Z</time>
      </trkpt>
      <trkpt lat="47.56836" lon="-2.89497">
        <time>2014-03-15T08:10:14Z</time>
      </trkpt>
      <trkpt lat="47.56831" lon="-2.89499">
        <time>2014-03-15T08:10:17Z</time>
      </trkpt>
      <trkpt lat="47.56826" lon="-2.89501">
        <time>2014-03-15T08:10:19Z</time>
      </trkpt>
      <trkpt lat="47.56821" lon="-2.89503">
        <time>2014-03-15T08:10:20Z</time>
      </trkpt>
      <trkpt lat="47.56816" lon="-2.89507">
        <time>2014-03-15T08:10:22Z</time>
      </trkpt>
      <trkpt lat="47.56811" lon="-2.8951">
        <time>2014-03-15T08:10:24Z</time>
      </trkpt>
      <trkpt lat="47.56806" lon="-2.89513">
        <time>2014-03-15T08:10:26Z</time>
      </trkpt>
      <trkpt lat="47.56801" lon="-2.89516">
        <time>2014-03-15T08:10:28Z</time>
      </trkpt>
      <trkpt lat="47.56795" lon="-2.89519">
        <time>2014-03-15T08:10:31Z</time>
      </trkpt>
      <trkpt lat="47.5679" lon="-2.89523">
        <time>2014-03-15T08:10:32Z</time>
      </trkpt>
      <trkpt lat="47.56785" lon="-2.89527">
        <time>2014-03-15T08:10:34Z</time>
      </trkpt>
      <trkpt lat="47.5678" lon="-2.89531">
        <time>2014-03-15T08:10:37Z</time>
      </trkpt>
      <trkpt lat="47.56776" lon="-2.89535">
        <time>2014-03-15T08:10:39Z</time>
      </trkpt>
      <trkpt lat="47.56772" lon="-2.8954">
        <time>2014-03-15T08:10:40Z</time>
      </trkpt>
      <trkpt lat="47.56768" lon="-2.89545">
        <time>2014-03-15T08:10:42Z</time>
      </trkpt>
      <trkpt lat="47.56765" lon="-2.89551">
        <time>2014-03-15T08:10:44Z</time>
      </trkpt>
      <trkpt lat="47.56761" lon="-2.89556">
        <time>2014-03-15T08:10:46Z</time>
      </trkpt>
      <trkpt lat="47.56757" lon="-2.89561">
        <time>2014-03-15T08:10:49Z</time>
      </trkpt>
      <trkpt lat="47.56753" lon="-2.89567">
        <time>2014-03-15T08:10:51Z</time>
      </trkpt>
      <trkpt lat="47.56749" lon="-2.89573">
        <time>2014-03-15T08:10:52Z</time>
      </trkpt>
      <trkpt lat="47.56745" lon="-2.89579">
        <time>2014-03-15T08:10:54Z</time>
      </trkpt>
      <trkpt lat="47.56742" lon="-2.89586">
        <time>2014-03-15T08:10:57Z</time>
      </trkpt>
      <trkpt lat="47.56739" lon="-2.89593">
        <time>2014-03-15T08:10:59Z</time>
      </trkpt>
      <trkpt lat="47.56736" lon="-2.896">
        <time>2014-03-15T08:11:00Z</time>
      </trkpt>
      <trkpt lat="47.56733" lon="-2.89607">
        <time>2014-03-15T08:11:02Z</time>
      </trkpt>
      <trkpt lat="47.56731" lon="-2.89614">
        <time>2014-03-15T08:11:04Z</time>
      </trkpt>
      <trkpt lat="47.56729" lon="-2.89622">
        <time>2014-03-15T08:11:06Z</time>
      </trkpt>
      <trkpt lat="47.56728" lon="-2.89629">
        <time>2014-03-15T08:11:08Z</time>
      </trkpt>
      <trkpt lat="47.56727" lon="-2.89635">
        <time>2014-03-15T08:11:11Z</time>
      </trkpt>
      <trkpt lat="47.56727" lon="-2.89645">
        <time>2014-03-15T08:11:13Z</time>
      </trkpt>
      <trkpt lat="47.56727" lon="-2.89654">
        <time>2014-03-15T08:11:17Z</time>
      </trkpt>
      <trkpt lat="47.56728" lon="-2.89662">
        <time>2014-03-15T08:11:19Z</time>
      </trkpt>
      <trkpt lat="47.56729" lon="-2.89669">
        <time>2014-03-15T08:11:22Z</time>
      </trkpt>
      <trkpt lat="47.56731" lon="-2.89677">
        <time>2014-03-15T08:11:26Z</time>
      </trkpt>
      <trkpt lat="47.56732" lon="-2.89684">
        <time>2014-03-15T08:11:30Z</time>
      </trkpt>
      <trkpt lat="47.56733" lon="-2.89692">
        <time>2014-03-15T08:11:34Z</time>
      </trkpt>
      <trkpt lat="47.56734" lon="-2.897">
        <time>2014-03-15T08:11:39Z</time>
      </trkpt>
      <trkpt lat="47.56737" lon="-2.89706">
        <time>2014-03-15T08:11:43Z</time>
      </trkpt>
      <trkpt lat="47.5674" lon="-2.89712">
        <time>2014-03-15T08:11:47Z</time>
      </trkpt>
      <trkpt lat="47.56741" lon="-2.8972">
        <time>2014-03-15T08:11:52Z</time>
      </trkpt>
      <trkpt lat="47.56741" lon="-2.89728">
        <time>2014-03-15T08:11:56Z</time>
      </trkpt>
      <trkpt lat="47.56742" lon="-2.89737">
        <time>2014-03-15T08:11:59Z</time>
      </trkpt>
      <trkpt lat="47.56744" lon="-2.89744">
        <time>2014-03-15T08:12:03Z</time>
      </trkpt>
      <trkpt lat="47.56746" lon="-2.8975">
        <time>2014-03-15T08:12:08Z</time>
      </trkpt>
      <trkpt lat="47.56746" lon="-2.89758">
        <time>2014-03-15T08:12:16Z</time>
      </trkpt>
      <trkpt lat="47.56748" lon="-2.89765">
        <time>2014-03-15T08:12:22Z</time>
      </trkpt>
      <trkpt lat="47.56751" lon="-2.89772">
        <ele>2</ele>
        <time>2014-03-15T08:12:26Z</time>
      </trkpt>
      <trkpt lat="47.56754" lon="-2.89779">
        <time>2014-03-15T08:12:30Z</time>
      </trkpt>
      <trkpt lat="47.56758" lon="-2.89786">
        <time>2014-03-15T08:12:33Z</time>
      </trkpt>
      <trkpt lat="47.56761" lon="-2.89791">
        <time>2014-03-15T08:12:37Z</time>
      </trkpt>
      <trkpt lat="47.56765" lon="-2.89797">
        <time>2014-03-15T08:12:41Z</time>
      </trkpt>
      <trkpt lat="47.56769" lon="-2.89803">
        <time>2014-03-15T08:12:45Z</time>
      </trkpt>
      <trkpt lat="47.56773" lon="-2.89806">
        <time>2014-03-15T08:12:48Z</time>
      </trkpt>
      <trkpt lat="47.56778" lon="-2.8981">
        <time>2014-03-15T08:12:51Z</time>
      </trkpt>
      <trkpt lat="47.56784" lon="-2.89814">
        <time>2014-03-15T08:12:55Z</time>
      </trkpt>
      <trkpt lat="47.56788" lon="-2.89817">
        <time>2014-03-15T08:12:59Z</time>
      </trkpt>
      <trkpt lat="47.56792" lon="-2.89819">
        <time>2014-03-15T08:13:02Z</time>
      </trkpt>
      <trkpt lat="47.56797" lon="-2.89822">
        <time>2014-03-15T08:13:05Z</time>
      </trkpt>
      <trkpt lat="47.56802" lon="-2.89824">
        <time>2014-03-15T08:13:11Z</time>
      </trkpt>
      <trkpt lat="47.56807" lon="-2.89825">
        <time>2014-03-15T08:13:16Z</time>
      </trkpt>
      <trkpt lat="47.56812" lon="-2.89826">
        <time>2014-03-15T08:13:23Z</time>
      </trkpt>
      <trkpt lat="47.56817" lon="-2.89826">
        <time>2014-03-15T08:15:16Z</time>
      </trkpt>
      <trkpt lat="47.56821" lon="-2.89826">
        <time>2014-03-15T08:16:19Z</time>
      </trkpt>
      <trkpt lat="47.56827" lon="-2.89827">
        <time>2014-03-15T08:17:07Z</time>
      </trkpt>
      <trkpt lat="47.56831" lon="-2.89826">
        <time>2014-03-15T08:17:18Z</time>
      </trkpt>
      <trkpt lat="47.56834" lon="-2.89831">
        <time>2014-03-15T08:20:26Z</time>
      </trkpt>
      <trkpt lat="47.56839" lon="-2.89827">
        <time>2014-03-15T08:21:39Z</time>
      </trkpt>
      <trkpt lat="47.56842" lon="-2.89822">
        <time>2014-03-15T08:21:41Z</time>
      </trkpt>
      <trkpt lat="47.56846" lon="-2.89818">
        <time>2014-03-15T08:21:45Z</time>
      </trkpt>
      <trkpt lat="47.56848" lon="-2.89812">
        <time>2014-03-15T08:21:55Z</time>
      </trkpt>
      <trkpt lat="47.56848" lon="-2.89804">
        <ele>2</ele>
        <time>2014-03-15T08:22:09Z</time>
      </trkpt>
      <trkpt lat="47.56851" lon="-2.89798">
        <ele>2</ele>
        <time>2014-03-15T08:22:13Z</time>
      </trkpt>
      <trkpt lat="47.56853" lon="-2.8979">
        <ele>2</ele>
        <time>2014-03-15T08:22:17Z</time>
      </trkpt>
      <trkpt lat="47.56853" lon="-2.89783">
        <ele>2</ele>
        <time>2014-03-15T08:22:21Z</time>
      </trkpt>
      <trkpt lat="47.56853" lon="-2.89775">
        <ele>2.2</ele>
        <time>2014-03-15T08:22:24Z</time>
      </trkpt>
      <trkpt lat="47.56853" lon="-2.89768">
        <ele>2.7</ele>
        <time>2014-03-15T08:22:27Z</time>
      </trkpt>
      <trkpt lat="47.56855" lon="-2.89762">
        <ele>3.2</ele>
        <time>2014-03-15T08:22:33Z</time>
      </trkpt>
      <trkpt lat="47.56858" lon="-2.89757">
        <ele>3.5</ele>
        <time>2014-03-15T08:22:38Z</time>
      </trkpt>
      <trkpt lat="47.56861" lon="-2.8975">
        <time>2014-03-15T08:22:43Z</time>
      </trkpt>
      <trkpt lat="47.56863" lon="-2.89744">
        <time>2014-03-15T08:22:47Z</time>
      </trkpt>
      <trkpt lat="47.56865" lon="-2.89736">
        <time>2014-03-15T08:22:50Z</time>
      </trkpt>
      <trkpt lat="47.56866" lon="-2.8973">
        <time>2014-03-15T08:22:53Z</time>
      </trkpt>
      <trkpt lat="47.56867" lon="-2.89722">
        <ele>1</ele>
        <time>2014-03-15T08:22:57Z</time>
      </trkpt>
      <trkpt lat="47.56869" lon="-2.89715">
        <ele>1</ele>
        <time>2014-03-15T08:23:30Z</time>
      </trkpt>
      <trkpt lat="47.5687" lon="-2.89708">
        <ele>1</ele>
        <time>2014-03-15T08:23:38Z</time>
      </trkpt>
      <trkpt lat="47.56871" lon="-2.89702">
        <ele>1</ele>
        <time>2014-03-15T08:23:45Z</time>
      </trkpt>
      <trkpt lat="47.56874" lon="-2.89695">
        <ele>1</ele>
        <time>2014-03-15T08:23:54Z</time>
      </trkpt>
      <trkpt lat="47.56878" lon="-2.89693">
        <ele>1.1</ele>
        <time>2014-03-15T08:27:28Z</time>
      </trkpt>
      <trkpt lat="47.56881" lon="-2.89689">
        <ele>1.6</ele>
        <time>2014-03-15T08:27:32Z</time>
      </trkpt>
      <trkpt lat="47.56884" lon="-2.89682">
        <ele>2.3</ele>
        <time>2014-03-15T08:27:37Z</time>
      </trkpt>
      <trkpt lat="47.56886" lon="-2.89676">
        <ele>3</ele>
        <time>2014-03-15T08:27:40Z</time>
      </trkpt>
      <trkpt lat="47.56889" lon="-2.89669">
        <ele>3.8</ele>
        <time>2014-03-15T08:27:44Z</time>
      </trkpt>
      <trkpt lat="47.56891" lon="-2.89662">
        <time>2014-03-15T08:27:47Z</time>
      </trkpt>
      <trkpt lat="47.56894" lon="-2.89655">
        <time>2014-03-15T08:27:51Z</time>
      </trkpt>
      <trkpt lat="47.56895" lon="-2.89647">
        <time>2014-03-15T08:27:55Z</time>
      </trkpt>
      <trkpt lat="47.56895" lon="-2.89639">
        <time>2014-03-15T08:27:59Z</time>
      </trkpt>
      <trkpt lat="47.56893" lon="-2.89632">
        <time>2014-03-15T08:28:03Z</time>
      </trkpt>
      <trkpt lat="47.56891" lon="-2.89625">
        <time>2014-03-15T08:28:07Z</time>
      </trkpt>
      <trkpt lat="47.56888" lon="-2.89617">
        <ele>1.2</ele>
        <time>2014-03-15T08:28:11Z</time>
      </trkpt>
      <trkpt lat="47.56886" lon="-2.8961">
        <ele>1</ele>
        <time>2014-03-15T08:28:14Z</time>
      </trkpt>
      <trkpt lat="47.56884" lon="-2.89602">
        <ele>1</ele>
        <time>2014-03-15T08:28:17Z</time>
      </trkpt>
      <trkpt lat="47.56882" lon="-2.89594">
        <ele>1</ele>
        <time>2014-03-15T08:28:20Z</time>
      </trkpt>
      <trkpt lat="47.56881" lon="-2.89586">
        <ele>1</ele>
        <time>2014-03-15T08:28:23Z</time>
      </trkpt>
      <trkpt lat="47.56878" lon="-2.89579">
        <time>2014-03-15T08:28:26Z</time>
      </trkpt>
      <trkpt lat="47.56875" lon="-2.89574">
        <time>2014-03-15T08:28:29Z</time>
      </trkpt>
      <trkpt lat="47.5687" lon="-2.89572">
        <time>2014-03-15T08:28:35Z</time>
      </trkpt>
      <trkpt lat="47.56866" lon="-2.89576">
        <time>2014-03-15T08:28:39Z</time>
      </trkpt>
      <trkpt lat="47.56864" lon="-2.89583">
        <time>2014-03-15T08:28:43Z</time>
      </trkpt>
      <trkpt lat="47.56861" lon="-2.89589">
        <ele>1</ele>
        <time>2014-03-15T08:28:49Z</time>
      </trkpt>
      <trkpt lat="47.56856" lon="-2.89588">
        <ele>1</ele>
        <time>2014-03-15T08:29:24Z</time>
      </trkpt>
      <trkpt lat="47.56851" lon="-2.89587">
        <ele>1</ele>
        <time>2014-03-15T08:29:29Z</time>
      </trkpt>
      <trkpt lat="47.56846" lon="-2.89585">
        <ele>1</ele>
        <time>2014-03-15T08:29:34Z</time>
      </trkpt>
      <trkpt lat="47.56841" lon="-2.89583">
        <ele>1</ele>
        <time>2014-03-15T08:29:41Z</time>
      </trkpt>
      <trkpt lat="47.56837" lon="-2.89581">
        <time>2014-03-15T08:29:48Z</time>
      </trkpt>
      <trkpt lat="47.56832" lon="-2.89581">
        <time>2014-03-15T08:29:57Z</time>
      </trkpt>
      <trkpt lat="47.56827" lon="-2.89581">
        <time>2014-03-15T08:30:06Z</time>
      </trkpt>
      <trkpt lat="47.56823" lon="-2.8958">
        <time>2014-03-15T08:30:10Z</time>
      </trkpt>
      <trkpt lat="47.56818" lon="-2.89579">
        <time>2014-03-15T08:30:15Z</time>
      </trkpt>
      <trkpt lat="47.56813" lon="-2.89579">
        <time>2014-03-15T08:30:22Z</time>
      </trkpt>
      <trkpt lat="47.56808" lon="-2.89577">
        <time>2014-03-15T08:30:27Z</time>
      </trkpt>
      <trkpt lat="47.56803" lon="-2.89576">
        <time>2014-03-15T08:30:31Z</time>
      </trkpt>
      <trkpt lat="47.56799" lon="-2.89571">
        <time>2014-03-15T08:30:36Z</time>
      </trkpt>
      <trkpt lat="47.56796" lon="-2.89565">
        <time>2014-03-15T08:30:41Z</time>
      </trkpt>
      <trkpt lat="47.56793" lon="-2.89557">
        <time>2014-03-15T08:30:45Z</time>
      </trkpt>
      <trkpt lat="47.56791" lon="-2.89551">
        <time>2014-03-15T08:30:48Z</time>
      </trkpt>
      <trkpt lat="47.5679" lon="-2.89543">
        <time>2014-03-15T08:30:52Z</time>
      </trkpt>
      <trkpt lat="47.5679" lon="-2.89535">
        <time>2014-03-15T08:30:56Z</time>
      </trkpt>
      <trkpt lat="47.56792" lon="-2.89528">
        <time>2014-03-15T08:31:02Z</time>
      </trkpt>
      <trkpt lat="47.56794" lon="-2.8952">
        <time>2014-03-15T08:31:10Z</time>
      </trkpt>
      <trkpt lat="47.56797" lon="-2.89514">
        <time>2014-03-15T08:31:16Z</time>
      </trkpt>
      <trkpt lat="47.56801" lon="-2.8951">
        <time>2014-03-15T08:31:22Z</time>
      </trkpt>
      <trkpt lat="47.56804" lon="-2.89505">
        <time>2014-03-15T08:31:29Z</time>
      </trkpt>
      <trkpt lat="47.56809" lon="-2.89502">
        <time>2014-03-15T08:31:36Z</time>
      </trkpt>
      <trkpt lat="47.56814" lon="-2.895">
        <time>2014-03-15T08:31:42Z</time>
      </trkpt>
      <trkpt lat="47.56818" lon="-2.89497">
        <time>2014-03-15T08:31:48Z</time>
      </trkpt>
      <trkpt lat="47.56822" lon="-2.89493">
        <time>2014-03-15T08:31:53Z</time>
      </trkpt>
      <trkpt lat="47.56826" lon="-2.89488">
        <time>2014-03-15T08:31:58Z</time>
      </trkpt>
      <trkpt lat="47.56831" lon="-2.89485">
        <time>2014-03-15T08:32:03Z</time>
      </trkpt>
      <trkpt lat="47.56835" lon="-2.89483">
        <time>2014-03-15T08:32:09Z</time>
      </trkpt>
      <trkpt lat="47.56841" lon="-2.89482">
        <time>2014-03-15T08:32:14Z</time>
      </trkpt>
      <trkpt lat="47.56845" lon="-2.89481">
        <time>2014-03-15T08:32:18Z</time>
      </trkpt>
      <trkpt lat="47.56851" lon="-2.89479">
        <time>2014-03-15T08:32:21Z</time>
      </trkpt>
      <trkpt lat="47.56855" lon="-2.89479">
        <time>2014-03-15T08:32:25Z</time>
      </trkpt>
      <trkpt lat="47.56861" lon="-2.89481">
        <time>2014-03-15T08:32:28Z</time>
      </trkpt>
      <trkpt lat="47.56866" lon="-2.89484">
        <time>2014-03-15T08:32:33Z</time>
      </trkpt>
      <trkpt lat="47.56871" lon="-2.89487">
        <time>2014-03-15T08:32:37Z</time>
      </trkpt>
      <trkpt lat="47.56876" lon="-2.89488">
        <time>2014-03-15T08:32:41Z</time>
      </trkpt>
      <trkpt lat="47.56881" lon="-2.89489">
        <time>2014-03-15T08:32:44Z</time>
      </trkpt>
      <trkpt lat="47.56886" lon="-2.8949">
        <time>2014-03-15T08:32:48Z</time>
      </trkpt>
      <trkpt lat="47.56891" lon="-2.89492">
        <time>2014-03-15T08:32:53Z</time>
      </trkpt>
      <trkpt lat="47.56895" lon="-2.89494">
        <time>2014-03-15T08:32:57Z</time>
      </trkpt>
      <trkpt lat="47.56901" lon="-2.89496">
        <time>2014-03-15T08:33:02Z</time>
      </trkpt>
      <trkpt lat="47.56905" lon="-2.89499">
        <time>2014-03-15T08:33:06Z</time>
      </trkpt>
      <trkpt lat="47.56909" lon="-2.89504">
        <time>2014-03-15T08:33:11Z</time>
      </trkpt>
      <trkpt lat="47.56912" lon="-2.89509">
        <time>2014-03-15T08:33:15Z</time>
      </trkpt>
      <trkpt lat="47.56917" lon="-2.89513">
        <time>2014-03-15T08:33:21Z</time>
      </trkpt>
      <trkpt lat="47.56921" lon="-2.89517">
        <time>2014-03-15T08:33:25Z</time>
      </trkpt>
      <trkpt lat="47.56925" lon="-2.8952">
        <time>2014-03-15T08:33:29Z</time>
      </trkpt>
      <trkpt lat="47.56929" lon="-2.89524">
        <time>2014-03-15T08:33:34Z</time>
      </trkpt>
      <trkpt lat="47.56933" lon="-2.89529">
        <time>2014-03-15T08:33:38Z</time>
      </trkpt>
      <trkpt lat="47.56937" lon="-2.89534">
        <time>2014-03-15T08:33:42Z</time>
      </trkpt>
      <trkpt lat="47.56941" lon="-2.89538">
        <time>2014-03-15T08:33:45Z</time>
      </trkpt>
      <trkpt lat="47.56945" lon="-2.89542">
        <time>2014-03-15T08:33:49Z</time>
      </trkpt>
      <trkpt lat="47.5695" lon="-2.89548">
        <time>2014-03-15T08:33:54Z</time>
      </trkpt>
      <trkpt lat="47.56954" lon="-2.89553">
        <time>2014-03-15T08:33:56Z</time>
      </trkpt>
      <trkpt lat="47.56958" lon="-2.89558">
        <time>2014-03-15T08:33:59Z</time>
      </trkpt>
      <trkpt lat="47.56962" lon="-2.89563">
        <time>2014-03-15T08:34:02Z</time>
      </trkpt>
      <trkpt lat="47.56965" lon="-2.89569">
        <time>2014-03-15T08:34:06Z</time>
      </trkpt>
      <trkpt lat="47.56969" lon="-2.89574">
        <time>2014-03-15T08:34:08Z</time>
      </trkpt>
      <trkpt lat="47.56974" lon="-2.8958">
        <time>2014-03-15T08:34:11Z</time>
      </trkpt>
      <trkpt lat="47.56978" lon="-2.89586">
        <time>2014-03-15T08:34:14Z</time>
      </trkpt>
      <trkpt lat="47.5698" lon="-2.89593">
        <time>2014-03-15T08:34:18Z</time>
      </trkpt>
      <trkpt lat="47.56983" lon="-2.89601">
        <time>2014-03-15T08:34:21Z</time>
      </trkpt>
      <trkpt lat="47.56985" lon="-2.89609">
        <time>2014-03-15T08:34:23Z</time>
      </trkpt>
      <trkpt lat="47.56988" lon="-2.89618">
        <time>2014-03-15T08:34:27Z</time>
      </trkpt>
      <trkpt lat="47.5699" lon="-2.89625">
        <time>2014-03-15T08:34:29Z</time>
      </trkpt>
      <trkpt lat="47.5699" lon="-2.89634">
        <time>2014-03-15T08:34:31Z</time>
      </trkpt>
      <trkpt lat="47.5699" lon="-2.89642">
        <time>2014-03-15T08:34:33Z</time>
      </trkpt>
      <trkpt lat="47.56989" lon="-2.89651">
        <time>2014-03-15T08:34:34Z</time>
      </trkpt>
      <trkpt lat="47.5699" lon="-2.89659">
        <time>2014-03-15T08:34:36Z</time>
      </trkpt>
      <trkpt lat="47.5699" lon="-2.89668">
        <time>2014-03-15T08:34:38Z</time>
      </trkpt>
      <trkpt lat="47.5699" lon="-2.89677">
        <time>2014-03-15T08:34:40Z</time>
      </trkpt>
      <trkpt lat="47.5699" lon="-2.89687">
        <time>2014-03-15T08:34:42Z</time>
      </trkpt>
      <trkpt lat="47.5699" lon="-2.89696">
        <time>2014-03-15T08:34:45Z</time>
      </trkpt>
      <trkpt lat="47.56989" lon="-2.89706">
        <time>2014-03-15T08:34:47Z</time>
      </trkpt>
      <trkpt lat="47.56989" lon="-2.89716">
        <time>2014-03-15T08:34:48Z</time>
      </trkpt>
      <trkpt lat="47.56988" lon="-2.89727">
        <time>2014-03-15T08:34:51Z</time>
      </trkpt>
      <trkpt lat="47.56987" lon="-2.89737">
        <time>2014-03-15T08:34:53Z</time>
      </trkpt>
      <trkpt lat="47.56987" lon="-2.89747">
        <time>2014-03-15T08:34:55Z</time>
      </trkpt>
      <trkpt lat="47.56987" lon="-2.89758">
        <time>2014-03-15T08:34:56Z</time>
      </trkpt>
      <trkpt lat="47.56988" lon="-2.89768">
        <time>2014-03-15T08:34:59Z</time>
      </trkpt>
      <trkpt lat="47.56988" lon="-2.89778">
        <time>2014-03-15T08:35:01Z</time>
      </trkpt>
      <trkpt lat="47.56988" lon="-2.89788">
        <time>2014-03-15T08:35:02Z</time>
      </trkpt>
      <trkpt lat="47.56989" lon="-2.89798">
        <time>2014-03-15T08:35:04Z</time>
      </trkpt>
      <trkpt lat="47.56989" lon="-2.89809">
        <time>2014-03-15T08:35:06Z</time>
      </trkpt>
      <trkpt lat="47.56989" lon="-2.89819">
        <time>2014-03-15T08:35:08Z</time>
      </trkpt>
      <trkpt lat="47.56989" lon="-2.89829">
        <time>2014-03-15T08:35:10Z</time>
      </trkpt>
      <trkpt lat="47.56989" lon="-2.89838">
        <time>2014-03-15T08:35:13Z</time>
      </trkpt>
      <trkpt lat="47.5699" lon="-2.89848">
        <time>2014-03-15T08:35:14Z</time>
      </trkpt>
      <trkpt lat="47.56991" lon="-2.89857">
        <time>2014-03-15T08:35:16Z</time>
      </trkpt>
      <trkpt lat="47.56993" lon="-2.89866">
        <time>2014-03-15T08:35:18Z</time>
      </trkpt>
      <trkpt lat="47.56995" lon="-2.89876">
        <time>2014-03-15T08:35:21Z</time>
      </trkpt>
      <trkpt lat="47.56997" lon="-2.89885">
        <time>2014-03-15T08:35:23Z</time>
      </trkpt>
      <trkpt lat="47.56999" lon="-2.89894">
        <time>2014-03-15T08:35:24Z</time>
      </trkpt>
      <trkpt lat="47.57001" lon="-2.89903">
        <time>2014-03-15T08:35:26Z</time>
      </trkpt>
      <trkpt lat="47.57003" lon="-2.89912">
        <time>2014-03-15T08:35:28Z</time>
      </trkpt>
      <trkpt lat="47.57004" lon="-2.89921">
        <time>2014-03-15T08:35:30Z</time>
      </trkpt>
      <trkpt lat="47.57005" lon="-2.8993">
        <time>2014-03-15T08:35:32Z</time>
      </trkpt>
      <trkpt lat="47.57005" lon="-2.89939">
        <time>2014-03-15T08:35:34Z</time>
      </trkpt>
      <trkpt lat="47.57007" lon="-2.89947">
        <time>2014-03-15T08:35:36Z</time>
      </trkpt>
      <trkpt lat="47.57007" lon="-2.89953">
        <time>2014-03-15T08:35:39Z</time>
      </trkpt>
      <trkpt lat="47.57008" lon="-2.89961">
        <time>2014-03-15T08:35:42Z</time>
      </trkpt>
      <trkpt lat="47.57011" lon="-2.89967">
        <time>2014-03-15T08:35:49Z</time>
      </trkpt>
      <trkpt lat="47.57016" lon="-2.89971">
        <time>2014-03-15T08:35:55Z</time>
      </trkpt>
      <trkpt lat="47.57021" lon="-2.8997">
        <time>2014-03-15T08:36:00Z</time>
      </trkpt>
      <trkpt lat="47.57026" lon="-2.89973">
        <time>2014-03-15T08:36:03Z</time>
      </trkpt>
      <trkpt lat="47.5703" lon="-2.89976">
        <time>2014-03-15T08:36:07Z</time>
      </trkpt>
      <trkpt lat="47.57035" lon="-2.89978">
        <time>2014-03-15T08:36:09Z</time>
      </trkpt>
      <trkpt lat="47.57039" lon="-2.89978">
        <time>2014-03-15T08:36:13Z</time>
      </trkpt>
      <trkpt lat="47.57044" lon="-2.8998">
        <time>2014-03-15T08:36:15Z</time>
      </trkpt>
      <trkpt lat="47.5705" lon="-2.89979">
        <time>2014-03-15T08:36:20Z</time>
      </trkpt>
      <trkpt lat="47.57055" lon="-2.89977">
        <time>2014-03-15T08:36:22Z</time>
      </trkpt>
      <trkpt lat="47.5706" lon="-2.89975">
        <time>2014-03-15T08:36:26Z</time>
      </trkpt>
      <trkpt lat="47.57064" lon="-2.89975">
        <time>2014-03-15T08:36:28Z</time>
      </trkpt>
      <trkpt lat="47.5707" lon="-2.89973">
        <time>2014-03-15T08:36:33Z</time>
      </trkpt>
      <trkpt lat="47.57076" lon="-2.89974">
        <time>2014-03-15T08:36:36Z</time>
      </trkpt>
      <trkpt lat="47.5708" lon="-2.89976">
        <time>2014-03-15T08:36:40Z</time>
      </trkpt>
      <trkpt lat="47.57084" lon="-2.8998">
        <ele>9</ele>
        <time>2014-03-15T08:36:45Z</time>
      </trkpt>
      <trkpt lat="47.57088" lon="-2.89983">
        <ele>9</ele>
        <time>2014-03-15T08:36:50Z</time>
      </trkpt>
      <trkpt lat="47.57093" lon="-2.89987">
        <ele>9</ele>
        <time>2014-03-15T08:36:56Z</time>
      </trkpt>
      <trkpt lat="47.57097" lon="-2.8999">
        <ele>8</ele>
        <time>2014-03-15T08:37:03Z</time>
      </trkpt>
      <trkpt lat="47.57102" lon="-2.89992">
        <ele>8</ele>
        <time>2014-03-15T08:37:13Z</time>
      </trkpt>
      <trkpt lat="47.57103" lon="-2.89998">
        <ele>8</ele>
        <time>2014-03-15T08:38:00Z</time>
      </trkpt>
      <trkpt lat="47.571" lon="-2.89993">
        <ele>8</ele>
        <time>2014-03-15T08:45:44Z</time>
      </trkpt>
      <trkpt lat="47.57097" lon="-2.89987">
        <ele>9</ele>
        <time>2014-03-15T08:45:51Z</time>
      </trkpt>
      <trkpt lat="47.57094" lon="-2.89982">
        <ele>9</ele>
        <time>2014-03-15T08:45:58Z</time>
      </trkpt>
      <trkpt lat="47.5709" lon="-2.89976">
        <ele>9</ele>
        <time>2014-03-15T08:46:04Z</time>
      </trkpt>
      <trkpt lat="47.57087" lon="-2.8997">
        <ele>9</ele>
        <time>2014-03-15T08:46:09Z</time>
      </trkpt>
      <trkpt lat="47.57084" lon="-2.89964">
        <ele>9</ele>
        <time>2014-03-15T08:46:13Z</time>
      </trkpt>
      <trkpt lat="47.57082" lon="-2.89958">
        <time>2014-03-15T08:46:18Z</time>
      </trkpt>
      <trkpt lat="47.5708" lon="-2.89951">
        <time>2014-03-15T08:46:21Z</time>
      </trkpt>
      <trkpt lat="47.57078" lon="-2.89944">
        <time>2014-03-15T08:46:26Z</time>
      </trkpt>
      <trkpt lat="47.57077" lon="-2.89937">
        <time>2014-03-15T08:46:30Z</time>
      </trkpt>
      <trkpt lat="47.57075" lon="-2.8993">
        <time>2014-03-15T08:46:34Z</time>
      </trkpt>
      <trkpt lat="47.57073" lon="-2.89924">
        <time>2014-03-15T08:46:40Z</time>
      </trkpt>
      <trkpt lat="47.5707" lon="-2.8992">
        <time>2014-03-15T08:46:44Z</time>
      </trkpt>
      <trkpt lat="47.57066" lon="-2.89914">
        <time>2014-03-15T08:46:49Z</time>
      </trkpt>
      <trkpt lat="47.57062" lon="-2.89911">
        <time>2014-03-15T08:46:53Z</time>
      </trkpt>
      <trkpt lat="47.57057" lon="-2.8991">
        <time>2014-03-15T08:46:59Z</time>
      </trkpt>
      <trkpt lat="47.57052" lon="-2.89912">
        <time>2014-03-15T08:47:03Z</time>
      </trkpt>
      <trkpt lat="47.57047" lon="-2.89914">
        <time>2014-03-15T08:47:06Z</time>
      </trkpt>
      <trkpt lat="47.57042" lon="-2.89918">
        <time>2014-03-15T08:47:10Z</time>
      </trkpt>
      <trkpt lat="47.57038" lon="-2.89922">
        <time>2014-03-15T08:47:13Z</time>
      </trkpt>
      <trkpt lat="47.57034" lon="-2.89927">
        <time>2014-03-15T08:47:16Z</time>
      </trkpt>
      <trkpt lat="47.57029" lon="-2.89933">
        <time>2014-03-15T08:47:19Z</time>
      </trkpt>
      <trkpt lat="47.57024" lon="-2.8994">
        <time>2014-03-15T08:47:21Z</time>
      </trkpt>
      <trkpt lat="47.57021" lon="-2.89945">
        <time>2014-03-15T08:47:23Z</time>
      </trkpt>
      <trkpt lat="47.57017" lon="-2.8995">
        <time>2014-03-15T08:47:26Z</time>
      </trkpt>
      <trkpt lat="47.57012" lon="-2.89956">
        <time>2014-03-15T08:47:27Z</time>
      </trkpt>
      <trkpt lat="47.57008" lon="-2.89963">
        <time>2014-03-15T08:47:29Z</time>
      </trkpt>
      <trkpt lat="47.57005" lon="-2.89971">
        <time>2014-03-15T08:47:32Z</time>
      </trkpt>
      <trkpt lat="47.57001" lon="-2.8998">
        <time>2014-03-15T08:47:33Z</time>
      </trkpt>
      <trkpt lat="47.56997" lon="-2.89989">
        <time>2014-03-15T08:47:35Z</time>
      </trkpt>
      <trkpt lat="47.56994" lon="-2.89999">
        <time>2014-03-15T08:47:38Z</time>
      </trkpt>
      <trkpt lat="47.56989" lon="-2.90008">
        <time>2014-03-15T08:47:40Z</time>
      </trkpt>
      <trkpt lat="47.56985" lon="-2.90018">
        <time>2014-03-15T08:47:41Z</time>
      </trkpt>
      <trkpt lat="47.5698" lon="-2.90027">
        <time>2014-03-15T08:47:44Z</time>
      </trkpt>
      <trkpt lat="47.56976" lon="-2.90037">
        <time>2014-03-15T08:47:46Z</time>
      </trkpt>
      <trkpt lat="47.56972" lon="-2.90047">
        <time>2014-03-15T08:47:47Z</time>
      </trkpt>
      <trkpt lat="47.56968" lon="-2.90058">
        <time>2014-03-15T08:47:50Z</time>
      </trkpt>
      <trkpt lat="47.56965" lon="-2.90068">
        <time>2014-03-15T08:47:52Z</time>
      </trkpt>
      <trkpt lat="47.56961" lon="-2.90079">
        <time>2014-03-15T08:47:53Z</time>
      </trkpt>
      <trkpt lat="47.56955" lon="-2.9009">
        <time>2014-03-15T08:47:56Z</time>
      </trkpt>
      <trkpt lat="47.5695" lon="-2.90101">
        <time>2014-03-15T08:47:58Z</time>
      </trkpt>
      <trkpt lat="47.56945" lon="-2.90112">
        <time>2014-03-15T08:48:00Z</time>
      </trkpt>
      <trkpt lat="47.56941" lon="-2.90122">
        <time>2014-03-15T08:48:01Z</time>
      </trkpt>
      <trkpt lat="47.56936" lon="-2.90132">
        <time>2014-03-15T08:48:04Z</time>
      </trkpt>
      <trkpt lat="47.56931" lon="-2.90142">
        <time>2014-03-15T08:48:06Z</time>
      </trkpt>
      <trkpt lat="47.56926" lon="-2.90152">
        <time>2014-03-15T08:48:07Z</time>
      </trkpt>
      <trkpt lat="47.56921" lon="-2.90162">
        <time>2014-03-15T08:48:10Z</time>
      </trkpt>
      <trkpt lat="47.56916" lon="-2.90173">
        <time>2014-03-15T08:48:12Z</time>
      </trkpt>
      <trkpt lat="47.56911" lon="-2.90183">
        <time>2014-03-15T08:48:13Z</time>
      </trkpt>
      <trkpt lat="47.56905" lon="-2.90192">
        <time>2014-03-15T08:48:16Z</time>
      </trkpt>
      <trkpt lat="47.56899" lon="-2.902">
        <time>2014-03-15T08:48:18Z</time>
      </trkpt>
      <trkpt lat="47.56893" lon="-2.90209">
        <time>2014-03-15T08:48:20Z</time>
      </trkpt>
      <trkpt lat="47.56887" lon="-2.90218">
        <time>2014-03-15T08:48:22Z</time>
      </trkpt>
      <trkpt lat="47.56881" lon="-2.90226">
        <time>2014-03-15T08:48:23Z</time>
      </trkpt>
      <trkpt lat="47.56874" lon="-2.90235">
        <time>2014-03-15T08:48:25Z</time>
      </trkpt>
      <trkpt lat="47.56868" lon="-2.90244">
        <time>2014-03-15T08:48:27Z</time>
      </trkpt>
      <trkpt lat="47.56862" lon="-2.90253">
        <time>2014-03-15T08:48:29Z</time>
      </trkpt>
      <trkpt lat="47.56856" lon="-2.90263">
        <time>2014-03-15T08:48:31Z</time>
      </trkpt>
      <trkpt lat="47.5685" lon="-2.90273">
        <time>2014-03-15T08:48:33Z</time>
      </trkpt>
      <trkpt lat="47.5684" lon="-2.90288">
        <time>2014-03-15T08:48:37Z</time>
      </trkpt>
      <trkpt lat="47.56837" lon="-2.90293">
        <time>2014-03-15T08:48:38Z</time>
      </trkpt>
      <trkpt lat="47.5683" lon="-2.90304">
        <time>2014-03-15T08:48:39Z</time>
      </trkpt>
      <trkpt lat="47.56824" lon="-2.90315">
        <time>2014-03-15T08:48:42Z</time>
      </trkpt>
      <trkpt lat="47.56821" lon="-2.90319">
        <time>2014-03-15T08:48:43Z</time>
      </trkpt>
      <trkpt lat="47.56813" lon="-2.9033">
        <time>2014-03-15T08:48:44Z</time>
      </trkpt>
      <trkpt lat="47.56806" lon="-2.90338">
        <time>2014-03-15T08:48:47Z</time>
      </trkpt>
      <trkpt lat="47.568" lon="-2.90346">
        <time>2014-03-15T08:48:48Z</time>
      </trkpt>
      <trkpt lat="47.56788" lon="-2.90359">
        <time>2014-03-15T08:48:52Z</time>
      </trkpt>
      <trkpt lat="47.5678" lon="-2.90369">
        <time>2014-03-15T08:48:53Z</time>
      </trkpt>
      <trkpt lat="47.56774" lon="-2.90376">
        <time>2014-03-15T08:48:56Z</time>
      </trkpt>
      <trkpt lat="47.56771" lon="-2.90381">
        <time>2014-03-15T08:48:57Z</time>
      </trkpt>
      <trkpt lat="47.56764" lon="-2.9039">
        <time>2014-03-15T08:48:58Z</time>
      </trkpt>
      <trkpt lat="47.56762" lon="-2.90396">
        <time>2014-03-15T08:49:00Z</time>
      </trkpt>
      <trkpt lat="47.56755" lon="-2.90405">
        <time>2014-03-15T08:49:02Z</time>
      </trkpt>
      <trkpt lat="47.56749" lon="-2.90413">
        <time>2014-03-15T08:49:04Z</time>
      </trkpt>
      <trkpt lat="47.56742" lon="-2.90421">
        <time>2014-03-15T08:49:06Z</time>
      </trkpt>
      <trkpt lat="47.56739" lon="-2.90426">
        <time>2014-03-15T08:49:07Z</time>
      </trkpt>
      <trkpt lat="47.56732" lon="-2.90434">
        <time>2014-03-15T08:49:08Z</time>
      </trkpt>
      <trkpt lat="47.56726" lon="-2.90442">
        <time>2014-03-15T08:49:10Z</time>
      </trkpt>
      <trkpt lat="47.5672" lon="-2.90451">
        <time>2014-03-15T08:49:12Z</time>
      </trkpt>
      <trkpt lat="47.56715" lon="-2.9046">
        <time>2014-03-15T08:49:14Z</time>
      </trkpt>
      <trkpt lat="47.56711" lon="-2.90465">
        <time>2014-03-15T08:49:16Z</time>
      </trkpt>
      <trkpt lat="47.56703" lon="-2.90473">
        <time>2014-03-15T08:49:18Z</time>
      </trkpt>
      <trkpt lat="47.56696" lon="-2.90482">
        <time>2014-03-15T08:49:20Z</time>
      </trkpt>
      <trkpt lat="47.56689" lon="-2.90491">
        <time>2014-03-15T08:49:21Z</time>
      </trkpt>
      <trkpt lat="47.56684" lon="-2.905">
        <time>2014-03-15T08:49:23Z</time>
      </trkpt>
      <trkpt lat="47.5668" lon="-2.90505">
        <time>2014-03-15T08:49:25Z</time>
      </trkpt>
      <trkpt lat="47.56674" lon="-2.90514">
        <time>2014-03-15T08:49:27Z</time>
      </trkpt>
      <trkpt lat="47.56667" lon="-2.90524">
        <time>2014-03-15T08:49:29Z</time>
      </trkpt>
      <trkpt lat="47.56661" lon="-2.90533">
        <time>2014-03-15T08:49:30Z</time>
      </trkpt>
      <trkpt lat="47.56658" lon="-2.90539">
        <time>2014-03-15T08:49:31Z</time>
      </trkpt>
      <trkpt lat="47.56654" lon="-2.90545">
        <time>2014-03-15T08:49:32Z</time>
      </trkpt>
      <trkpt lat="47.56648" lon="-2.90555">
        <time>2014-03-15T08:49:34Z</time>
      </trkpt>
      <trkpt lat="47.56643" lon="-2.90565">
        <time>2014-03-15T08:49:36Z</time>
      </trkpt>
      <trkpt lat="47.56637" lon="-2.90574">
        <time>2014-03-15T08:49:39Z</time>
      </trkpt>
      <trkpt lat="47.5663" lon="-2.90585">
        <time>2014-03-15T08:49:41Z</time>
      </trkpt>
      <trkpt lat="47.56627" lon="-2.9059">
        <time>2014-03-15T08:49:42Z</time>
      </trkpt>
      <trkpt lat="47.56623" lon="-2.90595">
        <time>2014-03-15T08:49:43Z</time>
      </trkpt>
      <trkpt lat="47.56617" lon="-2.90606">
        <time>2014-03-15T08:49:45Z</time>
      </trkpt>
      <trkpt lat="47.5661" lon="-2.90617">
        <time>2014-03-15T08:49:47Z</time>
      </trkpt>
      <trkpt lat="47.56605" lon="-2.90629">
        <time>2014-03-15T08:49:49Z</time>
      </trkpt>
      <trkpt lat="47.56602" lon="-2.90635">
        <time>2014-03-15T08:49:50Z</time>
      </trkpt>
      <trkpt lat="47.56598" lon="-2.90646">
        <time>2014-03-15T08:49:52Z</time>
      </trkpt>
      <trkpt lat="47.56595" lon="-2.90658">
        <time>2014-03-15T08:49:54Z</time>
      </trkpt>
      <trkpt lat="47.56591" lon="-2.9067">
        <time>2014-03-15T08:49:56Z</time>
      </trkpt>
      <trkpt lat="47.56588" lon="-2.90684">
        <time>2014-03-15T08:49:57Z</time>
      </trkpt>
      <trkpt lat="47.56586" lon="-2.9069">
        <time>2014-03-15T08:49:59Z</time>
      </trkpt>
      <trkpt lat="47.56584" lon="-2.90697">
        <time>2014-03-15T08:50:00Z</time>
      </trkpt>
      <trkpt lat="47.56582" lon="-2.90704">
        <time>2014-03-15T08:50:01Z</time>
      </trkpt>
      <trkpt lat="47.56579" lon="-2.90717">
        <time>2014-03-15T08:50:02Z</time>
      </trkpt>
      <trkpt lat="47.56576" lon="-2.9073">
        <time>2014-03-15T08:50:05Z</time>
      </trkpt>
      <trkpt lat="47.56574" lon="-2.90737">
        <time>2014-03-15T08:50:06Z</time>
      </trkpt>
      <trkpt lat="47.56571" lon="-2.9075">
        <time>2014-03-15T08:50:08Z</time>
      </trkpt>
      <trkpt lat="47.56569" lon="-2.90757">
        <time>2014-03-15T08:50:09Z</time>
      </trkpt>
      <trkpt lat="47.56568" lon="-2.90763">
        <time>2014-03-15T08:50:10Z</time>
      </trkpt>
      <trkpt lat="47.56566" lon="-2.90769">
        <time>2014-03-15T08:50:11Z</time>
      </trkpt>
      <trkpt lat="47.56564" lon="-2.90783">
        <time>2014-03-15T08:50:13Z</time>
      </trkpt>
      <trkpt lat="47.56563" lon="-2.90789">
        <time>2014-03-15T08:50:14Z</time>
      </trkpt>
      <trkpt lat="47.5656" lon="-2.90801">
        <time>2014-03-15T08:50:15Z</time>
      </trkpt>
      <trkpt lat="47.56559" lon="-2.90808">
        <time>2014-03-15T08:50:17Z</time>
      </trkpt>
      <trkpt lat="47.56557" lon="-2.9082">
        <time>2014-03-15T08:50:19Z</time>
      </trkpt>
      <trkpt lat="47.56555" lon="-2.90833">
        <time>2014-03-15T08:50:21Z</time>
      </trkpt>
      <trkpt lat="47.56553" lon="-2.90844">
        <time>2014-03-15T08:50:22Z</time>
      </trkpt>
      <trkpt lat="47.56552" lon="-2.90855">
        <time>2014-03-15T08:50:24Z</time>
      </trkpt>
      <trkpt lat="47.56551" lon="-2.90865">
        <time>2014-03-15T08:50:26Z</time>
      </trkpt>
      <trkpt lat="47.5655" lon="-2.90875">
        <time>2014-03-15T08:50:29Z</time>
      </trkpt>
      <trkpt lat="47.56549" lon="-2.90885">
        <time>2014-03-15T08:50:31Z</time>
      </trkpt>
      <trkpt lat="47.5655" lon="-2.90894">
        <time>2014-03-15T08:50:33Z</time>
      </trkpt>
      <trkpt lat="47.5655" lon="-2.90904">
        <time>2014-03-15T08:50:34Z</time>
      </trkpt>
      <trkpt lat="47.56551" lon="-2.90915">
        <time>2014-03-15T08:50:37Z</time>
      </trkpt>
      <trkpt lat="47.56552" lon="-2.90925">
        <time>2014-03-15T08:50:38Z</time>
      </trkpt>
      <trkpt lat="47.56553" lon="-2.90935">
        <time>2014-03-15T08:50:41Z</time>
      </trkpt>
      <trkpt lat="47.56554" lon="-2.90943">
        <time>2014-03-15T08:50:43Z</time>
      </trkpt>
      <trkpt lat="47.56555" lon="-2.9095">
        <time>2014-03-15T08:50:45Z</time>
      </trkpt>
      <trkpt lat="47.56557" lon="-2.90958">
        <time>2014-03-15T08:50:47Z</time>
      </trkpt>
      <trkpt lat="47.56558" lon="-2.90965">
        <time>2014-03-15T08:50:51Z</time>
      </trkpt>
      <trkpt lat="47.5656" lon="-2.90974">
        <time>2014-03-15T08:50:54Z</time>
      </trkpt>
      <trkpt lat="47.56563" lon="-2.90981">
        <time>2014-03-15T08:50:57Z</time>
      </trkpt>
      <trkpt lat="47.56565" lon="-2.90989">
        <time>2014-03-15T08:51:01Z</time>
      </trkpt>
      <trkpt lat="47.56569" lon="-2.90995">
        <time>2014-03-15T08:51:06Z</time>
      </trkpt>
      <trkpt lat="47.56572" lon="-2.91001">
        <time>2014-03-15T08:51:12Z</time>
      </trkpt>
      <trkpt lat="47.56575" lon="-2.91008">
        <time>2014-03-15T08:51:17Z</time>
      </trkpt>
      <trkpt lat="47.56579" lon="-2.91014">
        <time>2014-03-15T08:51:20Z</time>
      </trkpt>
      <trkpt lat="47.56583" lon="-2.91019">
        <time>2014-03-15T08:51:25Z</time>
      </trkpt>
      <trkpt lat="47.56588" lon="-2.91024">
        <time>2014-03-15T08:51:28Z</time>
      </trkpt>
      <trkpt lat="47.56593" lon="-2.91025">
        <time>2014-03-15T08:51:34Z</time>
      </trkpt>
      <trkpt lat="47.56598" lon="-2.91023">
        <time>2014-03-15T08:51:38Z</time>
      </trkpt>
      <trkpt lat="47.56602" lon="-2.91019">
        <time>2014-03-15T08:51:42Z</time>
      </trkpt>
      <trkpt lat="47.56607" lon="-2.91015">
        <time>2014-03-15T08:51:46Z</time>
      </trkpt>
      <trkpt lat="47.56611" lon="-2.91012">
        <time>2014-03-15T08:51:49Z</time>
      </trkpt>
      <trkpt lat="47.56616" lon="-2.91009">
        <time>2014-03-15T08:51:52Z</time>
      </trkpt>
      <trkpt lat="47.56621" lon="-2.91006">
        <time>2014-03-15T08:51:56Z</time>
      </trkpt>
      <trkpt lat="47.56626" lon="-2.91003">
        <time>2014-03-15T08:51:59Z</time>
      </trkpt>
      <trkpt lat="47.5663" lon="-2.91">
        <time>2014-03-15T08:52:02Z</time>
      </trkpt>
      <trkpt lat="47.56635" lon="-2.90996">
        <time>2014-03-15T08:52:05Z</time>
      </trkpt>
      <trkpt lat="47.56639" lon="-2.90992">
        <time>2014-03-15T08:52:08Z</time>
      </trkpt>
      <trkpt lat="47.56644" lon="-2.90988">
        <time>2014-03-15T08:52:10Z</time>
      </trkpt>
      <trkpt lat="47.56648" lon="-2.90983">
        <time>2014-03-15T08:52:13Z</time>
      </trkpt>
      <trkpt lat="47.56652" lon="-2.90978">
        <time>2014-03-15T08:52:16Z</time>
      </trkpt>
      <trkpt lat="47.56655" lon="-2.90972">
        <time>2014-03-15T08:52:20Z</time>
      </trkpt>
      <trkpt lat="47.56659" lon="-2.90966">
        <time>2014-03-15T08:52:23Z</time>
      </trkpt>
      <trkpt lat="47.56662" lon="-2.90959">
        <time>2014-03-15T08:52:26Z</time>
      </trkpt>
      <trkpt lat="47.56666" lon="-2.90953">
        <time>2014-03-15T08:52:29Z</time>
      </trkpt>
      <trkpt lat="47.5667" lon="-2.90947">
        <ele>8</ele>
        <time>2014-03-15T08:52:32Z</time>
      </trkpt>
      <trkpt lat="47.56673" lon="-2.9094">
        <ele>8</ele>
        <time>2014-03-15T08:52:36Z</time>
      </trkpt>
      <trkpt lat="47.56676" lon="-2.90934">
        <ele>8</ele>
        <time>2014-03-15T08:52:40Z</time>
      </trkpt>
      <trkpt lat="47.56678" lon="-2.90928">
        <ele>8</ele>
        <time>2014-03-15T08:52:45Z</time>
      </trkpt>
      <trkpt lat="47.56679" lon="-2.90921">
        <ele>8</ele>
        <time>2014-03-15T08:53:45Z</time>
      </trkpt>
      <trkpt lat="47.5668" lon="-2.90914">
        <ele>10</ele>
        <time>2014-03-15T08:54:07Z</time>
      </trkpt>
      <trkpt lat="47.56679" lon="-2.90907">
        <ele>10</ele>
        <time>2014-03-15T08:54:14Z</time>
      </trkpt>
      <trkpt lat="47.56677" lon="-2.909">
        <ele>10</ele>
        <time>2014-03-15T08:54:17Z</time>
      </trkpt>
      <trkpt lat="47.56675" lon="-2.90891">
        <ele>10</ele>
        <time>2014-03-15T08:54:19Z</time>
      </trkpt>
      <trkpt lat="47.56675" lon="-2.90881">
        <ele>10</ele>
        <time>2014-03-15T08:54:22Z</time>
      </trkpt>
      <trkpt lat="47.56674" lon="-2.90872">
        <ele>10</ele>
        <time>2014-03-15T08:54:26Z</time>
      </trkpt>
      <trkpt lat="47.56673" lon="-2.90863">
        <ele>10</ele>
        <time>2014-03-15T08:54:29Z</time>
      </trkpt>
      <trkpt lat="47.56673" lon="-2.90854">
        <ele>10</ele>
        <time>2014-03-15T08:54:31Z</time>
      </trkpt>
      <trkpt lat="47.56673" lon="-2.90844">
        <ele>10</ele>
        <time>2014-03-15T08:54:35Z</time>
      </trkpt>
      <trkpt lat="47.56672" lon="-2.90832">
        <ele>11</ele>
        <time>2014-03-15T08:54:39Z</time>
      </trkpt>
      <trkpt lat="47.56672" lon="-2.90823">
        <ele>11</ele>
        <time>2014-03-15T08:54:41Z</time>
      </trkpt>
      <trkpt lat="47.56673" lon="-2.90814">
        <ele>11</ele>
        <time>2014-03-15T08:54:45Z</time>
      </trkpt>
      <trkpt lat="47.56673" lon="-2.90805">
        <ele>11</ele>
        <time>2014-03-15T08:54:48Z</time>
      </trkpt>
      <trkpt lat="47.56675" lon="-2.90797">
        <ele>11</ele>
        <time>2014-03-15T08:54:50Z</time>
      </trkpt>
      <trkpt lat="47.56678" lon="-2.90788">
        <ele>11</ele>
        <time>2014-03-15T08:54:53Z</time>
      </trkpt>
      <trkpt lat="47.56681" lon="-2.90779">
        <ele>11</ele>
        <time>2014-03-15T08:54:56Z</time>
      </trkpt>
      <trkpt lat="47.56683" lon="-2.90772">
        <ele>11</ele>
        <time>2014-03-15T08:54:59Z</time>
      </trkpt>
      <trkpt lat="47.56685" lon="-2.90765">
        <ele>11</ele>
        <time>2014-03-15T08:55:02Z</time>
      </trkpt>
      <trkpt lat="47.56688" lon="-2.90759">
        <ele>11</ele>
        <time>2014-03-15T08:55:05Z</time>
      </trkpt>
      <trkpt lat="47.56691" lon="-2.90753">
        <ele>11</ele>
        <time>2014-03-15T08:55:09Z</time>
      </trkpt>
      <trkpt lat="47.56694" lon="-2.90747">
        <ele>7</ele>
        <time>2014-03-15T08:55:12Z</time>
      </trkpt>
      <trkpt lat="47.56697" lon="-2.9074">
        <ele>7</ele>
        <time>2014-03-15T08:55:14Z</time>
      </trkpt>
      <trkpt lat="47.56699" lon="-2.90735">
        <ele>7</ele>
        <time>2014-03-15T08:55:18Z</time>
      </trkpt>
      <trkpt lat="47.56703" lon="-2.90727">
        <ele>7</ele>
        <time>2014-03-15T08:55:21Z</time>
      </trkpt>
      <trkpt lat="47.56705" lon="-2.90721">
        <ele>7</ele>
        <time>2014-03-15T08:55:24Z</time>
      </trkpt>
      <trkpt lat="47.56706" lon="-2.90713">
        <ele>7</ele>
        <time>2014-03-15T08:55:28Z</time>
      </trkpt>
      <trkpt lat="47.56706" lon="-2.90704">
        <ele>6</ele>
        <time>2014-03-15T08:55:32Z</time>
      </trkpt>
      <trkpt lat="47.56703" lon="-2.90696">
        <ele>6</ele>
        <time>2014-03-15T08:55:36Z</time>
      </trkpt>
      <trkpt lat="47.56699" lon="-2.90693">
        <ele>6</ele>
        <time>2014-03-15T08:55:40Z</time>
      </trkpt>
      <trkpt lat="47.56694" lon="-2.90691">
        <ele>6</ele>
        <time>2014-03-15T08:55:43Z</time>
      </trkpt>
      <trkpt lat="47.56688" lon="-2.90691">
        <ele>6</ele>
        <time>2014-03-15T08:55:46Z</time>
      </trkpt>
      <trkpt lat="47.56683" lon="-2.90691">
        <ele>6</ele>
        <time>2014-03-15T08:55:48Z</time>
      </trkpt>
      <trkpt lat="47.56678" lon="-2.90692">
        <ele>6</ele>
        <time>2014-03-15T08:55:50Z</time>
      </trkpt>
      <trkpt lat="47.56672" lon="-2.90693">
        <ele>6</ele>
        <time>2014-03-15T08:55:52Z</time>
      </trkpt>
      <trkpt lat="47.56666" lon="-2.90694">
        <time>2014-03-15T08:55:53Z</time>
      </trkpt>
      <trkpt lat="47.56658" lon="-2.90695">
        <time>2014-03-15T08:55:55Z</time>
      </trkpt>
      <trkpt lat="47.56652" lon="-2.90696">
        <time>2014-03-15T08:55:57Z</time>
      </trkpt>
      <trkpt lat="47.56646" lon="-2.90697">
        <time>2014-03-15T08:55:59Z</time>
      </trkpt>
      <trkpt lat="47.5664" lon="-2.90698">
        <time>2014-03-15T08:56:01Z</time>
      </trkpt>
      <trkpt lat="47.56633" lon="-2.907">
        <time>2014-03-15T08:56:03Z</time>
      </trkpt>
      <trkpt lat="47.56625" lon="-2.90703">
        <time>2014-03-15T08:56:05Z</time>
      </trkpt>
      <trkpt lat="47.56618" lon="-2.90705">
        <time>2014-03-15T08:56:07Z</time>
      </trkpt>
      <trkpt lat="47.56611" lon="-2.90708">
        <time>2014-03-15T08:56:09Z</time>
      </trkpt>
      <trkpt lat="47.56604" lon="-2.90711">
        <time>2014-03-15T08:56:12Z</time>
      </trkpt>
      <trkpt lat="47.56597" lon="-2.90714">
        <time>2014-03-15T08:56:14Z</time>
      </trkpt>
      <trkpt lat="47.5659" lon="-2.90719">
        <time>2014-03-15T08:56:16Z</time>
      </trkpt>
      <trkpt lat="47.56583" lon="-2.90725">
        <time>2014-03-15T08:56:17Z</time>
      </trkpt>
      <trkpt lat="47.56576" lon="-2.90731">
        <time>2014-03-15T08:56:19Z</time>
      </trkpt>
      <trkpt lat="47.56569" lon="-2.90739">
        <time>2014-03-15T08:56:22Z</time>
      </trkpt>
      <trkpt lat="47.56563" lon="-2.90745">
        <time>2014-03-15T08:56:24Z</time>
      </trkpt>
      <trkpt lat="47.56557" lon="-2.9075">
        <time>2014-03-15T08:56:25Z</time>
      </trkpt>
      <trkpt lat="47.56552" lon="-2.90753">
        <time>2014-03-15T08:56:27Z</time>
      </trkpt>
      <trkpt lat="47.56547" lon="-2.90755">
        <time>2014-03-15T08:56:29Z</time>
      </trkpt>
      <trkpt lat="47.56541" lon="-2.90757">
        <time>2014-03-15T08:56:32Z</time>
      </trkpt>
      <trkpt lat="47.56536" lon="-2.90759">
        <time>2014-03-15T08:56:35Z</time>
      </trkpt>
      <trkpt lat="47.5653" lon="-2.90761">
        <time>2014-03-15T08:56:38Z</time>
      </trkpt>
      <trkpt lat="47.56526" lon="-2.90764">
        <time>2014-03-15T08:56:41Z</time>
      </trkpt>
      <trkpt lat="47.56521" lon="-2.90767">
        <time>2014-03-15T08:56:43Z</time>
      </trkpt>
      <trkpt lat="47.56517" lon="-2.9077">
        <time>2014-03-15T08:56:44Z</time>
      </trkpt>
      <trkpt lat="47.56512" lon="-2.90772">
        <time>2014-03-15T08:56:46Z</time>
      </trkpt>
      <trkpt lat="47.56506" lon="-2.90774">
        <time>2014-03-15T08:56:48Z</time>
      </trkpt>
      <trkpt lat="47.565" lon="-2.90777">
        <time>2014-03-15T08:56:50Z</time>
      </trkpt>
      <trkpt lat="47.56494" lon="-2.9078">
        <time>2014-03-15T08:56:53Z</time>
      </trkpt>
      <trkpt lat="47.56487" lon="-2.90783">
        <time>2014-03-15T08:56:55Z</time>
      </trkpt>
      <trkpt lat="47.56481" lon="-2.90785">
        <time>2014-03-15T08:56:57Z</time>
      </trkpt>
      <trkpt lat="47.56475" lon="-2.90787">
        <time>2014-03-15T08:56:59Z</time>
      </trkpt>
      <trkpt lat="47.5647" lon="-2.90788">
        <time>2014-03-15T08:57:01Z</time>
      </trkpt>
      <trkpt lat="47.56463" lon="-2.90788">
        <time>2014-03-15T08:57:04Z</time>
      </trkpt>
      <trkpt lat="47.56457" lon="-2.90788">
        <time>2014-03-15T08:57:07Z</time>
      </trkpt>
      <trkpt lat="47.56452" lon="-2.90787">
        <time>2014-03-15T08:57:10Z</time>
      </trkpt>
      <trkpt lat="47.56447" lon="-2.90787">
        <time>2014-03-15T08:57:12Z</time>
      </trkpt>
      <trkpt lat="47.56441" lon="-2.90788">
        <time>2014-03-15T08:57:17Z</time>
      </trkpt>
      <trkpt lat="47.56437" lon="-2.90789">
        <time>2014-03-15T08:57:24Z</time>
      </trkpt>
      <trkpt lat="47.56432" lon="-2.90792">
        <time>2014-03-15T08:57:31Z</time>
      </trkpt>
      <trkpt lat="47.56427" lon="-2.90794">
        <time>2014-03-15T08:57:35Z</time>
      </trkpt>
      <trkpt lat="47.56421" lon="-2.90796">
        <time>2014-03-15T08:57:38Z</time>
      </trkpt>
      <trkpt lat="47.56417" lon="-2.90798">
        <time>2014-03-15T08:57:43Z</time>
      </trkpt>
      <trkpt lat="47.56412" lon="-2.90799">
        <time>2014-03-15T08:57:47Z</time>
      </trkpt>
      <trkpt lat="47.56407" lon="-2.90801">
        <time>2014-03-15T08:57:54Z</time>
      </trkpt>
      <trkpt lat="47.56403" lon="-2.90804">
        <time>2014-03-15T08:58:00Z</time>
      </trkpt>
      <trkpt lat="47.56398" lon="-2.90806">
        <time>2014-03-15T08:58:05Z</time>
      </trkpt>
      <trkpt lat="47.56394" lon="-2.9081">
        <time>2014-03-15T08:58:12Z</time>
      </trkpt>
      <trkpt lat="47.56393" lon="-2.90817">
        <time>2014-03-15T08:58:18Z</time>
      </trkpt>
      <trkpt lat="47.5639" lon="-2.90822">
        <time>2014-03-15T08:58:23Z</time>
      </trkpt>
      <trkpt lat="47.56386" lon="-2.90826">
        <time>2014-03-15T08:58:28Z</time>
      </trkpt>
      <trkpt lat="47.56383" lon="-2.90831">
        <time>2014-03-15T08:58:33Z</time>
      </trkpt>
      <trkpt lat="47.56379" lon="-2.90836">
        <time>2014-03-15T08:58:39Z</time>
      </trkpt>
      <trkpt lat="47.56375" lon="-2.90841">
        <time>2014-03-15T08:58:44Z</time>
      </trkpt>
      <trkpt lat="47.56371" lon="-2.90845">
        <time>2014-03-15T08:58:49Z</time>
      </trkpt>
      <trkpt lat="47.56366" lon="-2.90845">
        <time>2014-03-15T08:58:54Z</time>
      </trkpt>
      <trkpt lat="47.56362" lon="-2.90842">
        <time>2014-03-15T08:58:58Z</time>
      </trkpt>
      <trkpt lat="47.56358" lon="-2.90838">
        <time>2014-03-15T08:59:03Z</time>
      </trkpt>
      <trkpt lat="47.56354" lon="-2.90833">
        <time>2014-03-15T08:59:07Z</time>
      </trkpt>
      <trkpt lat="47.56349" lon="-2.90827">
        <time>2014-03-15T08:59:10Z</time>
      </trkpt>
      <trkpt lat="47.56345" lon="-2.90824">
        <time>2014-03-15T08:59:13Z</time>
      </trkpt>
      <trkpt lat="47.56341" lon="-2.90821">
        <time>2014-03-15T08:59:19Z</time>
      </trkpt>
      <trkpt lat="47.56336" lon="-2.90819">
        <time>2014-03-15T08:59:28Z</time>
      </trkpt>
      <trkpt lat="47.56332" lon="-2.90819">
        <ele>5</ele>
        <time>2014-03-15T09:00:03Z</time>
      </trkpt>
      <trkpt lat="47.56327" lon="-2.9082">
        <ele>5</ele>
        <time>2014-03-15T09:00:42Z</time>
      </trkpt>
      <trkpt lat="47.56322" lon="-2.90822">
        <ele>5</ele>
        <time>2014-03-15T09:00:49Z</time>
      </trkpt>
      <trkpt lat="47.56318" lon="-2.90824">
        <ele>5</ele>
        <time>2014-03-15T09:00:54Z</time>
      </trkpt>
      <trkpt lat="47.56314" lon="-2.90827">
        <ele>5</ele>
        <time>2014-03-15T09:01:00Z</time>
      </trkpt>
      <trkpt lat="47.5631" lon="-2.90831">
        <ele>5</ele>
        <time>2014-03-15T09:01:40Z</time>
      </trkpt>
      <trkpt lat="47.56306" lon="-2.90834">
        <time>2014-03-15T09:02:00Z</time>
      </trkpt>
      <trkpt lat="47.56304" lon="-2.90841">
        <time>2014-03-15T09:02:10Z</time>
      </trkpt>
      <trkpt lat="47.56308" lon="-2.90847">
        <time>2014-03-15T09:02:16Z</time>
      </trkpt>
      <trkpt lat="47.56312" lon="-2.9085">
        <time>2014-03-15T09:02:19Z</time>
      </trkpt>
      <trkpt lat="47.56318" lon="-2.90852">
        <time>2014-03-15T09:02:23Z</time>
      </trkpt>
      <trkpt lat="47.56323" lon="-2.90851">
        <time>2014-03-15T09:02:27Z</time>
      </trkpt>
      <trkpt lat="47.56327" lon="-2.90846">
        <time>2014-03-15T09:02:31Z</time>
      </trkpt>
      <trkpt lat="47.5633" lon="-2.90838">
        <time>2014-03-15T09:02:36Z</time>
      </trkpt>
      <trkpt lat="47.56332" lon="-2.90832">
        <ele>5</ele>
        <time>2014-03-15T09:02:39Z</time>
      </trkpt>
      <trkpt lat="47.56333" lon="-2.90826">
        <ele>5</ele>
        <time>2014-03-15T09:02:41Z</time>
      </trkpt>
      <trkpt lat="47.56336" lon="-2.90819">
        <time>2014-03-15T09:02:46Z</time>
      </trkpt>
      <trkpt lat="47.56339" lon="-2.90813">
        <time>2014-03-15T09:02:50Z</time>
      </trkpt>
      <trkpt lat="47.56342" lon="-2.90808">
        <time>2014-03-15T09:02:58Z</time>
      </trkpt>
      <trkpt lat="47.56344" lon="-2.90801">
        <time>2014-03-15T09:03:11Z</time>
      </trkpt>
      <trkpt lat="47.56348" lon="-2.90796">
        <time>2014-03-15T09:03:16Z</time>
      </trkpt>
      <trkpt lat="47.56351" lon="-2.9079">
        <time>2014-03-15T09:03:20Z</time>
      </trkpt>
      <trkpt lat="47.56353" lon="-2.90782">
        <time>2014-03-15T09:03:24Z</time>
      </trkpt>
      <trkpt lat="47.56353" lon="-2.90775">
        <time>2014-03-15T09:03:27Z</time>
      </trkpt>
      <trkpt lat="47.56354" lon="-2.90767">
        <time>2014-03-15T09:03:30Z</time>
      </trkpt>
      <trkpt lat="47.56354" lon="-2.9076">
        <time>2014-03-15T09:03:39Z</time>
      </trkpt>
      <trkpt lat="47.56352" lon="-2.90753">
        <time>2014-03-15T09:03:46Z</time>
      </trkpt>
      <trkpt lat="47.56351" lon="-2.90746">
        <time>2014-03-15T09:03:52Z</time>
      </trkpt>
      <trkpt lat="47.5635" lon="-2.90739">
        <time>2014-03-15T09:03:59Z</time>
      </trkpt>
      <trkpt lat="47.56355" lon="-2.90741">
        <time>2014-03-15T09:04:23Z</time>
      </trkpt>
      <trkpt lat="47.56358" lon="-2.90745">
        <time>2014-03-15T09:04:28Z</time>
      </trkpt>
      <trkpt lat="47.56363" lon="-2.90749">
        <time>2014-03-15T09:04:34Z</time>
      </trkpt>
      <trkpt lat="47.56367" lon="-2.90752">
        <time>2014-03-15T09:04:41Z</time>
      </trkpt>
      <trkpt lat="47.56371" lon="-2.90756">
        <time>2014-03-15T09:04:46Z</time>
      </trkpt>
      <trkpt lat="47.56374" lon="-2.90762">
        <time>2014-03-15T09:04:51Z</time>
      </trkpt>
      <trkpt lat="47.56377" lon="-2.90767">
        <time>2014-03-15T09:04:55Z</time>
      </trkpt>
      <trkpt lat="47.56381" lon="-2.90773">
        <time>2014-03-15T09:04:59Z</time>
      </trkpt>
      <trkpt lat="47.56384" lon="-2.90778">
        <time>2014-03-15T09:05:02Z</time>
      </trkpt>
      <trkpt lat="47.56388" lon="-2.90783">
        <time>2014-03-15T09:05:05Z</time>
      </trkpt>
      <trkpt lat="47.56391" lon="-2.90789">
        <time>2014-03-15T09:05:08Z</time>
      </trkpt>
      <trkpt lat="47.56395" lon="-2.90794">
        <time>2014-03-15T09:05:11Z</time>
      </trkpt>
      <trkpt lat="47.56399" lon="-2.90799">
        <time>2014-03-15T09:05:14Z</time>
      </trkpt>
      <trkpt lat="47.56403" lon="-2.90803">
        <time>2014-03-15T09:05:17Z</time>
      </trkpt>
      <trkpt lat="47.56407" lon="-2.90808">
        <time>2014-03-15T09:05:20Z</time>
      </trkpt>
      <trkpt lat="47.56411" lon="-2.90813">
        <time>2014-03-15T09:05:23Z</time>
      </trkpt>
      <trkpt lat="47.56414" lon="-2.90819">
        <time>2014-03-15T09:05:26Z</time>
      </trkpt>
      <trkpt lat="47.56418" lon="-2.90824">
        <time>2014-03-15T09:05:29Z</time>
      </trkpt>
      <trkpt lat="47.56421" lon="-2.90829">
        <time>2014-03-15T09:05:32Z</time>
      </trkpt>
      <trkpt lat="47.56424" lon="-2.90834">
        <time>2014-03-15T09:05:34Z</time>
      </trkpt>
      <trkpt lat="47.56428" lon="-2.90842">
        <time>2014-03-15T09:05:38Z</time>
      </trkpt>
      <trkpt lat="47.56431" lon="-2.90849">
        <time>2014-03-15T09:05:43Z</time>
      </trkpt>
      <trkpt lat="47.56433" lon="-2.90855">
        <time>2014-03-15T09:05:45Z</time>
      </trkpt>
      <trkpt lat="47.56434" lon="-2.90862">
        <time>2014-03-15T09:05:49Z</time>
      </trkpt>
      <trkpt lat="47.56436" lon="-2.90868">
        <time>2014-03-15T09:05:52Z</time>
      </trkpt>
      <trkpt lat="47.56438" lon="-2.90874">
        <time>2014-03-15T09:05:55Z</time>
      </trkpt>
      <trkpt lat="47.56439" lon="-2.90882">
        <time>2014-03-15T09:05:59Z</time>
      </trkpt>
      <trkpt lat="47.56441" lon="-2.9089">
        <time>2014-03-15T09:06:02Z</time>
      </trkpt>
      <trkpt lat="47.56442" lon="-2.90896">
        <time>2014-03-15T09:06:07Z</time>
      </trkpt>
      <trkpt lat="47.56443" lon="-2.90904">
        <time>2014-03-15T09:06:13Z</time>
      </trkpt>
      <trkpt lat="47.56444" lon="-2.90911">
        <time>2014-03-15T09:06:18Z</time>
      </trkpt>
      <trkpt lat="47.56445" lon="-2.90918">
        <time>2014-03-15T09:06:23Z</time>
      </trkpt>
      <trkpt lat="47.56447" lon="-2.90924">
        <time>2014-03-15T09:06:26Z</time>
      </trkpt>
      <trkpt lat="47.56449" lon="-2.90932">
        <time>2014-03-15T09:06:29Z</time>
      </trkpt>
      <trkpt lat="47.56452" lon="-2.90939">
        <time>2014-03-15T09:06:31Z</time>
      </trkpt>
      <trkpt lat="47.56455" lon="-2.90948">
        <time>2014-03-15T09:06:35Z</time>
      </trkpt>
      <trkpt lat="47.56456" lon="-2.90954">
        <time>2014-03-15T09:06:36Z</time>
      </trkpt>
      <trkpt lat="47.56458" lon="-2.90961">
        <time>2014-03-15T09:06:38Z</time>
      </trkpt>
      <trkpt lat="47.56459" lon="-2.90968">
        <time>2014-03-15T09:06:40Z</time>
      </trkpt>
      <trkpt lat="47.5646" lon="-2.90975">
        <time>2014-03-15T09:06:42Z</time>
      </trkpt>
      <trkpt lat="47.56461" lon="-2.90984">
        <time>2014-03-15T09:06:45Z</time>
      </trkpt>
      <trkpt lat="47.56463" lon="-2.90992">
        <time>2014-03-15T09:06:48Z</time>
      </trkpt>
      <trkpt lat="47.56464" lon="-2.91">
        <time>2014-03-15T09:06:51Z</time>
      </trkpt>
      <trkpt lat="47.56465" lon="-2.91008">
        <time>2014-03-15T09:06:55Z</time>
      </trkpt>
      <trkpt lat="47.56466" lon="-2.91016">
        <time>2014-03-15T09:06:58Z</time>
      </trkpt>
      <trkpt lat="47.56468" lon="-2.91025">
        <time>2014-03-15T09:07:01Z</time>
      </trkpt>
      <trkpt lat="47.56469" lon="-2.91032">
        <time>2014-03-15T09:07:04Z</time>
      </trkpt>
      <trkpt lat="47.56471" lon="-2.91039">
        <time>2014-03-15T09:07:07Z</time>
      </trkpt>
      <trkpt lat="47.56472" lon="-2.91048">
        <time>2014-03-15T09:07:11Z</time>
      </trkpt>
      <trkpt lat="47.56474" lon="-2.91056">
        <time>2014-03-15T09:07:16Z</time>
      </trkpt>
      <trkpt lat="47.56477" lon="-2.91063">
        <time>2014-03-15T09:07:20Z</time>
      </trkpt>
      <trkpt lat="47.5648" lon="-2.9107">
        <time>2014-03-15T09:07:23Z</time>
      </trkpt>
      <trkpt lat="47.56483" lon="-2.91077">
        <time>2014-03-15T09:07:29Z</time>
      </trkpt>
      <trkpt lat="47.56485" lon="-2.91083">
        <time>2014-03-15T09:07:34Z</time>
      </trkpt>
      <trkpt lat="47.56488" lon="-2.91089">
        <time>2014-03-15T09:07:38Z</time>
      </trkpt>
      <trkpt lat="47.56492" lon="-2.91094">
        <time>2014-03-15T09:07:44Z</time>
      </trkpt>
      <trkpt lat="47.56494" lon="-2.911">
        <time>2014-03-15T09:07:48Z</time>
      </trkpt>
      <trkpt lat="47.56497" lon="-2.91107">
        <time>2014-03-15T09:07:51Z</time>
      </trkpt>
      <trkpt lat="47.565" lon="-2.91112">
        <time>2014-03-15T09:07:55Z</time>
      </trkpt>
      <trkpt lat="47.56505" lon="-2.91115">
        <time>2014-03-15T09:08:05Z</time>
      </trkpt>
      <trkpt lat="47.56509" lon="-2.91117">
        <time>2014-03-15T09:08:13Z</time>
      </trkpt>
      <trkpt lat="47.56513" lon="-2.91122">
        <time>2014-03-15T09:08:32Z</time>
      </trkpt>
      <trkpt lat="47.56517" lon="-2.91126">
        <time>2014-03-15T09:08:37Z</time>
      </trkpt>
      <trkpt lat="47.56522" lon="-2.91127">
        <time>2014-03-15T09:08:48Z</time>
      </trkpt>
      <trkpt lat="47.56526" lon="-2.91124">
        <time>2014-03-15T09:08:55Z</time>
      </trkpt>
      <trkpt lat="47.56532" lon="-2.91123">
        <time>2014-03-15T09:09:01Z</time>
      </trkpt>
      <trkpt lat="47.56537" lon="-2.91121">
        <time>2014-03-15T09:09:07Z</time>
      </trkpt>
      <trkpt lat="47.56542" lon="-2.91119">
        <time>2014-03-15T09:09:11Z</time>
      </trkpt>
      <trkpt lat="47.56547" lon="-2.91117">
        <time>2014-03-15T09:09:16Z</time>
      </trkpt>
      <trkpt lat="47.56552" lon="-2.91116">
        <time>2014-03-15T09:09:22Z</time>
      </trkpt>
      <trkpt lat="47.56557" lon="-2.91115">
        <time>2014-03-15T09:09:26Z</time>
      </trkpt>
      <trkpt lat="47.56562" lon="-2.91115">
        <time>2014-03-15T09:09:30Z</time>
      </trkpt>
      <trkpt lat="47.56567" lon="-2.91114">
        <time>2014-03-15T09:09:34Z</time>
      </trkpt>
      <trkpt lat="47.56571" lon="-2.91109">
        <time>2014-03-15T09:09:38Z</time>
      </trkpt>
      <trkpt lat="47.56575" lon="-2.91105">
        <time>2014-03-15T09:09:41Z</time>
      </trkpt>
      <trkpt lat="47.56579" lon="-2.91101">
        <time>2014-03-15T09:09:44Z</time>
      </trkpt>
      <trkpt lat="47.56582" lon="-2.91097">
        <time>2014-03-15T09:09:46Z</time>
      </trkpt>
      <trkpt lat="47.56587" lon="-2.91093">
        <time>2014-03-15T09:09:51Z</time>
      </trkpt>
      <trkpt lat="47.56592" lon="-2.91094">
        <time>2014-03-15T09:09:54Z</time>
      </trkpt>
      <trkpt lat="47.56597" lon="-2.91093">
        <time>2014-03-15T09:09:57Z</time>
      </trkpt>
      <trkpt lat="47.56601" lon="-2.91089">
        <time>2014-03-15T09:10:00Z</time>
      </trkpt>
      <trkpt lat="47.56605" lon="-2.91084">
        <time>2014-03-15T09:10:03Z</time>
      </trkpt>
      <trkpt lat="47.56608" lon="-2.91078">
        <time>2014-03-15T09:10:06Z</time>
      </trkpt>
      <trkpt lat="47.5661" lon="-2.91072">
        <time>2014-03-15T09:10:09Z</time>
      </trkpt>
      <trkpt lat="47.56612" lon="-2.91066">
        <time>2014-03-15T09:10:12Z</time>
      </trkpt>
      <trkpt lat="47.56615" lon="-2.91059">
        <time>2014-03-15T09:10:14Z</time>
      </trkpt>
      <trkpt lat="47.56617" lon="-2.91053">
        <time>2014-03-15T09:10:17Z</time>
      </trkpt>
      <trkpt lat="47.5662" lon="-2.91047">
        <time>2014-03-15T09:10:20Z</time>
      </trkpt>
      <trkpt lat="47.56623" lon="-2.91041">
        <time>2014-03-15T09:10:24Z</time>
      </trkpt>
      <trkpt lat="47.56626" lon="-2.91034">
        <time>2014-03-15T09:10:27Z</time>
      </trkpt>
      <trkpt lat="47.56628" lon="-2.91028">
        <time>2014-03-15T09:10:30Z</time>
      </trkpt>
      <trkpt lat="47.56632" lon="-2.91022">
        <time>2014-03-15T09:10:33Z</time>
      </trkpt>
      <trkpt lat="47.56635" lon="-2.91017">
        <time>2014-03-15T09:10:36Z</time>
      </trkpt>
      <trkpt lat="47.56638" lon="-2.91011">
        <time>2014-03-15T09:10:39Z</time>
      </trkpt>
      <trkpt lat="47.56641" lon="-2.91005">
        <time>2014-03-15T09:10:41Z</time>
      </trkpt>
      <trkpt lat="47.56643" lon="-2.90998">
        <time>2014-03-15T09:10:45Z</time>
      </trkpt>
      <trkpt lat="47.56645" lon="-2.9099">
        <time>2014-03-15T09:10:48Z</time>
      </trkpt>
      <trkpt lat="47.56647" lon="-2.90981">
        <time>2014-03-15T09:10:51Z</time>
      </trkpt>
      <trkpt lat="47.56649" lon="-2.90973">
        <time>2014-03-15T09:10:54Z</time>
      </trkpt>
      <trkpt lat="47.56652" lon="-2.90964">
        <time>2014-03-15T09:10:57Z</time>
      </trkpt>
      <trkpt lat="47.56654" lon="-2.90956">
        <time>2014-03-15T09:11:00Z</time>
      </trkpt>
      <trkpt lat="47.56656" lon="-2.90947">
        <time>2014-03-15T09:11:03Z</time>
      </trkpt>
      <trkpt lat="47.56658" lon="-2.90938">
        <time>2014-03-15T09:11:06Z</time>
      </trkpt>
      <trkpt lat="47.5666" lon="-2.90931">
        <time>2014-03-15T09:11:08Z</time>
      </trkpt>
      <trkpt lat="47.56663" lon="-2.90923">
        <time>2014-03-15T09:11:11Z</time>
      </trkpt>
      <trkpt lat="47.56666" lon="-2.90915">
        <time>2014-03-15T09:11:14Z</time>
      </trkpt>
      <trkpt lat="47.56669" lon="-2.90909">
        <ele>10</ele>
        <time>2014-03-15T09:11:17Z</time>
      </trkpt>
      <trkpt lat="47.56672" lon="-2.90902">
        <ele>10</ele>
        <time>2014-03-15T09:11:21Z</time>
      </trkpt>
      <trkpt lat="47.56676" lon="-2.90897">
        <ele>10</ele>
        <time>2014-03-15T09:11:27Z</time>
      </trkpt>
      <trkpt lat="47.56678" lon="-2.9089">
        <ele>10</ele>
        <time>2014-03-15T09:11:34Z</time>
      </trkpt>
      <trkpt lat="47.5668" lon="-2.90884">
        <ele>10</ele>
        <time>2014-03-15T09:11:43Z</time>
      </trkpt>
      <trkpt lat="47.56679" lon="-2.90877">
        <ele>10</ele>
        <time>2014-03-15T09:11:52Z</time>
      </trkpt>
      <trkpt lat="47.56679" lon="-2.9087">
        <ele>10</ele>
        <time>2014-03-15T09:12:02Z</time>
      </trkpt>
      <trkpt lat="47.56679" lon="-2.90863">
        <ele>10</ele>
        <time>2014-03-15T09:12:07Z</time>
      </trkpt>
      <trkpt lat="47.5668" lon="-2.90855">
        <ele>10</ele>
        <time>2014-03-15T09:12:12Z</time>
      </trkpt>
      <trkpt lat="47.5668" lon="-2.90847">
        <ele>10</ele>
        <time>2014-03-15T09:12:16Z</time>
      </trkpt>
      <trkpt lat="47.5668" lon="-2.9084">
        <ele>10</ele>
        <time>2014-03-15T09:12:20Z</time>
      </trkpt>
      <trkpt lat="47.56679" lon="-2.90832">
        <ele>11</ele>
        <time>2014-03-15T09:12:25Z</time>
      </trkpt>
      <trkpt lat="47.56679" lon="-2.90824">
        <ele>11</ele>
        <time>2014-03-15T09:12:30Z</time>
      </trkpt>
      <trkpt lat="47.56678" lon="-2.90817">
        <ele>11</ele>
        <time>2014-03-15T09:12:34Z</time>
      </trkpt>
      <trkpt lat="47.56678" lon="-2.90809">
        <ele>11</ele>
        <time>2014-03-15T09:12:38Z</time>
      </trkpt>
      <trkpt lat="47.56679" lon="-2.90801">
        <ele>11</ele>
        <time>2014-03-15T09:12:42Z</time>
      </trkpt>
      <trkpt lat="47.56681" lon="-2.90793">
        <ele>11</ele>
        <time>2014-03-15T09:12:46Z</time>
      </trkpt>
      <trkpt lat="47.56683" lon="-2.90785">
        <ele>11</ele>
        <time>2014-03-15T09:12:50Z</time>
      </trkpt>
      <trkpt lat="47.56686" lon="-2.90778">
        <ele>11</ele>
        <time>2014-03-15T09:12:54Z</time>
      </trkpt>
      <trkpt lat="47.56689" lon="-2.90772">
        <ele>11</ele>
        <time>2014-03-15T09:12:57Z</time>
      </trkpt>
      <trkpt lat="47.56693" lon="-2.90766">
        <ele>11</ele>
        <time>2014-03-15T09:13:03Z</time>
      </trkpt>
      <trkpt lat="47.56696" lon="-2.9076">
        <ele>11</ele>
        <time>2014-03-15T09:13:08Z</time>
      </trkpt>
      <trkpt lat="47.56698" lon="-2.90753">
        <ele>11</ele>
        <time>2014-03-15T09:13:12Z</time>
      </trkpt>
      <trkpt lat="47.567" lon="-2.90746">
        <ele>8</ele>
        <time>2014-03-15T09:13:15Z</time>
      </trkpt>
      <trkpt lat="47.56702" lon="-2.9074">
        <ele>7</ele>
        <time>2014-03-15T09:13:18Z</time>
      </trkpt>
      <trkpt lat="47.56703" lon="-2.90732">
        <ele>7</ele>
        <time>2014-03-15T09:13:22Z</time>
      </trkpt>
      <trkpt lat="47.56704" lon="-2.90725">
        <ele>7</ele>
        <time>2014-03-15T09:13:27Z</time>
      </trkpt>
      <trkpt lat="47.56707" lon="-2.90719">
        <ele>7</ele>
        <time>2014-03-15T09:13:31Z</time>
      </trkpt>
      <trkpt lat="47.5671" lon="-2.90713">
        <ele>7</ele>
        <time>2014-03-15T09:13:37Z</time>
      </trkpt>
      <trkpt lat="47.56714" lon="-2.90708">
        <ele>6</ele>
        <time>2014-03-15T09:13:50Z</time>
      </trkpt>
      <trkpt lat="47.56717" lon="-2.90703">
        <ele>6</ele>
        <time>2014-03-15T09:13:58Z</time>
      </trkpt>
      <trkpt lat="47.56721" lon="-2.90698">
        <ele>6</ele>
        <time>2014-03-15T09:14:07Z</time>
      </trkpt>
      <trkpt lat="47.56725" lon="-2.90693">
        <ele>6</ele>
        <time>2014-03-15T09:14:13Z</time>
      </trkpt>
      <trkpt lat="47.56729" lon="-2.90687">
        <ele>5</ele>
        <time>2014-03-15T09:14:18Z</time>
      </trkpt>
      <trkpt lat="47.56733" lon="-2.90681">
        <ele>5</ele>
        <time>2014-03-15T09:14:23Z</time>
      </trkpt>
      <trkpt lat="47.56736" lon="-2.90677">
        <ele>4</ele>
        <time>2014-03-15T09:14:27Z</time>
      </trkpt>
      <trkpt lat="47.5674" lon="-2.90673">
        <ele>4</ele>
        <time>2014-03-15T09:14:32Z</time>
      </trkpt>
      <trkpt lat="47.56744" lon="-2.90668">
        <ele>4</ele>
        <time>2014-03-15T09:14:38Z</time>
      </trkpt>
      <trkpt lat="47.56748" lon="-2.90663">
        <ele>3</ele>
        <time>2014-03-15T09:14:42Z</time>
      </trkpt>
      <trkpt lat="47.56752" lon="-2.90659">
        <ele>3</ele>
        <time>2014-03-15T09:14:46Z</time>
      </trkpt>
      <trkpt lat="47.56756" lon="-2.90655">
        <ele>3</ele>
        <time>2014-03-15T09:14:51Z</time>
      </trkpt>
      <trkpt lat="47.56761" lon="-2.90652">
        <ele>4</ele>
        <time>2014-03-15T09:14:56Z</time>
      </trkpt>
      <trkpt lat="47.56764" lon="-2.90646">
        <ele>4</ele>
        <time>2014-03-15T09:15:02Z</time>
      </trkpt>
      <trkpt lat="47.56765" lon="-2.90639">
        <ele>4</ele>
        <time>2014-03-15T09:15:10Z</time>
      </trkpt>
      <trkpt lat="47.5677" lon="-2.90635">
        <ele>4</ele>
        <time>2014-03-15T09:15:19Z</time>
      </trkpt>
      <trkpt lat="47.56775" lon="-2.90633">
        <ele>4</ele>
        <time>2014-03-15T09:15:25Z</time>
      </trkpt>
      <trkpt lat="47.56779" lon="-2.9063">
        <ele>4</ele>
        <time>2014-03-15T09:15:30Z</time>
      </trkpt>
      <trkpt lat="47.56783" lon="-2.90626">
        <ele>4</ele>
        <time>2014-03-15T09:15:34Z</time>
      </trkpt>
      <trkpt lat="47.56787" lon="-2.90622">
        <ele>4</ele>
        <time>2014-03-15T09:15:37Z</time>
      </trkpt>
      <trkpt lat="47.56791" lon="-2.90616">
        <ele>4</ele>
        <time>2014-03-15T09:15:42Z</time>
      </trkpt>
      <trkpt lat="47.56794" lon="-2.90611">
        <ele>5</ele>
        <time>2014-03-15T09:15:46Z</time>
      </trkpt>
      <trkpt lat="47.56798" lon="-2.90605">
        <ele>5</ele>
        <time>2014-03-15T09:15:50Z</time>
      </trkpt>
      <trkpt lat="47.56802" lon="-2.90601">
        <ele>5</ele>
        <time>2014-03-15T09:15:52Z</time>
      </trkpt>
      <trkpt lat="47.56806" lon="-2.90595">
        <ele>5</ele>
        <time>2014-03-15T09:15:57Z</time>
      </trkpt>
      <trkpt lat="47.5681" lon="-2.90589">
        <ele>5</ele>
        <time>2014-03-15T09:16:01Z</time>
      </trkpt>
      <trkpt lat="47.56814" lon="-2.90582">
        <time>2014-03-15T09:16:05Z</time>
      </trkpt>
      <trkpt lat="47.56818" lon="-2.90576">
        <time>2014-03-15T09:16:09Z</time>
      </trkpt>
      <trkpt lat="47.56821" lon="-2.90571">
        <time>2014-03-15T09:16:13Z</time>
      </trkpt>
      <trkpt lat="47.56825" lon="-2.90567">
        <time>2014-03-15T09:16:19Z</time>
      </trkpt>
      <trkpt lat="47.56828" lon="-2.90562">
        <time>2014-03-15T09:17:00Z</time>
      </trkpt>
      <trkpt lat="47.56832" lon="-2.9056">
        <time>2014-03-15T09:17:09Z</time>
      </trkpt>
      <trkpt lat="47.56837" lon="-2.90562">
        <time>2014-03-15T09:17:14Z</time>
      </trkpt>
      <trkpt lat="47.56842" lon="-2.90564">
        <time>2014-03-15T09:17:18Z</time>
      </trkpt>
      <trkpt lat="47.56848" lon="-2.90565">
        <time>2014-03-15T09:17:22Z</time>
      </trkpt>
      <trkpt lat="47.56853" lon="-2.90568">
        <time>2014-03-15T09:17:26Z</time>
      </trkpt>
      <trkpt lat="47.56858" lon="-2.90571">
        <time>2014-03-15T09:17:30Z</time>
      </trkpt>
      <trkpt lat="47.56862" lon="-2.90576">
        <time>2014-03-15T09:17:34Z</time>
      </trkpt>
      <trkpt lat="47.56867" lon="-2.9058">
        <time>2014-03-15T09:17:38Z</time>
      </trkpt>
      <trkpt lat="47.56871" lon="-2.90583">
        <time>2014-03-15T09:17:41Z</time>
      </trkpt>
      <trkpt lat="47.56875" lon="-2.90587">
        <ele>6</ele>
        <time>2014-03-15T09:17:45Z</time>
      </trkpt>
      <trkpt lat="47.56879" lon="-2.90591">
        <ele>6</ele>
        <time>2014-03-15T09:17:49Z</time>
      </trkpt>
      <trkpt lat="47.56881" lon="-2.90597">
        <ele>6</ele>
        <time>2014-03-15T09:17:53Z</time>
      </trkpt>
      <trkpt lat="47.56885" lon="-2.90602">
        <ele>6</ele>
        <time>2014-03-15T09:17:58Z</time>
      </trkpt>
      <trkpt lat="47.56887" lon="-2.90608">
        <ele>6</ele>
        <time>2014-03-15T09:18:03Z</time>
      </trkpt>
      <trkpt lat="47.5689" lon="-2.90614">
        <ele>6</ele>
        <time>2014-03-15T09:18:11Z</time>
      </trkpt>
      <trkpt lat="47.56892" lon="-2.90621">
        <ele>6</ele>
        <time>2014-03-15T09:18:17Z</time>
      </trkpt>
      <trkpt lat="47.56897" lon="-2.90625">
        <ele>6</ele>
        <time>2014-03-15T09:18:23Z</time>
      </trkpt>
      <trkpt lat="47.56902" lon="-2.90627">
        <ele>6</ele>
        <time>2014-03-15T09:18:28Z</time>
      </trkpt>
      <trkpt lat="47.56906" lon="-2.90628">
        <ele>6</ele>
        <time>2014-03-15T09:18:34Z</time>
      </trkpt>
      <trkpt lat="47.5691" lon="-2.90632">
        <ele>6</ele>
        <time>2014-03-15T09:18:44Z</time>
      </trkpt>
      <trkpt lat="47.56915" lon="-2.90634">
        <ele>6</ele>
        <time>2014-03-15T09:18:55Z</time>
      </trkpt>
      <trkpt lat="47.56916" lon="-2.9064">
        <ele>6</ele>
        <time>2014-03-15T09:19:05Z</time>
      </trkpt>
      <trkpt lat="47.56917" lon="-2.90648">
        <ele>6</ele>
        <time>2014-03-15T09:19:10Z</time>
      </trkpt>
      <trkpt lat="47.5692" lon="-2.90653">
        <time>2014-03-15T09:19:14Z</time>
      </trkpt>
      <trkpt lat="47.56924" lon="-2.90656">
        <time>2014-03-15T09:19:17Z</time>
      </trkpt>
      <trkpt lat="47.56929" lon="-2.90659">
        <time>2014-03-15T09:19:20Z</time>
      </trkpt>
      <trkpt lat="47.56934" lon="-2.90662">
        <time>2014-03-15T09:19:23Z</time>
      </trkpt>
      <trkpt lat="47.56939" lon="-2.90664">
        <time>2014-03-15T09:19:26Z</time>
      </trkpt>
      <trkpt lat="47.56944" lon="-2.90665">
        <time>2014-03-15T09:19:29Z</time>
      </trkpt>
      <trkpt lat="47.5695" lon="-2.90666">
        <time>2014-03-15T09:19:32Z</time>
      </trkpt>
      <trkpt lat="47.56954" lon="-2.90667">
        <time>2014-03-15T09:19:35Z</time>
      </trkpt>
      <trkpt lat="47.5696" lon="-2.90669">
        <time>2014-03-15T09:19:38Z</time>
      </trkpt>
      <trkpt lat="47.56965" lon="-2.90671">
        <time>2014-03-15T09:19:41Z</time>
      </trkpt>
      <trkpt lat="47.5697" lon="-2.90673">
        <time>2014-03-15T09:19:44Z</time>
      </trkpt>
      <trkpt lat="47.56974" lon="-2.90675">
        <time>2014-03-15T09:19:47Z</time>
      </trkpt>
      <trkpt lat="47.56979" lon="-2.90676">
        <time>2014-03-15T09:19:50Z</time>
      </trkpt>
      <trkpt lat="47.56984" lon="-2.90677">
        <time>2014-03-15T09:19:53Z</time>
      </trkpt>
      <trkpt lat="47.5699" lon="-2.90678">
        <time>2014-03-15T09:19:56Z</time>
      </trkpt>
      <trkpt lat="47.56995" lon="-2.90679">
        <time>2014-03-15T09:19:59Z</time>
      </trkpt>
      <trkpt lat="47.56999" lon="-2.9068">
        <time>2014-03-15T09:20:02Z</time>
      </trkpt>
      <trkpt lat="47.57004" lon="-2.90682">
        <time>2014-03-15T09:20:06Z</time>
      </trkpt>
      <trkpt lat="47.57009" lon="-2.90685">
        <time>2014-03-15T09:20:10Z</time>
      </trkpt>
      <trkpt lat="47.57014" lon="-2.90687">
        <time>2014-03-15T09:20:14Z</time>
      </trkpt>
      <trkpt lat="47.57018" lon="-2.90687">
        <time>2014-03-15T09:20:17Z</time>
      </trkpt>
      <trkpt lat="47.57024" lon="-2.90684">
        <time>2014-03-15T09:20:21Z</time>
      </trkpt>
      <trkpt lat="47.57027" lon="-2.9068">
        <time>2014-03-15T09:20:24Z</time>
      </trkpt>
      <trkpt lat="47.57031" lon="-2.90675">
        <time>2014-03-15T09:20:27Z</time>
      </trkpt>
      <trkpt lat="47.57034" lon="-2.90669">
        <time>2014-03-15T09:20:31Z</time>
      </trkpt>
      <trkpt lat="47.57037" lon="-2.90664">
        <time>2014-03-15T09:20:34Z</time>
      </trkpt>
      <trkpt lat="47.5704" lon="-2.90658">
        <time>2014-03-15T09:20:37Z</time>
      </trkpt>
      <trkpt lat="47.57044" lon="-2.90653">
        <time>2014-03-15T09:20:40Z</time>
      </trkpt>
      <trkpt lat="47.57048" lon="-2.90647">
        <time>2014-03-15T09:20:43Z</time>
      </trkpt>
      <trkpt lat="47.57052" lon="-2.90642">
        <time>2014-03-15T09:20:46Z</time>
      </trkpt>
      <trkpt lat="47.57057" lon="-2.90636">
        <time>2014-03-15T09:20:49Z</time>
      </trkpt>
      <trkpt lat="47.5706" lon="-2.9063">
        <time>2014-03-15T09:20:52Z</time>
      </trkpt>
      <trkpt lat="47.57063" lon="-2.90624">
        <time>2014-03-15T09:20:55Z</time>
      </trkpt>
      <trkpt lat="47.57066" lon="-2.90617">
        <time>2014-03-15T09:20:58Z</time>
      </trkpt>
      <trkpt lat="47.57069" lon="-2.9061">
        <time>2014-03-15T09:21:01Z</time>
      </trkpt>
      <trkpt lat="47.57071" lon="-2.906">
        <time>2014-03-15T09:21:04Z</time>
      </trkpt>
      <trkpt lat="47.57073" lon="-2.90594">
        <time>2014-03-15T09:21:06Z</time>
      </trkpt>
      <trkpt lat="47.57074" lon="-2.90587">
        <time>2014-03-15T09:21:08Z</time>
      </trkpt>
      <trkpt lat="47.57075" lon="-2.9058">
        <time>2014-03-15T09:21:10Z</time>
      </trkpt>
      <trkpt lat="47.57076" lon="-2.90574">
        <time>2014-03-15T09:21:12Z</time>
      </trkpt>
      <trkpt lat="47.57077" lon="-2.90567">
        <time>2014-03-15T09:21:14Z</time>
      </trkpt>
      <trkpt lat="47.57078" lon="-2.90558">
        <time>2014-03-15T09:21:17Z</time>
      </trkpt>
      <trkpt lat="47.57078" lon="-2.90548">
        <time>2014-03-15T09:21:20Z</time>
      </trkpt>
      <trkpt lat="47.57079" lon="-2.90538">
        <time>2014-03-15T09:21:23Z</time>
      </trkpt>
      <trkpt lat="47.5708" lon="-2.90531">
        <time>2014-03-15T09:21:25Z</time>
      </trkpt>
      <trkpt lat="47.57081" lon="-2.90524">
        <time>2014-03-15T09:21:27Z</time>
      </trkpt>
      <trkpt lat="47.57082" lon="-2.90516">
        <time>2014-03-15T09:21:29Z</time>
      </trkpt>
      <trkpt lat="47.57082" lon="-2.90509">
        <time>2014-03-15T09:21:31Z</time>
      </trkpt>
      <trkpt lat="47.57083" lon="-2.90502">
        <time>2014-03-15T09:21:33Z</time>
      </trkpt>
      <trkpt lat="47.57083" lon="-2.90491">
        <time>2014-03-15T09:21:36Z</time>
      </trkpt>
      <trkpt lat="47.57083" lon="-2.90483">
        <time>2014-03-15T09:21:38Z</time>
      </trkpt>
      <trkpt lat="47.57084" lon="-2.90476">
        <time>2014-03-15T09:21:40Z</time>
      </trkpt>
      <trkpt lat="47.57085" lon="-2.90469">
        <time>2014-03-15T09:21:42Z</time>
      </trkpt>
      <trkpt lat="47.57087" lon="-2.90462">
        <time>2014-03-15T09:21:44Z</time>
      </trkpt>
      <trkpt lat="47.57089" lon="-2.90455">
        <time>2014-03-15T09:21:46Z</time>
      </trkpt>
      <trkpt lat="47.5709" lon="-2.90447">
        <time>2014-03-15T09:21:48Z</time>
      </trkpt>
      <trkpt lat="47.57091" lon="-2.90441">
        <time>2014-03-15T09:21:50Z</time>
      </trkpt>
      <trkpt lat="47.57093" lon="-2.90434">
        <time>2014-03-15T09:21:52Z</time>
      </trkpt>
      <trkpt lat="47.57094" lon="-2.90427">
        <time>2014-03-15T09:21:54Z</time>
      </trkpt>
      <trkpt lat="47.57095" lon="-2.9042">
        <time>2014-03-15T09:21:56Z</time>
      </trkpt>
      <trkpt lat="47.57097" lon="-2.90414">
        <time>2014-03-15T09:21:58Z</time>
      </trkpt>
      <trkpt lat="47.57098" lon="-2.90407">
        <time>2014-03-15T09:22:00Z</time>
      </trkpt>
      <trkpt lat="47.57099" lon="-2.904">
        <time>2014-03-15T09:22:02Z</time>
      </trkpt>
      <trkpt lat="47.571" lon="-2.90393">
        <time>2014-03-15T09:22:04Z</time>
      </trkpt>
      <trkpt lat="47.57102" lon="-2.90383">
        <time>2014-03-15T09:22:07Z</time>
      </trkpt>
      <trkpt lat="47.57103" lon="-2.90376">
        <time>2014-03-15T09:22:09Z</time>
      </trkpt>
      <trkpt lat="47.57104" lon="-2.90369">
        <time>2014-03-15T09:22:11Z</time>
      </trkpt>
      <trkpt lat="47.57106" lon="-2.9036">
        <time>2014-03-15T09:22:14Z</time>
      </trkpt>
      <trkpt lat="47.57107" lon="-2.90353">
        <time>2014-03-15T09:22:16Z</time>
      </trkpt>
      <trkpt lat="47.57108" lon="-2.90346">
        <time>2014-03-15T09:22:18Z</time>
      </trkpt>
      <trkpt lat="47.5711" lon="-2.90339">
        <time>2014-03-15T09:22:20Z</time>
      </trkpt>
      <trkpt lat="47.57111" lon="-2.90333">
        <time>2014-03-15T09:22:22Z</time>
      </trkpt>
      <trkpt lat="47.57112" lon="-2.90326">
        <time>2014-03-15T09:22:24Z</time>
      </trkpt>
      <trkpt lat="47.57113" lon="-2.90318">
        <time>2014-03-15T09:22:26Z</time>
      </trkpt>
      <trkpt lat="47.57114" lon="-2.90311">
        <time>2014-03-15T09:22:28Z</time>
      </trkpt>
      <trkpt lat="47.57115" lon="-2.90305">
        <time>2014-03-15T09:22:30Z</time>
      </trkpt>
      <trkpt lat="47.57116" lon="-2.90298">
        <time>2014-03-15T09:22:32Z</time>
      </trkpt>
      <trkpt lat="47.57117" lon="-2.90291">
        <time>2014-03-15T09:22:34Z</time>
      </trkpt>
      <trkpt lat="47.57119" lon="-2.90284">
        <time>2014-03-15T09:22:36Z</time>
      </trkpt>
      <trkpt lat="47.5712" lon="-2.90278">
        <time>2014-03-15T09:22:38Z</time>
      </trkpt>
      <trkpt lat="47.57121" lon="-2.90271">
        <time>2014-03-15T09:22:40Z</time>
      </trkpt>
      <trkpt lat="47.57123" lon="-2.90263">
        <time>2014-03-15T09:22:42Z</time>
      </trkpt>
      <trkpt lat="47.57124" lon="-2.90257">
        <time>2014-03-15T09:22:44Z</time>
      </trkpt>
      <trkpt lat="47.57126" lon="-2.9025">
        <time>2014-03-15T09:22:46Z</time>
      </trkpt>
      <trkpt lat="47.57127" lon="-2.90244">
        <time>2014-03-15T09:22:48Z</time>
      </trkpt>
      <trkpt lat="47.57129" lon="-2.90235">
        <time>2014-03-15T09:22:51Z</time>
      </trkpt>
      <trkpt lat="47.57131" lon="-2.90226">
        <time>2014-03-15T09:22:54Z</time>
      </trkpt>
      <trkpt lat="47.57132" lon="-2.90217">
        <time>2014-03-15T09:22:57Z</time>
      </trkpt>
      <trkpt lat="47.57132" lon="-2.90207">
        <time>2014-03-15T09:23:00Z</time>
      </trkpt>
      <trkpt lat="47.57132" lon="-2.90199">
        <time>2014-03-15T09:23:03Z</time>
      </trkpt>
      <trkpt lat="47.57132" lon="-2.90191">
        <time>2014-03-15T09:23:06Z</time>
      </trkpt>
      <trkpt lat="47.57131" lon="-2.90183">
        <time>2014-03-15T09:23:09Z</time>
      </trkpt>
      <trkpt lat="47.5713" lon="-2.90175">
        <time>2014-03-15T09:23:12Z</time>
      </trkpt>
      <trkpt lat="47.57129" lon="-2.90167">
        <time>2014-03-15T09:23:15Z</time>
      </trkpt>
      <trkpt lat="47.57127" lon="-2.90159">
        <time>2014-03-15T09:23:18Z</time>
      </trkpt>
      <trkpt lat="47.57125" lon="-2.90151">
        <time>2014-03-15T09:23:21Z</time>
      </trkpt>
      <trkpt lat="47.57122" lon="-2.90143">
        <time>2014-03-15T09:23:24Z</time>
      </trkpt>
      <trkpt lat="47.5712" lon="-2.90136">
        <time>2014-03-15T09:23:27Z</time>
      </trkpt>
      <trkpt lat="47.57118" lon="-2.90129">
        <time>2014-03-15T09:23:30Z</time>
      </trkpt>
      <trkpt lat="47.57116" lon="-2.90121">
        <time>2014-03-15T09:23:34Z</time>
      </trkpt>
      <trkpt lat="47.57114" lon="-2.90113">
        <time>2014-03-15T09:23:38Z</time>
      </trkpt>
      <trkpt lat="47.57113" lon="-2.90106">
        <time>2014-03-15T09:23:42Z</time>
      </trkpt>
      <trkpt lat="47.57111" lon="-2.901">
        <time>2014-03-15T09:23:46Z</time>
      </trkpt>
      <trkpt lat="47.57109" lon="-2.90093">
        <time>2014-03-15T09:23:50Z</time>
      </trkpt>
      <trkpt lat="47.57107" lon="-2.90087">
        <time>2014-03-15T09:23:54Z</time>
      </trkpt>
      <trkpt lat="47.57104" lon="-2.9008">
        <ele>6</ele>
        <time>2014-03-15T09:23:58Z</time>
      </trkpt>
      <trkpt lat="47.57101" lon="-2.90072">
        <ele>6</ele>
        <time>2014-03-15T09:24:02Z</time>
      </trkpt>
      <trkpt lat="47.57098" lon="-2.90065">
        <ele>6</ele>
        <time>2014-03-15T09:24:06Z</time>
      </trkpt>
      <trkpt lat="47.57095" lon="-2.90058">
        <ele>6</ele>
        <time>2014-03-15T09:24:10Z</time>
      </trkpt>
      <trkpt lat="47.57093" lon="-2.90052">
        <ele>6</ele>
        <time>2014-03-15T09:24:13Z</time>
      </trkpt>
      <trkpt lat="47.5709" lon="-2.90046">
        <ele>6</ele>
        <time>2014-03-15T09:24:16Z</time>
      </trkpt>
      <trkpt lat="47.57088" lon="-2.9004">
        <ele>6</ele>
        <time>2014-03-15T09:24:19Z</time>
      </trkpt>
      <trkpt lat="47.57086" lon="-2.90032">
        <ele>6</ele>
        <time>2014-03-15T09:24:23Z</time>
      </trkpt>
      <trkpt lat="47.57083" lon="-2.90026">
        <time>2014-03-15T09:24:27Z</time>
      </trkpt>
      <trkpt lat="47.57081" lon="-2.9002">
        <time>2014-03-15T09:24:31Z</time>
      </trkpt>
      <trkpt lat="47.57079" lon="-2.90013">
        <time>2014-03-15T09:24:35Z</time>
      </trkpt>
      <trkpt lat="47.57077" lon="-2.90006">
        <time>2014-03-15T09:24:39Z</time>
      </trkpt>
      <trkpt lat="47.57075" lon="-2.9">
        <time>2014-03-15T09:24:45Z</time>
      </trkpt>
      <trkpt lat="47.57076" lon="-2.89992">
        <time>2014-03-15T09:24:49Z</time>
      </trkpt>
      <trkpt lat="47.57078" lon="-2.89983">
        <time>2014-03-15T09:24:53Z</time>
      </trkpt>
      <trkpt lat="47.57079" lon="-2.89976">
        <time>2014-03-15T09:24:56Z</time>
      </trkpt>
      <trkpt lat="47.57081" lon="-2.89969">
        <time>2014-03-15T09:24:59Z</time>
      </trkpt>
      <trkpt lat="47.57082" lon="-2.8996">
        <time>2014-03-15T09:25:02Z</time>
      </trkpt>
      <trkpt lat="47.57083" lon="-2.8995">
        <time>2014-03-15T09:25:05Z</time>
      </trkpt>
      <trkpt lat="47.57083" lon="-2.89943">
        <ele>9</ele>
        <time>2014-03-15T09:25:07Z</time>
      </trkpt>
      <trkpt lat="47.57084" lon="-2.89935">
        <ele>9</ele>
        <time>2014-03-15T09:25:09Z</time>
      </trkpt>
      <trkpt lat="47.57085" lon="-2.89928">
        <ele>9</ele>
        <time>2014-03-15T09:25:11Z</time>
      </trkpt>
      <trkpt lat="47.57086" lon="-2.89921">
        <ele>9</ele>
        <time>2014-03-15T09:25:13Z</time>
      </trkpt>
      <trkpt lat="47.57086" lon="-2.89912">
        <ele>12</ele>
        <time>2014-03-15T09:25:16Z</time>
      </trkpt>
      <trkpt lat="47.57087" lon="-2.89905">
        <ele>12</ele>
        <time>2014-03-15T09:25:19Z</time>
      </trkpt>
      <trkpt lat="47.57087" lon="-2.89898">
        <ele>12</ele>
        <time>2014-03-15T09:25:22Z</time>
      </trkpt>
      <trkpt lat="47.57088" lon="-2.8989">
        <ele>12</ele>
        <time>2014-03-15T09:25:26Z</time>
      </trkpt>
      <trkpt lat="47.57089" lon="-2.89882">
        <ele>12</ele>
        <time>2014-03-15T09:25:30Z</time>
      </trkpt>
      <trkpt lat="47.57091" lon="-2.89874">
        <ele>13</ele>
        <time>2014-03-15T09:25:34Z</time>
      </trkpt>
      <trkpt lat="47.57092" lon="-2.89868">
        <ele>13</ele>
        <time>2014-03-15T09:25:38Z</time>
      </trkpt>
      <trkpt lat="47.57093" lon="-2.89861">
        <ele>13</ele>
        <time>2014-03-15T09:25:43Z</time>
      </trkpt>
      <trkpt lat="47.57094" lon="-2.89853">
        <ele>13</ele>
        <time>2014-03-15T09:25:48Z</time>
      </trkpt>
      <trkpt lat="47.57097" lon="-2.89846">
        <ele>13</ele>
        <time>2014-03-15T09:25:52Z</time>
      </trkpt>
      <trkpt lat="47.57098" lon="-2.8984">
        <ele>13</ele>
        <time>2014-03-15T09:25:55Z</time>
      </trkpt>
      <trkpt lat="47.57101" lon="-2.89834">
        <ele>13</ele>
        <time>2014-03-15T09:25:58Z</time>
      </trkpt>
      <trkpt lat="47.57104" lon="-2.89827">
        <ele>10</ele>
        <time>2014-03-15T09:26:01Z</time>
      </trkpt>
      <trkpt lat="47.57107" lon="-2.89821">
        <ele>10</ele>
        <time>2014-03-15T09:26:04Z</time>
      </trkpt>
      <trkpt lat="47.57109" lon="-2.89814">
        <ele>10</ele>
        <time>2014-03-15T09:26:08Z</time>
      </trkpt>
      <trkpt lat="47.57111" lon="-2.89806">
        <ele>10</ele>
        <time>2014-03-15T09:26:12Z</time>
      </trkpt>
      <trkpt lat="47.57113" lon="-2.89798">
        <ele>10</ele>
        <time>2014-03-15T09:26:16Z</time>
      </trkpt>
      <trkpt lat="47.57116" lon="-2.89792">
        <ele>10</ele>
        <time>2014-03-15T09:26:20Z</time>
      </trkpt>
      <trkpt lat="47.57119" lon="-2.89785">
        <ele>9</ele>
        <time>2014-03-15T09:26:24Z</time>
      </trkpt>
      <trkpt lat="47.57122" lon="-2.89779">
        <ele>9</ele>
        <time>2014-03-15T09:26:27Z</time>
      </trkpt>
      <trkpt lat="47.57124" lon="-2.89773">
        <ele>9</ele>
        <time>2014-03-15T09:26:30Z</time>
      </trkpt>
      <trkpt lat="47.57126" lon="-2.89767">
        <ele>9</ele>
        <time>2014-03-15T09:26:33Z</time>
      </trkpt>
      <trkpt lat="47.57129" lon="-2.8976">
        <ele>8</ele>
        <time>2014-03-15T09:26:37Z</time>
      </trkpt>
      <trkpt lat="47.57131" lon="-2.89754">
        <ele>8</ele>
        <time>2014-03-15T09:26:42Z</time>
      </trkpt>
      <trkpt lat="47.57134" lon="-2.89748">
        <ele>6</ele>
        <time>2014-03-15T09:26:47Z</time>
      </trkpt>
      <trkpt lat="47.57137" lon="-2.89742">
        <ele>6</ele>
        <time>2014-03-15T09:26:52Z</time>
      </trkpt>
      <trkpt lat="47.5714" lon="-2.89737">
        <ele>6</ele>
        <time>2014-03-15T09:26:57Z</time>
      </trkpt>
      <trkpt lat="47.57143" lon="-2.89731">
        <ele>6</ele>
        <time>2014-03-15T09:27:03Z</time>
      </trkpt>
      <trkpt lat="47.57146" lon="-2.89725">
        <ele>6</ele>
        <time>2014-03-15T09:27:26Z</time>
      </trkpt>
      <trkpt lat="47.57149" lon="-2.89717">
        <ele>6</ele>
        <time>2014-03-15T09:27:31Z</time>
      </trkpt>
      <trkpt lat="47.57152" lon="-2.89711">
        <ele>6</ele>
        <time>2014-03-15T09:27:34Z</time>
      </trkpt>
      <trkpt lat="47.57155" lon="-2.89705">
        <ele>6</ele>
        <time>2014-03-15T09:27:38Z</time>
      </trkpt>
      <trkpt lat="47.57159" lon="-2.897">
        <ele>6</ele>
        <time>2014-03-15T09:27:47Z</time>
      </trkpt>
      <trkpt lat="47.57162" lon="-2.89695">
        <ele>6</ele>
        <time>2014-03-15T09:28:08Z</time>
      </trkpt>
      <trkpt lat="47.57164" lon="-2.89689">
        <ele>6</ele>
        <time>2014-03-15T09:28:12Z</time>
      </trkpt>
      <trkpt lat="47.57167" lon="-2.89683">
        <ele>9</ele>
        <time>2014-03-15T09:28:16Z</time>
      </trkpt>
      <trkpt lat="47.57171" lon="-2.89679">
        <ele>9</ele>
        <time>2014-03-15T09:28:28Z</time>
      </trkpt>
      <trkpt lat="47.57175" lon="-2.89674">
        <ele>10</ele>
        <time>2014-03-15T09:28:34Z</time>
      </trkpt>
      <trkpt lat="47.57178" lon="-2.89669">
        <ele>10</ele>
        <time>2014-03-15T09:28:40Z</time>
      </trkpt>
      <trkpt lat="47.5718" lon="-2.89663">
        <ele>9</ele>
        <time>2014-03-15T09:28:45Z</time>
      </trkpt>
      <trkpt lat="47.57184" lon="-2.8966">
        <ele>9</ele>
        <time>2014-03-15T09:28:49Z</time>
      </trkpt>
      <trkpt lat="47.57189" lon="-2.89655">
        <ele>9</ele>
        <time>2014-03-15T09:28:55Z</time>
      </trkpt>
      <trkpt lat="47.57193" lon="-2.89653">
        <ele>9</ele>
        <time>2014-03-15T09:28:59Z</time>
      </trkpt>
      <trkpt lat="47.57198" lon="-2.89649">
        <ele>9</ele>
        <time>2014-03-15T09:29:03Z</time>
      </trkpt>
      <trkpt lat="47.57203" lon="-2.89645">
        <ele>9</ele>
        <time>2014-03-15T09:29:07Z</time>
      </trkpt>
      <trkpt lat="47.57206" lon="-2.89639">
        <ele>9</ele>
        <time>2014-03-15T09:29:11Z</time>
      </trkpt>
      <trkpt lat="47.57209" lon="-2.89633">
        <ele>9</ele>
        <time>2014-03-15T09:29:27Z</time>
      </trkpt>
      <trkpt lat="47.57211" lon="-2.89627">
        <ele>9</ele>
        <time>2014-03-15T09:29:31Z</time>
      </trkpt>
      <trkpt lat="47.57213" lon="-2.8962">
        <ele>9</ele>
        <time>2014-03-15T09:29:34Z</time>
      </trkpt>
      <trkpt lat="47.57217" lon="-2.89616">
        <ele>9</ele>
        <time>2014-03-15T09:29:38Z</time>
      </trkpt>
      <trkpt lat="47.57221" lon="-2.89612">
        <ele>9</ele>
        <time>2014-03-15T09:29:43Z</time>
      </trkpt>
      <trkpt lat="47.57225" lon="-2.89607">
        <ele>9</ele>
        <time>2014-03-15T09:29:48Z</time>
      </trkpt>
      <trkpt lat="47.57228" lon="-2.89601">
        <ele>9</ele>
        <time>2014-03-15T09:29:52Z</time>
      </trkpt>
      <trkpt lat="47.57231" lon="-2.89596">
        <ele>8</ele>
        <time>2014-03-15T09:29:56Z</time>
      </trkpt>
      <trkpt lat="47.57235" lon="-2.89592">
        <ele>8</ele>
        <time>2014-03-15T09:30:00Z</time>
      </trkpt>
      <trkpt lat="47.57239" lon="-2.89588">
        <ele>8</ele>
        <time>2014-03-15T09:30:04Z</time>
      </trkpt>
      <trkpt lat="47.57242" lon="-2.89582">
        <ele>8</ele>
        <time>2014-03-15T09:30:12Z</time>
      </trkpt>
      <trkpt lat="47.57244" lon="-2.89575">
        <ele>8</ele>
        <time>2014-03-15T09:30:36Z</time>
      </trkpt>
      <trkpt lat="47.57247" lon="-2.89569">
        <ele>8</ele>
        <time>2014-03-15T09:30:40Z</time>
      </trkpt>
      <trkpt lat="47.57242" lon="-2.89565">
        <ele>8</ele>
        <time>2014-03-15T09:30:46Z</time>
      </trkpt>
      <trkpt lat="47.57239" lon="-2.89559">
        <ele>8</ele>
        <time>2014-03-15T09:30:52Z</time>
      </trkpt>
      <trkpt lat="47.57244" lon="-2.89561">
        <ele>8</ele>
        <time>2014-03-15T09:30:59Z</time>
      </trkpt>
      <trkpt lat="47.57247" lon="-2.89557">
        <ele>8</ele>
        <time>2014-03-15T09:31:21Z</time>
      </trkpt>
      <trkpt lat="47.57252" lon="-2.89556">
        <ele>9</ele>
        <time>2014-03-15T09:31:34Z</time>
      </trkpt>
      <trkpt lat="47.57257" lon="-2.89555">
        <ele>9</ele>
        <time>2014-03-15T09:31:39Z</time>
      </trkpt>
      <trkpt lat="47.57262" lon="-2.89555">
        <ele>9</ele>
        <time>2014-03-15T09:31:46Z</time>
      </trkpt>
      <trkpt lat="47.57261" lon="-2.89548">
        <ele>9</ele>
        <time>2014-03-15T09:32:36Z</time>
      </trkpt>
      <trkpt lat="47.57266" lon="-2.89544">
        <ele>9</ele>
        <time>2014-03-15T09:32:47Z</time>
      </trkpt>
      <trkpt lat="47.57272" lon="-2.89545">
        <ele>9</ele>
        <time>2014-03-15T09:32:51Z</time>
      </trkpt>
      <trkpt lat="47.57277" lon="-2.89547">
        <ele>9</ele>
        <time>2014-03-15T09:32:55Z</time>
      </trkpt>
      <trkpt lat="47.57283" lon="-2.89548">
        <ele>9</ele>
        <time>2014-03-15T09:32:58Z</time>
      </trkpt>
      <trkpt lat="47.57287" lon="-2.89547">
        <ele>9</ele>
        <time>2014-03-15T09:33:01Z</time>
      </trkpt>
      <trkpt lat="47.57292" lon="-2.89546">
        <ele>10</ele>
        <time>2014-03-15T09:33:04Z</time>
      </trkpt>
      <trkpt lat="47.57296" lon="-2.89544">
        <ele>10</ele>
        <time>2014-03-15T09:33:07Z</time>
      </trkpt>
      <trkpt lat="47.57302" lon="-2.89541">
        <ele>10</ele>
        <time>2014-03-15T09:33:11Z</time>
      </trkpt>
      <trkpt lat="47.57306" lon="-2.89538">
        <ele>10</ele>
        <time>2014-03-15T09:33:15Z</time>
      </trkpt>
      <trkpt lat="47.57311" lon="-2.89536">
        <ele>10</ele>
        <time>2014-03-15T09:33:21Z</time>
      </trkpt>
      <trkpt lat="47.57316" lon="-2.89534">
        <ele>10</ele>
        <time>2014-03-15T09:33:27Z</time>
      </trkpt>
      <trkpt lat="47.5732" lon="-2.89532">
        <ele>10</ele>
        <time>2014-03-15T09:33:33Z</time>
      </trkpt>
      <trkpt lat="47.57325" lon="-2.89531">
        <ele>10</ele>
        <time>2014-03-15T09:35:11Z</time>
      </trkpt>
      <trkpt lat="47.57326" lon="-2.89524">
        <ele>10</ele>
        <time>2014-03-15T09:38:39Z</time>
      </trkpt>
      <trkpt lat="47.57327" lon="-2.89516">
        <ele>10</ele>
        <time>2014-03-15T09:38:43Z</time>
      </trkpt>
      <trkpt lat="47.57325" lon="-2.8951">
        <ele>10</ele>
        <time>2014-03-15T09:38:58Z</time>
      </trkpt>
      <trkpt lat="47.57321" lon="-2.89506">
        <ele>10</ele>
        <time>2014-03-15T09:39:08Z</time>
      </trkpt>
      <trkpt lat="47.5732" lon="-2.89499">
        <time>2014-03-15T09:39:15Z</time>
      </trkpt>
      <trkpt lat="47.57319" lon="-2.89491">
        <time>2014-03-15T09:39:21Z</time>
      </trkpt>
      <trkpt lat="47.57317" lon="-2.89484">
        <time>2014-03-15T09:39:26Z</time>
      </trkpt>
      <trkpt lat="47.57315" lon="-2.89478">
        <time>2014-03-15T09:39:31Z</time>
      </trkpt>
      <trkpt lat="47.57312" lon="-2.89472">
        <time>2014-03-15T09:39:37Z</time>
      </trkpt>
      <trkpt lat="47.57307" lon="-2.89474">
        <time>2014-03-15T09:39:43Z</time>
      </trkpt>
      <trkpt lat="47.57302" lon="-2.89475">
        <time>2014-03-15T09:39:48Z</time>
      </trkpt>
      <trkpt lat="47.57298" lon="-2.89477">
        <time>2014-03-15T09:39:52Z</time>
      </trkpt>
      <trkpt lat="47.57293" lon="-2.89479">
        <time>2014-03-15T09:39:56Z</time>
      </trkpt>
      <trkpt lat="47.57288" lon="-2.8948">
        <time>2014-03-15T09:40:00Z</time>
      </trkpt>
      <trkpt lat="47.57283" lon="-2.8948">
        <time>2014-03-15T09:40:04Z</time>
      </trkpt>
      <trkpt lat="47.57277" lon="-2.8948">
        <time>2014-03-15T09:40:08Z</time>
      </trkpt>
      <trkpt lat="47.57272" lon="-2.89481">
        <time>2014-03-15T09:40:11Z</time>
      </trkpt>
      <trkpt lat="47.57267" lon="-2.89484">
        <time>2014-03-15T09:40:14Z</time>
      </trkpt>
      <trkpt lat="47.57261" lon="-2.89489">
        <time>2014-03-15T09:40:17Z</time>
      </trkpt>
      <trkpt lat="47.57255" lon="-2.89493">
        <time>2014-03-15T09:40:20Z</time>
      </trkpt>
      <trkpt lat="47.57251" lon="-2.89497">
        <time>2014-03-15T09:40:22Z</time>
      </trkpt>
      <trkpt lat="47.57246" lon="-2.89501">
        <ele>8</ele>
        <time>2014-03-15T09:40:24Z</time>
      </trkpt>
      <trkpt lat="47.57242" lon="-2.89506">
        <ele>8</ele>
        <time>2014-03-15T09:40:26Z</time>
      </trkpt>
      <trkpt lat="47.57237" lon="-2.89512">
        <ele>8</ele>
        <time>2014-03-15T09:40:28Z</time>
      </trkpt>
      <trkpt lat="47.57232" lon="-2.89518">
        <ele>8</ele>
        <time>2014-03-15T09:40:30Z</time>
      </trkpt>
      <trkpt lat="47.57226" lon="-2.89524">
        <ele>8</ele>
        <time>2014-03-15T09:40:32Z</time>
      </trkpt>
      <trkpt lat="47.57221" lon="-2.8953">
        <ele>8</ele>
        <time>2014-03-15T09:40:34Z</time>
      </trkpt>
      <trkpt lat="47.57216" lon="-2.89536">
        <ele>8</ele>
        <time>2014-03-15T09:40:36Z</time>
      </trkpt>
      <trkpt lat="47.57211" lon="-2.89543">
        <ele>8</ele>
        <time>2014-03-15T09:40:38Z</time>
      </trkpt>
      <trkpt lat="47.57207" lon="-2.89551">
        <ele>8</ele>
        <time>2014-03-15T09:40:40Z</time>
      </trkpt>
      <trkpt lat="47.57204" lon="-2.89558">
        <ele>8</ele>
        <time>2014-03-15T09:40:42Z</time>
      </trkpt>
      <trkpt lat="47.572" lon="-2.89566">
        <ele>8</ele>
        <time>2014-03-15T09:40:44Z</time>
      </trkpt>
      <trkpt lat="47.57197" lon="-2.89574">
        <ele>8</ele>
        <time>2014-03-15T09:40:46Z</time>
      </trkpt>
      <trkpt lat="47.57194" lon="-2.8958">
        <ele>8</ele>
        <time>2014-03-15T09:40:48Z</time>
      </trkpt>
      <trkpt lat="47.5719" lon="-2.89585">
        <ele>9</ele>
        <time>2014-03-15T09:40:50Z</time>
      </trkpt>
      <trkpt lat="47.57185" lon="-2.89588">
        <ele>9</ele>
        <time>2014-03-15T09:40:52Z</time>
      </trkpt>
      <trkpt lat="47.57181" lon="-2.89592">
        <ele>9</ele>
        <time>2014-03-15T09:40:54Z</time>
      </trkpt>
      <trkpt lat="47.57176" lon="-2.89596">
        <ele>9</ele>
        <time>2014-03-15T09:40:56Z</time>
      </trkpt>
      <trkpt lat="47.57171" lon="-2.896">
        <ele>9</ele>
        <time>2014-03-15T09:40:58Z</time>
      </trkpt>
      <trkpt lat="47.57166" lon="-2.89605">
        <time>2014-03-15T09:41:00Z</time>
      </trkpt>
      <trkpt lat="47.57161" lon="-2.89609">
        <time>2014-03-15T09:41:02Z</time>
      </trkpt>
      <trkpt lat="47.57156" lon="-2.89614">
        <time>2014-03-15T09:41:04Z</time>
      </trkpt>
      <trkpt lat="47.57152" lon="-2.89619">
        <time>2014-03-15T09:41:06Z</time>
      </trkpt>
      <trkpt lat="47.57147" lon="-2.89624">
        <time>2014-03-15T09:41:08Z</time>
      </trkpt>
      <trkpt lat="47.57139" lon="-2.89631">
        <time>2014-03-15T09:41:11Z</time>
      </trkpt>
      <trkpt lat="47.57133" lon="-2.89636">
        <time>2014-03-15T09:41:13Z</time>
      </trkpt>
      <trkpt lat="47.57123" lon="-2.89642">
        <time>2014-03-15T09:41:16Z</time>
      </trkpt>
      <trkpt lat="47.57117" lon="-2.89645">
        <time>2014-03-15T09:41:18Z</time>
      </trkpt>
      <trkpt lat="47.57111" lon="-2.89648">
        <time>2014-03-15T09:41:20Z</time>
      </trkpt>
      <trkpt lat="47.57105" lon="-2.89652">
        <time>2014-03-15T09:41:22Z</time>
      </trkpt>
      <trkpt lat="47.57099" lon="-2.89654">
        <time>2014-03-15T09:41:24Z</time>
      </trkpt>
      <trkpt lat="47.57093" lon="-2.89656">
        <time>2014-03-15T09:41:26Z</time>
      </trkpt>
      <trkpt lat="47.57087" lon="-2.89658">
        <time>2014-03-15T09:41:28Z</time>
      </trkpt>
      <trkpt lat="47.57082" lon="-2.89659">
        <time>2014-03-15T09:41:30Z</time>
      </trkpt>
      <trkpt lat="47.57077" lon="-2.89661">
        <time>2014-03-15T09:41:32Z</time>
      </trkpt>
      <trkpt lat="47.57073" lon="-2.89663">
        <time>2014-03-15T09:41:34Z</time>
      </trkpt>
      <trkpt lat="47.57068" lon="-2.89665">
        <time>2014-03-15T09:41:36Z</time>
      </trkpt>
      <trkpt lat="47.57064" lon="-2.89667">
        <time>2014-03-15T09:41:38Z</time>
      </trkpt>
      <trkpt lat="47.57059" lon="-2.8967">
        <time>2014-03-15T09:41:40Z</time>
      </trkpt>
      <trkpt lat="47.57054" lon="-2.89672">
        <time>2014-03-15T09:41:42Z</time>
      </trkpt>
      <trkpt lat="47.57049" lon="-2.89674">
        <time>2014-03-15T09:41:44Z</time>
      </trkpt>
      <trkpt lat="47.57044" lon="-2.89675">
        <time>2014-03-15T09:41:46Z</time>
      </trkpt>
      <trkpt lat="47.57039" lon="-2.89676">
        <time>2014-03-15T09:41:48Z</time>
      </trkpt>
      <trkpt lat="47.57033" lon="-2.89677">
        <time>2014-03-15T09:41:50Z</time>
      </trkpt>
      <trkpt lat="47.57027" lon="-2.89678">
        <time>2014-03-15T09:41:52Z</time>
      </trkpt>
      <trkpt lat="47.57021" lon="-2.8968">
        <time>2014-03-15T09:41:54Z</time>
      </trkpt>
      <trkpt lat="47.57015" lon="-2.89682">
        <time>2014-03-15T09:41:56Z</time>
      </trkpt>
      <trkpt lat="47.5701" lon="-2.89683">
        <time>2014-03-15T09:41:58Z</time>
      </trkpt>
      <trkpt lat="47.57004" lon="-2.89685">
        <time>2014-03-15T09:42:00Z</time>
      </trkpt>
      <trkpt lat="47.56998" lon="-2.89686">
        <time>2014-03-15T09:42:02Z</time>
      </trkpt>
      <trkpt lat="47.56992" lon="-2.89687">
        <time>2014-03-15T09:42:04Z</time>
      </trkpt>
      <trkpt lat="47.56987" lon="-2.89689">
        <time>2014-03-15T09:42:06Z</time>
      </trkpt>
      <trkpt lat="47.56982" lon="-2.89689">
        <time>2014-03-15T09:42:08Z</time>
      </trkpt>
      <trkpt lat="47.56975" lon="-2.89689">
        <time>2014-03-15T09:42:11Z</time>
      </trkpt>
      <trkpt lat="47.56971" lon="-2.89688">
        <time>2014-03-15T09:42:14Z</time>
      </trkpt>
      <trkpt lat="47.56966" lon="-2.89685">
        <time>2014-03-15T09:42:17Z</time>
      </trkpt>
      <trkpt lat="47.56961" lon="-2.89683">
        <time>2014-03-15T09:42:20Z</time>
      </trkpt>
      <trkpt lat="47.56956" lon="-2.89682">
        <time>2014-03-15T09:42:23Z</time>
      </trkpt>
      <trkpt lat="47.56951" lon="-2.8968">
        <time>2014-03-15T09:42:26Z</time>
      </trkpt>
      <trkpt lat="47.56945" lon="-2.8968">
        <time>2014-03-15T09:42:29Z</time>
      </trkpt>
      <trkpt lat="47.56939" lon="-2.89679">
        <time>2014-03-15T09:42:32Z</time>
      </trkpt>
      <trkpt lat="47.56935" lon="-2.89676">
        <time>2014-03-15T09:42:35Z</time>
      </trkpt>
      <trkpt lat="47.5693" lon="-2.8967">
        <time>2014-03-15T09:42:39Z</time>
      </trkpt>
      <trkpt lat="47.56927" lon="-2.89666">
        <time>2014-03-15T09:42:42Z</time>
      </trkpt>
      <trkpt lat="47.56923" lon="-2.89661">
        <time>2014-03-15T09:42:45Z</time>
      </trkpt>
      <trkpt lat="47.5692" lon="-2.89657">
        <time>2014-03-15T09:42:48Z</time>
      </trkpt>
      <trkpt lat="47.56916" lon="-2.89649">
        <time>2014-03-15T09:42:52Z</time>
      </trkpt>
      <trkpt lat="47.56914" lon="-2.89644">
        <time>2014-03-15T09:42:56Z</time>
      </trkpt>
      <trkpt lat="47.56909" lon="-2.89638">
        <time>2014-03-15T09:43:00Z</time>
      </trkpt>
      <trkpt lat="47.56905" lon="-2.89634">
        <time>2014-03-15T09:43:03Z</time>
      </trkpt>
      <trkpt lat="47.56901" lon="-2.89627">
        <time>2014-03-15T09:43:06Z</time>
      </trkpt>
      <trkpt lat="47.56898" lon="-2.8962">
        <time>2014-03-15T09:43:09Z</time>
      </trkpt>
      <trkpt lat="47.56895" lon="-2.89614">
        <time>2014-03-15T09:43:12Z</time>
      </trkpt>
      <trkpt lat="47.56892" lon="-2.89608">
        <time>2014-03-15T09:43:15Z</time>
      </trkpt>
      <trkpt lat="47.56889" lon="-2.89603">
        <ele>1</ele>
        <time>2014-03-15T09:43:18Z</time>
      </trkpt>
      <trkpt lat="47.56886" lon="-2.89596">
        <ele>1</ele>
        <time>2014-03-15T09:43:24Z</time>
      </trkpt>
      <trkpt lat="47.56884" lon="-2.89589">
        <ele>1</ele>
        <time>2014-03-15T09:43:29Z</time>
      </trkpt>
      <trkpt lat="47.56881" lon="-2.89582">
        <time>2014-03-15T09:43:33Z</time>
      </trkpt>
      <trkpt lat="47.56876" lon="-2.89579">
        <time>2014-03-15T09:43:36Z</time>
      </trkpt>
      <trkpt lat="47.56876" lon="-2.89586">
        <ele>1</ele>
        <time>2014-03-15T09:44:01Z</time>
      </trkpt>
      <trkpt lat="47.5688" lon="-2.89589">
        <ele>1</ele>
        <time>2014-03-15T09:44:05Z</time>
      </trkpt>
      <trkpt lat="47.56884" lon="-2.89587">
        <ele>1</ele>
        <time>2014-03-15T09:44:10Z</time>
      </trkpt>
      <trkpt lat="47.56884" lon="-2.8958">
        <time>2014-03-15T09:44:15Z</time>
      </trkpt>
      <trkpt lat="47.56887" lon="-2.89587">
        <ele>1</ele>
        <time>2014-03-15T09:44:31Z</time>
      </trkpt>
      <trkpt lat="47.5689" lon="-2.89592">
        <time>2014-03-15T09:44:35Z</time>
      </trkpt>
      <trkpt lat="47.56893" lon="-2.89598">
        <time>2014-03-15T09:44:43Z</time>
      </trkpt>
      <trkpt lat="47.56896" lon="-2.89604">
        <time>2014-03-15T09:44:49Z</time>
      </trkpt>
      <trkpt lat="47.56896" lon="-2.89612">
        <time>2014-03-15T09:44:57Z</time>
      </trkpt>
      <trkpt lat="47.56897" lon="-2.89619">
        <time>2014-03-15T09:45:02Z</time>
      </trkpt>
      <trkpt lat="47.56897" lon="-2.89626">
        <time>2014-03-15T09:45:06Z</time>
      </trkpt>
      <trkpt lat="47.56897" lon="-2.89633">
        <time>2014-03-15T09:45:10Z</time>
      </trkpt>
      <trkpt lat="47.56897" lon="-2.8964">
        <time>2014-03-15T09:45:15Z</time>
      </trkpt>
      <trkpt lat="47.56897" lon="-2.89648">
        <time>2014-03-15T09:45:25Z</time>
      </trkpt>
      <trkpt lat="47.56897" lon="-2.89656">
        <time>2014-03-15T09:45:30Z</time>
      </trkpt>
      <trkpt lat="47.56896" lon="-2.89663">
        <time>2014-03-15T09:45:35Z</time>
      </trkpt>
      <trkpt lat="47.56894" lon="-2.8967">
        <time>2014-03-15T09:45:41Z</time>
      </trkpt>
      <trkpt lat="47.56893" lon="-2.89677">
        <time>2014-03-15T09:45:48Z</time>
      </trkpt>
      <trkpt lat="47.5689" lon="-2.89682">
        <time>2014-03-15T09:45:55Z</time>
      </trkpt>
      <trkpt lat="47.56887" lon="-2.89688">
        <ele>1.7</ele>
        <time>2014-03-15T09:46:12Z</time>
      </trkpt>
      <trkpt lat="47.56885" lon="-2.89694">
        <ele>1</ele>
        <time>2014-03-15T09:46:29Z</time>
      </trkpt>
      <trkpt lat="47.56882" lon="-2.897">
        <ele>1</ele>
        <time>2014-03-15T09:46:54Z</time>
      </trkpt>
      <trkpt lat="47.56879" lon="-2.89705">
        <ele>1</ele>
        <time>2014-03-15T09:48:52Z</time>
      </trkpt>
      <trkpt lat="47.56878" lon="-2.89712">
        <ele>1</ele>
        <time>2014-03-15T09:49:26Z</time>
      </trkpt>
      <trkpt lat="47.56875" lon="-2.89718">
        <ele>1</ele>
        <time>2014-03-15T09:50:17Z</time>
      </trkpt>
      <trkpt lat="47.56873" lon="-2.89725">
        <time>2014-03-15T09:50:25Z</time>
      </trkpt>
      <trkpt lat="47.56872" lon="-2.89731">
        <time>2014-03-15T09:50:30Z</time>
      </trkpt>
      <trkpt lat="47.5687" lon="-2.89738">
        <time>2014-03-15T09:50:35Z</time>
      </trkpt>
      <trkpt lat="47.56869" lon="-2.89745">
        <time>2014-03-15T09:50:40Z</time>
      </trkpt>
      <trkpt lat="47.56868" lon="-2.89752">
        <time>2014-03-15T09:50:46Z</time>
      </trkpt>
      <trkpt lat="47.56867" lon="-2.89758">
        <time>2014-03-15T09:50:52Z</time>
      </trkpt>
      <trkpt lat="47.56866" lon="-2.89765">
        <time>2014-03-15T09:51:02Z</time>
      </trkpt>
      <trkpt lat="47.56865" lon="-2.89772">
        <time>2014-03-15T09:51:09Z</time>
      </trkpt>
      <trkpt lat="47.56864" lon="-2.89779">
        <time>2014-03-15T09:51:13Z</time>
      </trkpt>
      <trkpt lat="47.56862" lon="-2.89785">
        <time>2014-03-15T09:51:17Z</time>
      </trkpt>
      <trkpt lat="47.5686" lon="-2.89792">
        <ele>2</ele>
        <time>2014-03-15T09:51:21Z</time>
      </trkpt>
      <trkpt lat="47.56859" lon="-2.89799">
        <ele>2</ele>
        <time>2014-03-15T09:51:25Z</time>
      </trkpt>
      <trkpt lat="47.56857" lon="-2.89807">
        <time>2014-03-15T09:51:28Z</time>
      </trkpt>
      <trkpt lat="47.56856" lon="-2.89815">
        <time>2014-03-15T09:51:31Z</time>
      </trkpt>
      <trkpt lat="47.56854" lon="-2.89823">
        <time>2014-03-15T09:51:34Z</time>
      </trkpt>
      <trkpt lat="47.5685" lon="-2.89829">
        <time>2014-03-15T09:51:37Z</time>
      </trkpt>
      <trkpt lat="47.56847" lon="-2.89834">
        <time>2014-03-15T09:51:40Z</time>
      </trkpt>
      <trkpt lat="47.56844" lon="-2.89838">
        <time>2014-03-15T09:51:43Z</time>
      </trkpt>
      <trkpt lat="47.56839" lon="-2.89841">
        <time>2014-03-15T09:51:46Z</time>
      </trkpt>
      <trkpt lat="47.56834" lon="-2.89841">
        <time>2014-03-15T09:51:50Z</time>
      </trkpt>
      <trkpt lat="47.5683" lon="-2.89838">
        <time>2014-03-15T09:51:56Z</time>
      </trkpt>
      <trkpt lat="47.56826" lon="-2.89834">
        <time>2014-03-15T09:53:31Z</time>
      </trkpt>
      <trkpt lat="47.56821" lon="-2.89835">
        <time>2014-03-15T09:53:45Z</time>
      </trkpt>
      <trkpt lat="47.56815" lon="-2.89837">
        <time>2014-03-15T09:53:50Z</time>
      </trkpt>
      <trkpt lat="47.5681" lon="-2.8984">
        <time>2014-03-15T09:53:54Z</time>
      </trkpt>
      <trkpt lat="47.56806" lon="-2.89843">
        <time>2014-03-15T09:53:57Z</time>
      </trkpt>
      <trkpt lat="47.56802" lon="-2.89847">
        <time>2014-03-15T09:54:00Z</time>
      </trkpt>
      <trkpt lat="47.56798" lon="-2.89852">
        <time>2014-03-15T09:54:03Z</time>
      </trkpt>
      <trkpt lat="47.56794" lon="-2.89856">
        <time>2014-03-15T09:54:06Z</time>
      </trkpt>
      <trkpt lat="47.5679" lon="-2.89861">
        <time>2014-03-15T09:54:09Z</time>
      </trkpt>
      <trkpt lat="47.56786" lon="-2.89865">
        <time>2014-03-15T09:54:12Z</time>
      </trkpt>
      <trkpt lat="47.56782" lon="-2.8987">
        <time>2014-03-15T09:54:15Z</time>
      </trkpt>
      <trkpt lat="47.56778" lon="-2.89874">
        <time>2014-03-15T09:54:18Z</time>
      </trkpt>
      <trkpt lat="47.56773" lon="-2.89878">
        <time>2014-03-15T09:54:21Z</time>
      </trkpt>
      <trkpt lat="47.56769" lon="-2.89881">
        <time>2014-03-15T09:54:24Z</time>
      </trkpt>
      <trkpt lat="47.56765" lon="-2.89885">
        <time>2014-03-15T09:54:27Z</time>
      </trkpt>
      <trkpt lat="47.56761" lon="-2.89889">
        <time>2014-03-15T09:54:30Z</time>
      </trkpt>
      <trkpt lat="47.56757" lon="-2.89894">
        <time>2014-03-15T09:54:33Z</time>
      </trkpt>
      <trkpt lat="47.56753" lon="-2.89897">
        <time>2014-03-15T09:54:36Z</time>
      </trkpt>
      <trkpt lat="47.56749" lon="-2.89901">
        <time>2014-03-15T09:54:39Z</time>
      </trkpt>
      <trkpt lat="47.56745" lon="-2.89904">
        <time>2014-03-15T09:54:42Z</time>
      </trkpt>
      <trkpt lat="47.56741" lon="-2.89908">
        <time>2014-03-15T09:54:45Z</time>
      </trkpt>
      <trkpt lat="47.56737" lon="-2.89912">
        <time>2014-03-15T09:54:48Z</time>
      </trkpt>
      <trkpt lat="47.56732" lon="-2.89917">
        <time>2014-03-15T09:54:52Z</time>
      </trkpt>
      <trkpt lat="47.56728" lon="-2.89922">
        <time>2014-03-15T09:54:56Z</time>
      </trkpt>
      <trkpt lat="47.56724" lon="-2.89926">
        <time>2014-03-15T09:55:00Z</time>
      </trkpt>
      <trkpt lat="47.56719" lon="-2.89929">
        <time>2014-03-15T09:55:04Z</time>
      </trkpt>
      <trkpt lat="47.56714" lon="-2.89933">
        <time>2014-03-15T09:55:08Z</time>
      </trkpt>
      <trkpt lat="47.56709" lon="-2.89934">
        <time>2014-03-15T09:55:12Z</time>
      </trkpt>
      <trkpt lat="47.56704" lon="-2.89935">
        <time>2014-03-15T09:55:16Z</time>
      </trkpt>
      <trkpt lat="47.56699" lon="-2.89936">
        <time>2014-03-15T09:55:20Z</time>
      </trkpt>
      <trkpt lat="47.56695" lon="-2.89939">
        <time>2014-03-15T09:55:24Z</time>
      </trkpt>
      <trkpt lat="47.56691" lon="-2.89942">
        <time>2014-03-15T09:55:28Z</time>
      </trkpt>
      <trkpt lat="47.56687" lon="-2.89946">
        <time>2014-03-15T09:55:32Z</time>
      </trkpt>
      <trkpt lat="47.56683" lon="-2.89952">
        <time>2014-03-15T09:55:36Z</time>
      </trkpt>
      <trkpt lat="47.56679" lon="-2.89959">
        <time>2014-03-15T09:55:40Z</time>
      </trkpt>
      <trkpt lat="47.56677" lon="-2.89966">
        <time>2014-03-15T09:55:43Z</time>
      </trkpt>
      <trkpt lat="47.56674" lon="-2.89973">
        <time>2014-03-15T09:55:46Z</time>
      </trkpt>
      <trkpt lat="47.56671" lon="-2.89981">
        <time>2014-03-15T09:55:49Z</time>
      </trkpt>
      <trkpt lat="47.56669" lon="-2.89988">
        <time>2014-03-15T09:55:52Z</time>
      </trkpt>
      <trkpt lat="47.56666" lon="-2.89994">
        <time>2014-03-15T09:55:55Z</time>
      </trkpt>
      <trkpt lat="47.56664" lon="-2.9">
        <time>2014-03-15T09:55:58Z</time>
      </trkpt>
      <trkpt lat="47.56661" lon="-2.90007">
        <time>2014-03-15T09:56:02Z</time>
      </trkpt>
      <trkpt lat="47.56658" lon="-2.90014">
        <time>2014-03-15T09:56:06Z</time>
      </trkpt>
      <trkpt lat="47.56655" lon="-2.90021">
        <time>2014-03-15T09:56:10Z</time>
      </trkpt>
      <trkpt lat="47.56653" lon="-2.90028">
        <time>2014-03-15T09:56:14Z</time>
      </trkpt>
      <trkpt lat="47.56651" lon="-2.90035">
        <time>2014-03-15T09:56:19Z</time>
      </trkpt>
      <trkpt lat="47.5665" lon="-2.90042">
        <time>2014-03-15T09:56:24Z</time>
      </trkpt>
      <trkpt lat="47.56649" lon="-2.90049">
        <time>2014-03-15T09:56:29Z</time>
      </trkpt>
      <trkpt lat="47.56648" lon="-2.90056">
        <time>2014-03-15T09:56:34Z</time>
      </trkpt>
      <trkpt lat="47.56646" lon="-2.90063">
        <time>2014-03-15T09:56:39Z</time>
      </trkpt>
      <trkpt lat="47.56644" lon="-2.9007">
        <time>2014-03-15T09:56:44Z</time>
      </trkpt>
      <trkpt lat="47.56643" lon="-2.90076">
        <time>2014-03-15T09:56:48Z</time>
      </trkpt>
      <trkpt lat="47.56642" lon="-2.90083">
        <time>2014-03-15T09:56:52Z</time>
      </trkpt>
      <trkpt lat="47.5664" lon="-2.90091">
        <time>2014-03-15T09:56:56Z</time>
      </trkpt>
      <trkpt lat="47.56638" lon="-2.90099">
        <time>2014-03-15T09:57:00Z</time>
      </trkpt>
      <trkpt lat="47.56636" lon="-2.90106">
        <time>2014-03-15T09:57:04Z</time>
      </trkpt>
      <trkpt lat="47.56635" lon="-2.90114">
        <time>2014-03-15T09:57:08Z</time>
      </trkpt>
      <trkpt lat="47.56634" lon="-2.90121">
        <time>2014-03-15T09:57:12Z</time>
      </trkpt>
      <trkpt lat="47.56633" lon="-2.90128">
        <time>2014-03-15T09:57:17Z</time>
      </trkpt>
      <trkpt lat="47.5663" lon="-2.90136">
        <time>2014-03-15T09:57:22Z</time>
      </trkpt>
      <trkpt lat="47.56628" lon="-2.90143">
        <time>2014-03-15T09:57:26Z</time>
      </trkpt>
      <trkpt lat="47.56627" lon="-2.9015">
        <time>2014-03-15T09:57:29Z</time>
      </trkpt>
      <trkpt lat="47.56624" lon="-2.90158">
        <time>2014-03-15T09:57:32Z</time>
      </trkpt>
      <trkpt lat="47.56621" lon="-2.90166">
        <time>2014-03-15T09:57:35Z</time>
      </trkpt>
      <trkpt lat="47.56618" lon="-2.90172">
        <time>2014-03-15T09:57:37Z</time>
      </trkpt>
      <trkpt lat="47.56614" lon="-2.90179">
        <time>2014-03-15T09:57:40Z</time>
      </trkpt>
      <trkpt lat="47.5661" lon="-2.90186">
        <time>2014-03-15T09:57:43Z</time>
      </trkpt>
      <trkpt lat="47.56607" lon="-2.90193">
        <time>2014-03-15T09:57:46Z</time>
      </trkpt>
      <trkpt lat="47.56604" lon="-2.902">
        <time>2014-03-15T09:57:49Z</time>
      </trkpt>
      <trkpt lat="47.566" lon="-2.90207">
        <time>2014-03-15T09:57:52Z</time>
      </trkpt>
      <trkpt lat="47.56597" lon="-2.90213">
        <time>2014-03-15T09:57:55Z</time>
      </trkpt>
      <trkpt lat="47.56593" lon="-2.90219">
        <time>2014-03-15T09:57:58Z</time>
      </trkpt>
      <trkpt lat="47.56589" lon="-2.90224">
        <time>2014-03-15T09:58:01Z</time>
      </trkpt>
      <trkpt lat="47.56585" lon="-2.9023">
        <time>2014-03-15T09:58:04Z</time>
      </trkpt>
      <trkpt lat="47.56583" lon="-2.90239">
        <time>2014-03-15T09:58:07Z</time>
      </trkpt>
      <trkpt lat="47.56581" lon="-2.90248">
        <time>2014-03-15T09:58:10Z</time>
      </trkpt>
      <trkpt lat="47.56579" lon="-2.90257">
        <time>2014-03-15T09:58:13Z</time>
      </trkpt>
      <trkpt lat="47.56577" lon="-2.90265">
        <time>2014-03-15T09:58:16Z</time>
      </trkpt>
      <trkpt lat="47.56575" lon="-2.90272">
        <time>2014-03-15T09:58:19Z</time>
      </trkpt>
      <trkpt lat="47.56573" lon="-2.90279">
        <time>2014-03-15T09:58:22Z</time>
      </trkpt>
      <trkpt lat="47.56571" lon="-2.90287">
        <time>2014-03-15T09:58:25Z</time>
      </trkpt>
      <trkpt lat="47.56568" lon="-2.90294">
        <time>2014-03-15T09:58:28Z</time>
      </trkpt>
      <trkpt lat="47.56565" lon="-2.903">
        <time>2014-03-15T09:58:30Z</time>
      </trkpt>
      <trkpt lat="47.56563" lon="-2.90306">
        <time>2014-03-15T09:58:32Z</time>
      </trkpt>
      <trkpt lat="47.56559" lon="-2.90311">
        <time>2014-03-15T09:58:34Z</time>
      </trkpt>
      <trkpt lat="47.56556" lon="-2.90317">
        <time>2014-03-15T09:58:36Z</time>
      </trkpt>
      <trkpt lat="47.56552" lon="-2.90323">
        <time>2014-03-15T09:58:38Z</time>
      </trkpt>
      <trkpt lat="47.56549" lon="-2.90328">
        <time>2014-03-15T09:58:40Z</time>
      </trkpt>
      <trkpt lat="47.56546" lon="-2.90333">
        <time>2014-03-15T09:58:42Z</time>
      </trkpt>
      <trkpt lat="47.56543" lon="-2.90338">
        <time>2014-03-15T09:58:44Z</time>
      </trkpt>
      <trkpt lat="47.56538" lon="-2.90344">
        <time>2014-03-15T09:58:47Z</time>
      </trkpt>
      <trkpt lat="47.56535" lon="-2.90349">
        <time>2014-03-15T09:58:49Z</time>
      </trkpt>
      <trkpt lat="47.56531" lon="-2.90354">
        <time>2014-03-15T09:58:51Z</time>
      </trkpt>
      <trkpt lat="47.56528" lon="-2.90359">
        <time>2014-03-15T09:58:53Z</time>
      </trkpt>
      <trkpt lat="47.56525" lon="-2.90364">
        <time>2014-03-15T09:58:55Z</time>
      </trkpt>
      <trkpt lat="47.56521" lon="-2.90371">
        <time>2014-03-15T09:58:58Z</time>
      </trkpt>
      <trkpt lat="47.56518" lon="-2.90376">
        <time>2014-03-15T09:59:00Z</time>
      </trkpt>
      <trkpt lat="47.56514" lon="-2.9038">
        <time>2014-03-15T09:59:02Z</time>
      </trkpt>
      <trkpt lat="47.5651" lon="-2.90388">
        <time>2014-03-15T09:59:05Z</time>
      </trkpt>
      <trkpt lat="47.56506" lon="-2.90393">
        <time>2014-03-15T09:59:07Z</time>
      </trkpt>
      <trkpt lat="47.56503" lon="-2.90398">
        <time>2014-03-15T09:59:09Z</time>
      </trkpt>
      <trkpt lat="47.565" lon="-2.90403">
        <time>2014-03-15T09:59:11Z</time>
      </trkpt>
      <trkpt lat="47.56496" lon="-2.90408">
        <time>2014-03-15T09:59:13Z</time>
      </trkpt>
      <trkpt lat="47.56493" lon="-2.90413">
        <time>2014-03-15T09:59:15Z</time>
      </trkpt>
      <trkpt lat="47.56489" lon="-2.90419">
        <time>2014-03-15T09:59:17Z</time>
      </trkpt>
      <trkpt lat="47.56486" lon="-2.90424">
        <time>2014-03-15T09:59:19Z</time>
      </trkpt>
      <trkpt lat="47.56483" lon="-2.9043">
        <time>2014-03-15T09:59:21Z</time>
      </trkpt>
      <trkpt lat="47.56479" lon="-2.90435">
        <time>2014-03-15T09:59:23Z</time>
      </trkpt>
      <trkpt lat="47.56476" lon="-2.90441">
        <time>2014-03-15T09:59:25Z</time>
      </trkpt>
      <trkpt lat="47.56472" lon="-2.90446">
        <time>2014-03-15T09:59:27Z</time>
      </trkpt>
      <trkpt lat="47.56469" lon="-2.90451">
        <time>2014-03-15T09:59:29Z</time>
      </trkpt>
      <trkpt lat="47.56466" lon="-2.90457">
        <time>2014-03-15T09:59:31Z</time>
      </trkpt>
      <trkpt lat="47.56462" lon="-2.90462">
        <time>2014-03-15T09:59:33Z</time>
      </trkpt>
      <trkpt lat="47.56459" lon="-2.90468">
        <time>2014-03-15T09:59:35Z</time>
      </trkpt>
      <trkpt lat="47.56456" lon="-2.90474">
        <time>2014-03-15T09:59:37Z</time>
      </trkpt>
      <trkpt lat="47.56453" lon="-2.9048">
        <time>2014-03-15T09:59:39Z</time>
      </trkpt>
      <trkpt lat="47.5645" lon="-2.90487">
        <time>2014-03-15T09:59:41Z</time>
      </trkpt>
      <trkpt lat="47.56446" lon="-2.90493">
        <time>2014-03-15T09:59:43Z</time>
      </trkpt>
      <trkpt lat="47.56443" lon="-2.90501">
        <time>2014-03-15T09:59:45Z</time>
      </trkpt>
      <trkpt lat="47.56439" lon="-2.90509">
        <time>2014-03-15T09:59:47Z</time>
      </trkpt>
      <trkpt lat="47.56435" lon="-2.90517">
        <time>2014-03-15T09:59:49Z</time>
      </trkpt>
      <trkpt lat="47.5643" lon="-2.90525">
        <time>2014-03-15T09:59:51Z</time>
      </trkpt>
      <trkpt lat="47.56426" lon="-2.90534">
        <time>2014-03-15T09:59:53Z</time>
      </trkpt>
      <trkpt lat="47.56423" lon="-2.90542">
        <time>2014-03-15T09:59:55Z</time>
      </trkpt>
      <trkpt lat="47.56419" lon="-2.9055">
        <time>2014-03-15T09:59:57Z</time>
      </trkpt>
      <trkpt lat="47.56416" lon="-2.90558">
        <time>2014-03-15T09:59:59Z</time>
      </trkpt>
      <trkpt lat="47.56413" lon="-2.90566">
        <time>2014-03-15T10:00:01Z</time>
      </trkpt>
      <trkpt lat="47.5641" lon="-2.90573">
        <time>2014-03-15T10:00:03Z</time>
      </trkpt>
      <trkpt lat="47.56407" lon="-2.9058">
        <time>2014-03-15T10:00:05Z</time>
      </trkpt>
      <trkpt lat="47.56405" lon="-2.90587">
        <time>2014-03-15T10:00:07Z</time>
      </trkpt>
      <trkpt lat="47.56402" lon="-2.90595">
        <time>2014-03-15T10:00:09Z</time>
      </trkpt>
      <trkpt lat="47.564" lon="-2.90602">
        <time>2014-03-15T10:00:11Z</time>
      </trkpt>
      <trkpt lat="47.56398" lon="-2.90609">
        <time>2014-03-15T10:00:13Z</time>
      </trkpt>
      <trkpt lat="47.56397" lon="-2.90617">
        <time>2014-03-15T10:00:15Z</time>
      </trkpt>
      <trkpt lat="47.56395" lon="-2.90624">
        <time>2014-03-15T10:00:17Z</time>
      </trkpt>
      <trkpt lat="47.56394" lon="-2.90631">
        <time>2014-03-15T10:00:19Z</time>
      </trkpt>
      <trkpt lat="47.56392" lon="-2.90641">
        <time>2014-03-15T10:00:22Z</time>
      </trkpt>
      <trkpt lat="47.56391" lon="-2.90649">
        <time>2014-03-15T10:00:25Z</time>
      </trkpt>
      <trkpt lat="47.56389" lon="-2.90658">
        <time>2014-03-15T10:00:28Z</time>
      </trkpt>
      <trkpt lat="47.56386" lon="-2.90667">
        <time>2014-03-15T10:00:31Z</time>
      </trkpt>
      <trkpt lat="47.56384" lon="-2.90674">
        <time>2014-03-15T10:00:33Z</time>
      </trkpt>
      <trkpt lat="47.56381" lon="-2.90682">
        <time>2014-03-15T10:00:36Z</time>
      </trkpt>
      <trkpt lat="47.56377" lon="-2.90689">
        <time>2014-03-15T10:00:39Z</time>
      </trkpt>
      <trkpt lat="47.56373" lon="-2.90696">
        <time>2014-03-15T10:00:42Z</time>
      </trkpt>
      <trkpt lat="47.56369" lon="-2.90703">
        <time>2014-03-15T10:00:45Z</time>
      </trkpt>
      <trkpt lat="47.56366" lon="-2.9071">
        <time>2014-03-15T10:00:48Z</time>
      </trkpt>
      <trkpt lat="47.56362" lon="-2.90716">
        <time>2014-03-15T10:00:51Z</time>
      </trkpt>
      <trkpt lat="47.5636" lon="-2.90722">
        <time>2014-03-15T10:00:54Z</time>
      </trkpt>
      <trkpt lat="47.56357" lon="-2.90728">
        <time>2014-03-15T10:00:57Z</time>
      </trkpt>
      <trkpt lat="47.56356" lon="-2.90736">
        <time>2014-03-15T10:01:00Z</time>
      </trkpt>
      <trkpt lat="47.56355" lon="-2.90743">
        <time>2014-03-15T10:01:03Z</time>
      </trkpt>
      <trkpt lat="47.56355" lon="-2.9075">
        <time>2014-03-15T10:01:06Z</time>
      </trkpt>
      <trkpt lat="47.5635" lon="-2.90747">
        <time>2014-03-15T10:01:18Z</time>
      </trkpt>
      <trkpt lat="47.56348" lon="-2.90741">
        <time>2014-03-15T10:01:23Z</time>
      </trkpt>
      <trkpt lat="47.56345" lon="-2.90735">
        <time>2014-03-15T10:01:31Z</time>
      </trkpt>
      <trkpt lat="47.56347" lon="-2.90741">
        <time>2014-03-15T10:01:56Z</time>
      </trkpt>
      <trkpt lat="47.56348" lon="-2.90748">
        <time>2014-03-15T10:02:30Z</time>
      </trkpt>
      <trkpt lat="47.56349" lon="-2.90755">
        <time>2014-03-15T10:02:36Z</time>
      </trkpt>
      <trkpt lat="47.5635" lon="-2.90762">
        <time>2014-03-15T10:02:41Z</time>
      </trkpt>
      <trkpt lat="47.56351" lon="-2.90769">
        <time>2014-03-15T10:02:46Z</time>
      </trkpt>
      <trkpt lat="47.56353" lon="-2.90775">
        <time>2014-03-15T10:02:52Z</time>
      </trkpt>
      <trkpt lat="47.56354" lon="-2.90782">
        <time>2014-03-15T10:02:59Z</time>
      </trkpt>
      <trkpt lat="47.56351" lon="-2.90776">
        <time>2014-03-15T10:03:06Z</time>
      </trkpt>
      <trkpt lat="47.56349" lon="-2.90767">
        <time>2014-03-15T10:03:09Z</time>
      </trkpt>
      <trkpt lat="47.56348" lon="-2.90759">
        <time>2014-03-15T10:03:12Z</time>
      </trkpt>
      <trkpt lat="47.56347" lon="-2.90751">
        <time>2014-03-15T10:03:16Z</time>
      </trkpt>
      <trkpt lat="47.56345" lon="-2.90744">
        <time>2014-03-15T10:03:20Z</time>
      </trkpt>
      <trkpt lat="47.56347" lon="-2.90751">
        <time>2014-03-15T10:03:35Z</time>
      </trkpt>
      <trkpt lat="47.5635" lon="-2.90758">
        <time>2014-03-15T10:03:39Z</time>
      </trkpt>
      <trkpt lat="47.56352" lon="-2.90764">
        <time>2014-03-15T10:03:42Z</time>
      </trkpt>
      <trkpt lat="47.56354" lon="-2.90771">
        <time>2014-03-15T10:03:45Z</time>
      </trkpt>
      <trkpt lat="47.56355" lon="-2.90778">
        <time>2014-03-15T10:03:48Z</time>
      </trkpt>
      <trkpt lat="47.56356" lon="-2.90785">
        <time>2014-03-15T10:03:52Z</time>
      </trkpt>
      <trkpt lat="47.56357" lon="-2.90793">
        <time>2014-03-15T10:03:57Z</time>
      </trkpt>
      <trkpt lat="47.56357" lon="-2.908">
        <time>2014-03-15T10:04:02Z</time>
      </trkpt>
      <trkpt lat="47.56356" lon="-2.90807">
        <time>2014-03-15T10:04:09Z</time>
      </trkpt>
      <trkpt lat="47.56355" lon="-2.908">
        <time>2014-03-15T10:04:55Z</time>
      </trkpt>
      <trkpt lat="47.56351" lon="-2.90802">
        <time>2014-03-15T10:07:58Z</time>
      </trkpt>
      <trkpt lat="47.56347" lon="-2.90803">
        <time>2014-03-15T10:08:34Z</time>
      </trkpt>
      <trkpt lat="47.56342" lon="-2.90806">
        <time>2014-03-15T10:09:53Z</time>
      </trkpt>
      <trkpt lat="47.56339" lon="-2.9081">
        <time>2014-03-15T10:09:58Z</time>
      </trkpt>
      <trkpt lat="47.56334" lon="-2.90813">
        <time>2014-03-15T10:10:02Z</time>
      </trkpt>
      <trkpt lat="47.5633" lon="-2.90816">
        <ele>5</ele>
        <time>2014-03-15T10:10:06Z</time>
      </trkpt>
      <trkpt lat="47.56325" lon="-2.90819">
        <ele>5</ele>
        <time>2014-03-15T10:10:11Z</time>
      </trkpt>
      <trkpt lat="47.5632" lon="-2.90822">
        <ele>5</ele>
        <time>2014-03-15T10:10:16Z</time>
      </trkpt>
      <trkpt lat="47.56316" lon="-2.90825">
        <ele>5</ele>
        <time>2014-03-15T10:10:20Z</time>
      </trkpt>
      <trkpt lat="47.56312" lon="-2.90828">
        <ele>5</ele>
        <time>2014-03-15T10:10:24Z</time>
      </trkpt>
      <trkpt lat="47.56307" lon="-2.90831">
        <ele>5</ele>
        <time>2014-03-15T10:10:30Z</time>
      </trkpt>
      <trkpt lat="47.56302" lon="-2.90833">
        <ele>5</ele>
        <time>2014-03-15T10:10:34Z</time>
      </trkpt>
      <trkpt lat="47.56298" lon="-2.90835">
        <time>2014-03-15T10:10:43Z</time>
      </trkpt>
      <trkpt lat="47.56293" lon="-2.90836">
        <time>2014-03-15T10:10:48Z</time>
      </trkpt>
      <trkpt lat="47.56288" lon="-2.90838">
        <time>2014-03-15T10:10:53Z</time>
      </trkpt>
      <trkpt lat="47.56283" lon="-2.9084">
        <time>2014-03-15T10:10:58Z</time>
      </trkpt>
      <trkpt lat="47.56278" lon="-2.90842">
        <time>2014-03-15T10:11:03Z</time>
      </trkpt>
      <trkpt lat="47.56273" lon="-2.90843">
        <time>2014-03-15T10:11:08Z</time>
      </trkpt>
      <trkpt lat="47.56269" lon="-2.90845">
        <time>2014-03-15T10:11:15Z</time>
      </trkpt>
      <trkpt lat="47.56264" lon="-2.90847">
        <time>2014-03-15T10:11:21Z</time>
      </trkpt>
      <trkpt lat="47.5626" lon="-2.9085">
        <time>2014-03-15T10:11:29Z</time>
      </trkpt>
      <trkpt lat="47.56255" lon="-2.90852">
        <time>2014-03-15T10:11:38Z</time>
      </trkpt>
      <trkpt lat="47.56251" lon="-2.90854">
        <time>2014-03-15T10:11:46Z</time>
      </trkpt>
      <trkpt lat="47.56248" lon="-2.90859">
        <ele>5</ele>
        <time>2014-03-15T10:12:02Z</time>
      </trkpt>
      <trkpt lat="47.56252" lon="-2.90858">
        <time>2014-03-15T10:13:19Z</time>
      </trkpt>
      <trkpt lat="47.56256" lon="-2.90862">
        <time>2014-03-15T10:13:32Z</time>
      </trkpt>
      <trkpt lat="47.56261" lon="-2.90865">
        <time>2014-03-15T10:13:39Z</time>
      </trkpt>
      <trkpt lat="47.56265" lon="-2.90866">
        <time>2014-03-15T10:13:52Z</time>
      </trkpt>
      <trkpt lat="47.56269" lon="-2.90863">
        <time>2014-03-15T10:14:32Z</time>
      </trkpt>
      <trkpt lat="47.56273" lon="-2.90858">
        <time>2014-03-15T10:14:41Z</time>
      </trkpt>
      <trkpt lat="47.56277" lon="-2.90854">
        <time>2014-03-15T10:14:50Z</time>
      </trkpt>
      <trkpt lat="47.56272" lon="-2.90856">
        <time>2014-03-15T10:15:36Z</time>
      </trkpt>
      <trkpt lat="47.56267" lon="-2.90857">
        <time>2014-03-15T10:15:40Z</time>
      </trkpt>
      <trkpt lat="47.56262" lon="-2.90857">
        <time>2014-03-15T10:15:44Z</time>
      </trkpt>
      <trkpt lat="47.56256" lon="-2.90856">
        <time>2014-03-15T10:15:49Z</time>
      </trkpt>
      <trkpt lat="47.56251" lon="-2.90856">
        <time>2014-03-15T10:15:53Z</time>
      </trkpt>
      <trkpt lat="47.56246" lon="-2.90857">
        <ele>5</ele>
        <time>2014-03-15T10:15:56Z</time>
      </trkpt>
      <trkpt lat="47.56241" lon="-2.90858">
        <ele>5</ele>
        <time>2014-03-15T10:16:02Z</time>
      </trkpt>
      <trkpt lat="47.56236" lon="-2.90859">
        <ele>5</ele>
        <time>2014-03-15T10:16:06Z</time>
      </trkpt>
      <trkpt lat="47.56231" lon="-2.90859">
        <ele>5</ele>
        <time>2014-03-15T10:16:12Z</time>
      </trkpt>
      <trkpt lat="47.56226" lon="-2.90859">
        <ele>5</ele>
        <time>2014-03-15T10:16:17Z</time>
      </trkpt>
      <trkpt lat="47.56221" lon="-2.9086">
        <ele>5</ele>
        <time>2014-03-15T10:16:22Z</time>
      </trkpt>
      <trkpt lat="47.56216" lon="-2.90862">
        <ele>5</ele>
        <time>2014-03-15T10:16:27Z</time>
      </trkpt>
      <trkpt lat="47.56211" lon="-2.90864">
        <ele>5</ele>
        <time>2014-03-15T10:16:32Z</time>
      </trkpt>
      <trkpt lat="47.56206" lon="-2.90865">
        <ele>5</ele>
        <time>2014-03-15T10:16:40Z</time>
      </trkpt>
      <trkpt lat="47.56202" lon="-2.90865">
        <ele>5</ele>
        <time>2014-03-15T10:16:48Z</time>
      </trkpt>
      <trkpt lat="47.56197" lon="-2.90865">
        <ele>5</ele>
        <time>2014-03-15T10:16:58Z</time>
      </trkpt>
      <trkpt lat="47.56193" lon="-2.90868">
        <ele>5</ele>
        <time>2014-03-15T10:17:03Z</time>
      </trkpt>
      <trkpt lat="47.56188" lon="-2.9087">
        <ele>5</ele>
        <time>2014-03-15T10:17:13Z</time>
      </trkpt>
      <trkpt lat="47.56184" lon="-2.90873">
        <ele>5</ele>
        <time>2014-03-15T10:18:12Z</time>
      </trkpt>
      <trkpt lat="47.56181" lon="-2.90878">
        <ele>5</ele>
        <time>2014-03-15T10:21:42Z</time>
      </trkpt>
      <trkpt lat="47.56185" lon="-2.90881">
        <ele>5</ele>
        <time>2014-03-15T10:23:48Z</time>
      </trkpt>
      <trkpt lat="47.56189" lon="-2.90878">
        <ele>5</ele>
        <time>2014-03-15T10:24:31Z</time>
      </trkpt>
      <trkpt lat="47.56195" lon="-2.9088">
        <ele>5</ele>
        <time>2014-03-15T10:28:16Z</time>
      </trkpt>
      <trkpt lat="47.56201" lon="-2.90878">
        <ele>5</ele>
        <time>2014-03-15T10:28:20Z</time>
      </trkpt>
      <trkpt lat="47.56206" lon="-2.90877">
        <ele>5</ele>
        <time>2014-03-15T10:28:24Z</time>
      </trkpt>
      <trkpt lat="47.56213" lon="-2.90876">
        <ele>5</ele>
        <time>2014-03-15T10:28:26Z</time>
      </trkpt>
      <trkpt lat="47.56219" lon="-2.90874">
        <ele>5</ele>
        <time>2014-03-15T10:28:29Z</time>
      </trkpt>
      <trkpt lat="47.56225" lon="-2.90873">
        <ele>5</ele>
        <time>2014-03-15T10:28:32Z</time>
      </trkpt>
      <trkpt lat="47.56232" lon="-2.90872">
        <ele>5</ele>
        <time>2014-03-15T10:28:35Z</time>
      </trkpt>
      <trkpt lat="47.56238" lon="-2.9087">
        <ele>5</ele>
        <time>2014-03-15T10:28:38Z</time>
      </trkpt>
      <trkpt lat="47.56244" lon="-2.90868">
        <ele>5</ele>
        <time>2014-03-15T10:28:41Z</time>
      </trkpt>
      <trkpt lat="47.56251" lon="-2.90866">
        <time>2014-03-15T10:28:44Z</time>
      </trkpt>
      <trkpt lat="47.56257" lon="-2.90865">
        <time>2014-03-15T10:28:47Z</time>
      </trkpt>
      <trkpt lat="47.56264" lon="-2.90863">
        <time>2014-03-15T10:28:50Z</time>
      </trkpt>
      <trkpt lat="47.5627" lon="-2.90863">
        <time>2014-03-15T10:28:53Z</time>
      </trkpt>
      <trkpt lat="47.56276" lon="-2.90862">
        <time>2014-03-15T10:28:56Z</time>
      </trkpt>
      <trkpt lat="47.56282" lon="-2.90861">
        <time>2014-03-15T10:29:00Z</time>
      </trkpt>
      <trkpt lat="47.56288" lon="-2.9086">
        <time>2014-03-15T10:29:02Z</time>
      </trkpt>
      <trkpt lat="47.56294" lon="-2.90859">
        <time>2014-03-15T10:29:05Z</time>
      </trkpt>
      <trkpt lat="47.56299" lon="-2.90858">
        <time>2014-03-15T10:29:09Z</time>
      </trkpt>
      <trkpt lat="47.56304" lon="-2.90854">
        <time>2014-03-15T10:29:13Z</time>
      </trkpt>
      <trkpt lat="47.56309" lon="-2.90851">
        <time>2014-03-15T10:29:16Z</time>
      </trkpt>
      <trkpt lat="47.56313" lon="-2.90847">
        <time>2014-03-15T10:29:20Z</time>
      </trkpt>
      <trkpt lat="47.56317" lon="-2.90844">
        <time>2014-03-15T10:29:24Z</time>
      </trkpt>
      <trkpt lat="47.56321" lon="-2.90841">
        <time>2014-03-15T10:29:28Z</time>
      </trkpt>
      <trkpt lat="47.56326" lon="-2.90839">
        <time>2014-03-15T10:29:32Z</time>
      </trkpt>
      <trkpt lat="47.5633" lon="-2.90836">
        <time>2014-03-15T10:29:36Z</time>
      </trkpt>
      <trkpt lat="47.56335" lon="-2.90833">
        <time>2014-03-15T10:29:40Z</time>
      </trkpt>
      <trkpt lat="47.56339" lon="-2.90831">
        <time>2014-03-15T10:29:45Z</time>
      </trkpt>
      <trkpt lat="47.56344" lon="-2.90829">
        <time>2014-03-15T10:29:49Z</time>
      </trkpt>
      <trkpt lat="47.56348" lon="-2.90828">
        <time>2014-03-15T10:29:52Z</time>
      </trkpt>
      <trkpt lat="47.56354" lon="-2.90826">
        <time>2014-03-15T10:29:56Z</time>
      </trkpt>
      <trkpt lat="47.56359" lon="-2.90826">
        <time>2014-03-15T10:29:59Z</time>
      </trkpt>
      <trkpt lat="47.56363" lon="-2.90827">
        <time>2014-03-15T10:30:02Z</time>
      </trkpt>
      <trkpt lat="47.56368" lon="-2.9083">
        <time>2014-03-15T10:30:05Z</time>
      </trkpt>
      <trkpt lat="47.56372" lon="-2.90837">
        <time>2014-03-15T10:30:08Z</time>
      </trkpt>
      <trkpt lat="47.56375" lon="-2.90842">
        <time>2014-03-15T10:30:10Z</time>
      </trkpt>
      <trkpt lat="47.56379" lon="-2.90847">
        <time>2014-03-15T10:30:13Z</time>
      </trkpt>
      <trkpt lat="47.56382" lon="-2.90853">
        <time>2014-03-15T10:30:14Z</time>
      </trkpt>
      <trkpt lat="47.56386" lon="-2.90858">
        <time>2014-03-15T10:30:17Z</time>
      </trkpt>
      <trkpt lat="47.56389" lon="-2.90864">
        <time>2014-03-15T10:30:18Z</time>
      </trkpt>
      <trkpt lat="47.56393" lon="-2.9087">
        <time>2014-03-15T10:30:21Z</time>
      </trkpt>
      <trkpt lat="47.56396" lon="-2.90875">
        <time>2014-03-15T10:30:23Z</time>
      </trkpt>
      <trkpt lat="47.56399" lon="-2.9088">
        <time>2014-03-15T10:30:24Z</time>
      </trkpt>
      <trkpt lat="47.56402" lon="-2.90885">
        <time>2014-03-15T10:30:27Z</time>
      </trkpt>
      <trkpt lat="47.56405" lon="-2.90889">
        <time>2014-03-15T10:30:28Z</time>
      </trkpt>
      <trkpt lat="47.5641" lon="-2.90896">
        <time>2014-03-15T10:30:31Z</time>
      </trkpt>
      <trkpt lat="47.56415" lon="-2.909">
        <time>2014-03-15T10:30:34Z</time>
      </trkpt>
      <trkpt lat="47.5642" lon="-2.90903">
        <time>2014-03-15T10:30:38Z</time>
      </trkpt>
      <trkpt lat="47.56423" lon="-2.90907">
        <time>2014-03-15T10:30:42Z</time>
      </trkpt>
      <trkpt lat="47.56427" lon="-2.90913">
        <time>2014-03-15T10:30:46Z</time>
      </trkpt>
      <trkpt lat="47.5643" lon="-2.90921">
        <time>2014-03-15T10:30:50Z</time>
      </trkpt>
      <trkpt lat="47.56433" lon="-2.90927">
        <time>2014-03-15T10:30:54Z</time>
      </trkpt>
      <trkpt lat="47.56436" lon="-2.90932">
        <time>2014-03-15T10:30:57Z</time>
      </trkpt>
      <trkpt lat="47.5644" lon="-2.90938">
        <time>2014-03-15T10:31:00Z</time>
      </trkpt>
      <trkpt lat="47.56443" lon="-2.90944">
        <time>2014-03-15T10:31:03Z</time>
      </trkpt>
      <trkpt lat="47.56447" lon="-2.90952">
        <time>2014-03-15T10:31:06Z</time>
      </trkpt>
      <trkpt lat="47.5645" lon="-2.90959">
        <time>2014-03-15T10:31:09Z</time>
      </trkpt>
      <trkpt lat="47.56454" lon="-2.90965">
        <time>2014-03-15T10:31:12Z</time>
      </trkpt>
      <trkpt lat="47.56458" lon="-2.90971">
        <time>2014-03-15T10:31:16Z</time>
      </trkpt>
      <trkpt lat="47.56461" lon="-2.90978">
        <time>2014-03-15T10:31:18Z</time>
      </trkpt>
      <trkpt lat="47.56464" lon="-2.90987">
        <time>2014-03-15T10:31:21Z</time>
      </trkpt>
      <trkpt lat="47.56465" lon="-2.90995">
        <time>2014-03-15T10:31:23Z</time>
      </trkpt>
      <trkpt lat="47.56467" lon="-2.91003">
        <time>2014-03-15T10:31:26Z</time>
      </trkpt>
      <trkpt lat="47.56468" lon="-2.91012">
        <time>2014-03-15T10:31:27Z</time>
      </trkpt>
      <trkpt lat="47.56469" lon="-2.91021">
        <time>2014-03-15T10:31:30Z</time>
      </trkpt>
      <trkpt lat="47.5647" lon="-2.91028">
        <time>2014-03-15T10:31:31Z</time>
      </trkpt>
      <trkpt lat="47.56473" lon="-2.91035">
        <time>2014-03-15T10:31:34Z</time>
      </trkpt>
      <trkpt lat="47.56475" lon="-2.91042">
        <time>2014-03-15T10:31:38Z</time>
      </trkpt>
      <trkpt lat="47.56477" lon="-2.91049">
        <time>2014-03-15T10:31:43Z</time>
      </trkpt>
      <trkpt lat="47.56479" lon="-2.91054">
        <time>2014-03-15T10:31:48Z</time>
      </trkpt>
      <trkpt lat="47.56483" lon="-2.9106">
        <time>2014-03-15T10:31:54Z</time>
      </trkpt>
      <trkpt lat="47.56488" lon="-2.91062">
        <time>2014-03-15T10:31:59Z</time>
      </trkpt>
      <trkpt lat="47.56493" lon="-2.91063">
        <time>2014-03-15T10:32:07Z</time>
      </trkpt>
      <trkpt lat="47.56498" lon="-2.91066">
        <time>2014-03-15T10:32:12Z</time>
      </trkpt>
      <trkpt lat="47.56503" lon="-2.91069">
        <time>2014-03-15T10:32:17Z</time>
      </trkpt>
      <trkpt lat="47.56508" lon="-2.9107">
        <time>2014-03-15T10:32:22Z</time>
      </trkpt>
      <trkpt lat="47.56512" lon="-2.91072">
        <time>2014-03-15T10:32:26Z</time>
      </trkpt>
      <trkpt lat="47.56517" lon="-2.91073">
        <time>2014-03-15T10:32:31Z</time>
      </trkpt>
      <trkpt lat="47.56522" lon="-2.91074">
        <time>2014-03-15T10:32:35Z</time>
      </trkpt>
      <trkpt lat="47.56527" lon="-2.91072">
        <time>2014-03-15T10:32:41Z</time>
      </trkpt>
      <trkpt lat="47.56531" lon="-2.9107">
        <time>2014-03-15T10:32:47Z</time>
      </trkpt>
      <trkpt lat="47.56536" lon="-2.91067">
        <time>2014-03-15T10:32:52Z</time>
      </trkpt>
      <trkpt lat="47.5654" lon="-2.91063">
        <time>2014-03-15T10:32:55Z</time>
      </trkpt>
      <trkpt lat="47.56545" lon="-2.91061">
        <time>2014-03-15T10:32:59Z</time>
      </trkpt>
      <trkpt lat="47.5655" lon="-2.91057">
        <time>2014-03-15T10:33:03Z</time>
      </trkpt>
      <trkpt lat="47.56556" lon="-2.91055">
        <time>2014-03-15T10:33:07Z</time>
      </trkpt>
      <trkpt lat="47.56561" lon="-2.91055">
        <time>2014-03-15T10:33:11Z</time>
      </trkpt>
      <trkpt lat="47.56565" lon="-2.91054">
        <time>2014-03-15T10:33:13Z</time>
      </trkpt>
      <trkpt lat="47.56571" lon="-2.91053">
        <time>2014-03-15T10:33:17Z</time>
      </trkpt>
      <trkpt lat="47.56576" lon="-2.91052">
        <time>2014-03-15T10:33:21Z</time>
      </trkpt>
      <trkpt lat="47.5658" lon="-2.91051">
        <time>2014-03-15T10:33:24Z</time>
      </trkpt>
      <trkpt lat="47.56585" lon="-2.91048">
        <time>2014-03-15T10:33:26Z</time>
      </trkpt>
      <trkpt lat="47.5659" lon="-2.91045">
        <time>2014-03-15T10:33:29Z</time>
      </trkpt>
      <trkpt lat="47.56595" lon="-2.91042">
        <time>2014-03-15T10:33:32Z</time>
      </trkpt>
      <trkpt lat="47.56601" lon="-2.91039">
        <time>2014-03-15T10:33:35Z</time>
      </trkpt>
      <trkpt lat="47.56606" lon="-2.91035">
        <time>2014-03-15T10:33:38Z</time>
      </trkpt>
      <trkpt lat="47.5661" lon="-2.91031">
        <time>2014-03-15T10:33:41Z</time>
      </trkpt>
      <trkpt lat="47.56615" lon="-2.91026">
        <time>2014-03-15T10:33:44Z</time>
      </trkpt>
      <trkpt lat="47.5662" lon="-2.91023">
        <time>2014-03-15T10:33:48Z</time>
      </trkpt>
      <trkpt lat="47.56625" lon="-2.9102">
        <time>2014-03-15T10:33:50Z</time>
      </trkpt>
      <trkpt lat="47.5663" lon="-2.91018">
        <time>2014-03-15T10:33:53Z</time>
      </trkpt>
      <trkpt lat="47.56636" lon="-2.91015">
        <time>2014-03-15T10:33:57Z</time>
      </trkpt>
      <trkpt lat="47.56641" lon="-2.91013">
        <time>2014-03-15T10:33:59Z</time>
      </trkpt>
      <trkpt lat="47.56647" lon="-2.91012">
        <time>2014-03-15T10:34:02Z</time>
      </trkpt>
      <trkpt lat="47.56652" lon="-2.91011">
        <time>2014-03-15T10:34:06Z</time>
      </trkpt>
      <trkpt lat="47.56657" lon="-2.91011">
        <time>2014-03-15T10:34:08Z</time>
      </trkpt>
      <trkpt lat="47.56662" lon="-2.9101">
        <time>2014-03-15T10:34:11Z</time>
      </trkpt>
      <trkpt lat="47.56668" lon="-2.9101">
        <time>2014-03-15T10:34:15Z</time>
      </trkpt>
      <trkpt lat="47.56673" lon="-2.91009">
        <time>2014-03-15T10:34:17Z</time>
      </trkpt>
      <trkpt lat="47.56678" lon="-2.91009">
        <time>2014-03-15T10:34:21Z</time>
      </trkpt>
      <trkpt lat="47.56683" lon="-2.91008">
        <time>2014-03-15T10:34:24Z</time>
      </trkpt>
      <trkpt lat="47.56688" lon="-2.91007">
        <time>2014-03-15T10:34:26Z</time>
      </trkpt>
      <trkpt lat="47.56693" lon="-2.91007">
        <time>2014-03-15T10:34:30Z</time>
      </trkpt>
      <trkpt lat="47.56698" lon="-2.91007">
        <time>2014-03-15T10:34:33Z</time>
      </trkpt>
      <trkpt lat="47.56703" lon="-2.91008">
        <time>2014-03-15T10:34:35Z</time>
      </trkpt>
      <trkpt lat="47.56708" lon="-2.91009">
        <time>2014-03-15T10:34:39Z</time>
      </trkpt>
      <trkpt lat="47.56713" lon="-2.9101">
        <time>2014-03-15T10:34:42Z</time>
      </trkpt>
      <trkpt lat="47.56719" lon="-2.91011">
        <time>2014-03-15T10:34:44Z</time>
      </trkpt>
      <trkpt lat="47.56723" lon="-2.91012">
        <time>2014-03-15T10:34:48Z</time>
      </trkpt>
      <trkpt lat="47.56729" lon="-2.91014">
        <time>2014-03-15T10:34:51Z</time>
      </trkpt>
      <trkpt lat="47.56734" lon="-2.91016">
        <time>2014-03-15T10:34:53Z</time>
      </trkpt>
      <trkpt lat="47.56739" lon="-2.91018">
        <time>2014-03-15T10:34:57Z</time>
      </trkpt>
      <trkpt lat="47.56744" lon="-2.9102">
        <time>2014-03-15T10:35:00Z</time>
      </trkpt>
      <trkpt lat="47.56749" lon="-2.91021">
        <time>2014-03-15T10:35:02Z</time>
      </trkpt>
      <trkpt lat="47.56754" lon="-2.91023">
        <ele>8</ele>
        <time>2014-03-15T10:35:06Z</time>
      </trkpt>
      <trkpt lat="47.56759" lon="-2.91025">
        <ele>8</ele>
        <time>2014-03-15T10:35:09Z</time>
      </trkpt>
      <trkpt lat="47.56763" lon="-2.91027">
        <ele>8</ele>
        <time>2014-03-15T10:35:11Z</time>
      </trkpt>
      <trkpt lat="47.56768" lon="-2.91029">
        <ele>8</ele>
        <time>2014-03-15T10:35:16Z</time>
      </trkpt>
      <trkpt lat="47.56773" lon="-2.91032">
        <ele>8</ele>
        <time>2014-03-15T10:35:19Z</time>
      </trkpt>
      <trkpt lat="47.56778" lon="-2.91035">
        <ele>8</ele>
        <time>2014-03-15T10:35:24Z</time>
      </trkpt>
      <trkpt lat="47.56782" lon="-2.91038">
        <ele>8</ele>
        <time>2014-03-15T10:35:27Z</time>
      </trkpt>
      <trkpt lat="47.56789" lon="-2.91043">
        <ele>8</ele>
        <time>2014-03-15T10:35:33Z</time>
      </trkpt>
      <trkpt lat="47.56794" lon="-2.91046">
        <ele>8</ele>
        <time>2014-03-15T10:35:37Z</time>
      </trkpt>
      <trkpt lat="47.56799" lon="-2.91049">
        <ele>8</ele>
        <time>2014-03-15T10:35:41Z</time>
      </trkpt>
      <trkpt lat="47.56803" lon="-2.91052">
        <ele>8</ele>
        <time>2014-03-15T10:35:46Z</time>
      </trkpt>
      <trkpt lat="47.56808" lon="-2.91056">
        <ele>8</ele>
        <time>2014-03-15T10:35:51Z</time>
      </trkpt>
      <trkpt lat="47.56812" lon="-2.9106">
        <ele>8</ele>
        <time>2014-03-15T10:35:56Z</time>
      </trkpt>
      <trkpt lat="47.56817" lon="-2.91062">
        <ele>8</ele>
        <time>2014-03-15T10:36:01Z</time>
      </trkpt>
      <trkpt lat="47.56822" lon="-2.91063">
        <ele>8</ele>
        <time>2014-03-15T10:36:06Z</time>
      </trkpt>
      <trkpt lat="47.56826" lon="-2.91064">
        <ele>8</ele>
        <time>2014-03-15T10:36:12Z</time>
      </trkpt>
      <trkpt lat="47.56832" lon="-2.91065">
        <ele>8</ele>
        <time>2014-03-15T10:36:17Z</time>
      </trkpt>
      <trkpt lat="47.56837" lon="-2.91066">
        <ele>9</ele>
        <time>2014-03-15T10:36:22Z</time>
      </trkpt>
      <trkpt lat="47.56843" lon="-2.91068">
        <ele>9</ele>
        <time>2014-03-15T10:36:25Z</time>
      </trkpt>
      <trkpt lat="47.56847" lon="-2.9107">
        <ele>9</ele>
        <time>2014-03-15T10:36:28Z</time>
      </trkpt>
      <trkpt lat="47.56853" lon="-2.91072">
        <ele>9</ele>
        <time>2014-03-15T10:36:33Z</time>
      </trkpt>
      <trkpt lat="47.56858" lon="-2.91073">
        <ele>9</ele>
        <time>2014-03-15T10:36:37Z</time>
      </trkpt>
      <trkpt lat="47.56863" lon="-2.91075">
        <ele>9</ele>
        <time>2014-03-15T10:36:39Z</time>
      </trkpt>
      <trkpt lat="47.56868" lon="-2.91077">
        <ele>9</ele>
        <time>2014-03-15T10:36:42Z</time>
      </trkpt>
      <trkpt lat="47.56872" lon="-2.91078">
        <ele>9</ele>
        <time>2014-03-15T10:36:45Z</time>
      </trkpt>
      <trkpt lat="47.56877" lon="-2.91079">
        <ele>10</ele>
        <time>2014-03-15T10:36:48Z</time>
      </trkpt>
      <trkpt lat="47.56882" lon="-2.91081">
        <ele>10</ele>
        <time>2014-03-15T10:36:51Z</time>
      </trkpt>
      <trkpt lat="47.56887" lon="-2.91081">
        <ele>10</ele>
        <time>2014-03-15T10:36:55Z</time>
      </trkpt>
      <trkpt lat="47.56892" lon="-2.91081">
        <ele>10</ele>
        <time>2014-03-15T10:36:57Z</time>
      </trkpt>
      <trkpt lat="47.56898" lon="-2.91081">
        <ele>10</ele>
        <time>2014-03-15T10:37:00Z</time>
      </trkpt>
      <trkpt lat="47.56903" lon="-2.91081">
        <ele>10</ele>
        <time>2014-03-15T10:37:03Z</time>
      </trkpt>
      <trkpt lat="47.56908" lon="-2.91082">
        <ele>10</ele>
        <time>2014-03-15T10:37:06Z</time>
      </trkpt>
      <trkpt lat="47.56913" lon="-2.91082">
        <ele>10</ele>
        <time>2014-03-15T10:37:09Z</time>
      </trkpt>
      <trkpt lat="47.56918" lon="-2.91082">
        <ele>10</ele>
        <time>2014-03-15T10:37:13Z</time>
      </trkpt>
      <trkpt lat="47.56924" lon="-2.91081">
        <ele>10</ele>
        <time>2014-03-15T10:37:15Z</time>
      </trkpt>
      <trkpt lat="47.5693" lon="-2.9108">
        <ele>10</ele>
        <time>2014-03-15T10:37:19Z</time>
      </trkpt>
      <trkpt lat="47.56936" lon="-2.9108">
        <ele>10</ele>
        <time>2014-03-15T10:37:22Z</time>
      </trkpt>
      <trkpt lat="47.56941" lon="-2.9108">
        <ele>10</ele>
        <time>2014-03-15T10:37:24Z</time>
      </trkpt>
      <trkpt lat="47.56947" lon="-2.91079">
        <ele>10</ele>
        <time>2014-03-15T10:37:28Z</time>
      </trkpt>
      <trkpt lat="47.56952" lon="-2.9108">
        <ele>10</ele>
        <time>2014-03-15T10:37:31Z</time>
      </trkpt>
      <trkpt lat="47.56958" lon="-2.9108">
        <ele>10</ele>
        <time>2014-03-15T10:37:33Z</time>
      </trkpt>
      <trkpt lat="47.56964" lon="-2.91081">
        <ele>10</ele>
        <time>2014-03-15T10:37:37Z</time>
      </trkpt>
      <trkpt lat="47.5697" lon="-2.9108">
        <ele>10</ele>
        <time>2014-03-15T10:37:40Z</time>
      </trkpt>
      <trkpt lat="47.56976" lon="-2.9108">
        <ele>10</ele>
        <time>2014-03-15T10:37:42Z</time>
      </trkpt>
      <trkpt lat="47.56982" lon="-2.9108">
        <ele>10</ele>
        <time>2014-03-15T10:37:46Z</time>
      </trkpt>
      <trkpt lat="47.56987" lon="-2.9108">
        <ele>10</ele>
        <time>2014-03-15T10:37:47Z</time>
      </trkpt>
      <trkpt lat="47.56992" lon="-2.91079">
        <ele>10</ele>
        <time>2014-03-15T10:37:50Z</time>
      </trkpt>
      <trkpt lat="47.56998" lon="-2.91079">
        <ele>10</ele>
        <time>2014-03-15T10:37:51Z</time>
      </trkpt>
      <trkpt lat="47.57003" lon="-2.91079">
        <ele>9</ele>
        <time>2014-03-15T10:37:54Z</time>
      </trkpt>
      <trkpt lat="47.57008" lon="-2.91078">
        <ele>9</ele>
        <time>2014-03-15T10:37:55Z</time>
      </trkpt>
      <trkpt lat="47.57013" lon="-2.91078">
        <ele>9</ele>
        <time>2014-03-15T10:37:58Z</time>
      </trkpt>
      <trkpt lat="47.57017" lon="-2.91077">
        <ele>9</ele>
        <time>2014-03-15T10:38:00Z</time>
      </trkpt>
      <trkpt lat="47.57022" lon="-2.91077">
        <ele>9</ele>
        <time>2014-03-15T10:38:02Z</time>
      </trkpt>
      <trkpt lat="47.57026" lon="-2.91077">
        <ele>9</ele>
        <time>2014-03-15T10:38:04Z</time>
      </trkpt>
      <trkpt lat="47.57031" lon="-2.91077">
        <ele>9</ele>
        <time>2014-03-15T10:38:05Z</time>
      </trkpt>
      <trkpt lat="47.57036" lon="-2.91077">
        <ele>9</ele>
        <time>2014-03-15T10:38:08Z</time>
      </trkpt>
      <trkpt lat="47.5704" lon="-2.91077">
        <ele>9</ele>
        <time>2014-03-15T10:38:09Z</time>
      </trkpt>
      <trkpt lat="47.57045" lon="-2.91078">
        <ele>9</ele>
        <time>2014-03-15T10:38:12Z</time>
      </trkpt>
      <trkpt lat="47.57049" lon="-2.91078">
        <ele>9</ele>
        <time>2014-03-15T10:38:14Z</time>
      </trkpt>
      <trkpt lat="47.57056" lon="-2.91079">
        <ele>9</ele>
        <time>2014-03-15T10:38:17Z</time>
      </trkpt>
      <trkpt lat="47.57063" lon="-2.91079">
        <ele>9</ele>
        <time>2014-03-15T10:38:19Z</time>
      </trkpt>
      <trkpt lat="47.57067" lon="-2.91079">
        <ele>9</ele>
        <time>2014-03-15T10:38:22Z</time>
      </trkpt>
      <trkpt lat="47.57074" lon="-2.9108">
        <ele>9</ele>
        <time>2014-03-15T10:38:24Z</time>
      </trkpt>
      <trkpt lat="47.5708" lon="-2.9108">
        <ele>9</ele>
        <time>2014-03-15T10:38:27Z</time>
      </trkpt>
      <trkpt lat="47.57087" lon="-2.9108">
        <ele>9</ele>
        <time>2014-03-15T10:38:31Z</time>
      </trkpt>
      <trkpt lat="47.57093" lon="-2.9108">
        <ele>9</ele>
        <time>2014-03-15T10:38:33Z</time>
      </trkpt>
      <trkpt lat="47.571" lon="-2.91081">
        <ele>9</ele>
        <time>2014-03-15T10:38:36Z</time>
      </trkpt>
      <trkpt lat="47.57105" lon="-2.91082">
        <ele>9</ele>
        <time>2014-03-15T10:38:39Z</time>
      </trkpt>
      <trkpt lat="47.57112" lon="-2.91082">
        <ele>9</ele>
        <time>2014-03-15T10:38:42Z</time>
      </trkpt>
      <trkpt lat="47.57119" lon="-2.91083">
        <ele>9</ele>
        <time>2014-03-15T10:38:45Z</time>
      </trkpt>
      <trkpt lat="47.57125" lon="-2.91084">
        <time>2014-03-15T10:38:48Z</time>
      </trkpt>
      <trkpt lat="47.5713" lon="-2.91084">
        <time>2014-03-15T10:38:50Z</time>
      </trkpt>
      <trkpt lat="47.57135" lon="-2.91086">
        <time>2014-03-15T10:38:52Z</time>
      </trkpt>
      <trkpt lat="47.57141" lon="-2.91087">
        <time>2014-03-15T10:38:55Z</time>
      </trkpt>
      <trkpt lat="47.57148" lon="-2.91088">
        <time>2014-03-15T10:38:58Z</time>
      </trkpt>
      <trkpt lat="47.57154" lon="-2.91089">
        <time>2014-03-15T10:39:01Z</time>
      </trkpt>
      <trkpt lat="47.5716" lon="-2.9109">
        <time>2014-03-15T10:39:04Z</time>
      </trkpt>
      <trkpt lat="47.57166" lon="-2.91091">
        <time>2014-03-15T10:39:08Z</time>
      </trkpt>
      <trkpt lat="47.57172" lon="-2.91092">
        <time>2014-03-15T10:39:11Z</time>
      </trkpt>
      <trkpt lat="47.57178" lon="-2.91093">
        <time>2014-03-15T10:39:13Z</time>
      </trkpt>
      <trkpt lat="47.57185" lon="-2.91095">
        <time>2014-03-15T10:39:17Z</time>
      </trkpt>
      <trkpt lat="47.57191" lon="-2.91097">
        <time>2014-03-15T10:39:20Z</time>
      </trkpt>
      <trkpt lat="47.57196" lon="-2.91098">
        <time>2014-03-15T10:39:22Z</time>
      </trkpt>
      <trkpt lat="47.57202" lon="-2.911">
        <time>2014-03-15T10:39:25Z</time>
      </trkpt>
      <trkpt lat="47.57209" lon="-2.91102">
        <time>2014-03-15T10:39:27Z</time>
      </trkpt>
      <trkpt lat="47.57213" lon="-2.91103">
        <time>2014-03-15T10:39:30Z</time>
      </trkpt>
      <trkpt lat="47.57219" lon="-2.91105">
        <time>2014-03-15T10:39:32Z</time>
      </trkpt>
      <trkpt lat="47.57226" lon="-2.91107">
        <time>2014-03-15T10:39:36Z</time>
      </trkpt>
      <trkpt lat="47.57232" lon="-2.91108">
        <time>2014-03-15T10:39:39Z</time>
      </trkpt>
      <trkpt lat="47.57237" lon="-2.91109">
        <time>2014-03-15T10:39:40Z</time>
      </trkpt>
      <trkpt lat="47.57243" lon="-2.91111">
        <time>2014-03-15T10:39:44Z</time>
      </trkpt>
      <trkpt lat="47.5725" lon="-2.91113">
        <time>2014-03-15T10:39:46Z</time>
      </trkpt>
      <trkpt lat="47.57256" lon="-2.91115">
        <ele>4</ele>
        <time>2014-03-15T10:39:49Z</time>
      </trkpt>
      <trkpt lat="47.57262" lon="-2.91116">
        <ele>4</ele>
        <time>2014-03-15T10:39:53Z</time>
      </trkpt>
      <trkpt lat="47.57269" lon="-2.91117">
        <ele>4</ele>
        <time>2014-03-15T10:39:55Z</time>
      </trkpt>
      <trkpt lat="47.57275" lon="-2.91119">
        <ele>4</ele>
        <time>2014-03-15T10:39:59Z</time>
      </trkpt>
      <trkpt lat="47.57279" lon="-2.9112">
        <ele>4</ele>
        <time>2014-03-15T10:40:00Z</time>
      </trkpt>
      <trkpt lat="47.57285" lon="-2.91122">
        <ele>4</ele>
        <time>2014-03-15T10:40:03Z</time>
      </trkpt>
      <trkpt lat="47.57291" lon="-2.91124">
        <ele>4</ele>
        <time>2014-03-15T10:40:07Z</time>
      </trkpt>
      <trkpt lat="47.57298" lon="-2.91126">
        <ele>4</ele>
        <time>2014-03-15T10:40:09Z</time>
      </trkpt>
      <trkpt lat="47.57305" lon="-2.91127">
        <ele>4</ele>
        <time>2014-03-15T10:40:12Z</time>
      </trkpt>
      <trkpt lat="47.57311" lon="-2.91129">
        <ele>4</ele>
        <time>2014-03-15T10:40:16Z</time>
      </trkpt>
      <trkpt lat="47.57317" lon="-2.91131">
        <ele>4</ele>
        <time>2014-03-15T10:40:18Z</time>
      </trkpt>
      <trkpt lat="47.57324" lon="-2.91132">
        <ele>4</ele>
        <time>2014-03-15T10:40:22Z</time>
      </trkpt>
      <trkpt lat="47.5733" lon="-2.91134">
        <ele>4</ele>
        <time>2014-03-15T10:40:25Z</time>
      </trkpt>
      <trkpt lat="47.57336" lon="-2.91135">
        <ele>6</ele>
        <time>2014-03-15T10:40:27Z</time>
      </trkpt>
      <trkpt lat="47.57343" lon="-2.91136">
        <ele>6</ele>
        <time>2014-03-15T10:40:31Z</time>
      </trkpt>
      <trkpt lat="47.57349" lon="-2.91139">
        <ele>6</ele>
        <time>2014-03-15T10:40:34Z</time>
      </trkpt>
      <trkpt lat="47.57355" lon="-2.91141">
        <ele>7</ele>
        <time>2014-03-15T10:40:36Z</time>
      </trkpt>
      <trkpt lat="47.57361" lon="-2.91143">
        <ele>7</ele>
        <time>2014-03-15T10:40:40Z</time>
      </trkpt>
      <trkpt lat="47.57366" lon="-2.91146">
        <ele>7</ele>
        <time>2014-03-15T10:40:43Z</time>
      </trkpt>
      <trkpt lat="47.57372" lon="-2.91147">
        <ele>7</ele>
        <time>2014-03-15T10:40:45Z</time>
      </trkpt>
      <trkpt lat="47.57378" lon="-2.91149">
        <ele>7</ele>
        <time>2014-03-15T10:40:49Z</time>
      </trkpt>
      <trkpt lat="47.57384" lon="-2.91151">
        <ele>7</ele>
        <time>2014-03-15T10:40:52Z</time>
      </trkpt>
      <trkpt lat="47.5739" lon="-2.91153">
        <ele>7</ele>
        <time>2014-03-15T10:40:54Z</time>
      </trkpt>
      <trkpt lat="47.57396" lon="-2.91156">
        <ele>7</ele>
        <time>2014-03-15T10:40:58Z</time>
      </trkpt>
      <trkpt lat="47.57402" lon="-2.91159">
        <ele>7</ele>
        <time>2014-03-15T10:41:01Z</time>
      </trkpt>
      <trkpt lat="47.57407" lon="-2.91161">
        <ele>7</ele>
        <time>2014-03-15T10:41:03Z</time>
      </trkpt>
      <trkpt lat="47.57413" lon="-2.91164">
        <ele>8</ele>
        <time>2014-03-15T10:41:07Z</time>
      </trkpt>
      <trkpt lat="47.57418" lon="-2.91167">
        <ele>10</ele>
        <time>2014-03-15T10:41:10Z</time>
      </trkpt>
      <trkpt lat="47.57424" lon="-2.91169">
        <time>2014-03-15T10:41:12Z</time>
      </trkpt>
      <trkpt lat="47.57429" lon="-2.91172">
        <time>2014-03-15T10:41:15Z</time>
      </trkpt>
      <trkpt lat="47.57435" lon="-2.91174">
        <time>2014-03-15T10:41:18Z</time>
      </trkpt>
      <trkpt lat="47.5744" lon="-2.91177">
        <time>2014-03-15T10:41:21Z</time>
      </trkpt>
      <trkpt lat="47.57446" lon="-2.91179">
        <time>2014-03-15T10:41:25Z</time>
      </trkpt>
      <trkpt lat="47.57452" lon="-2.9118">
        <time>2014-03-15T10:41:28Z</time>
      </trkpt>
      <trkpt lat="47.57458" lon="-2.91181">
        <time>2014-03-15T10:41:30Z</time>
      </trkpt>
      <trkpt lat="47.57464" lon="-2.91182">
        <time>2014-03-15T10:41:34Z</time>
      </trkpt>
      <trkpt lat="47.5747" lon="-2.91183">
        <time>2014-03-15T10:41:36Z</time>
      </trkpt>
      <trkpt lat="47.57476" lon="-2.91185">
        <time>2014-03-15T10:41:39Z</time>
      </trkpt>
      <trkpt lat="47.57483" lon="-2.91186">
        <time>2014-03-15T10:41:43Z</time>
      </trkpt>
      <trkpt lat="47.57489" lon="-2.91188">
        <time>2014-03-15T10:41:45Z</time>
      </trkpt>
      <trkpt lat="47.57494" lon="-2.9119">
        <time>2014-03-15T10:41:48Z</time>
      </trkpt>
      <trkpt lat="47.575" lon="-2.91193">
        <time>2014-03-15T10:41:52Z</time>
      </trkpt>
      <trkpt lat="47.57505" lon="-2.91195">
        <time>2014-03-15T10:41:54Z</time>
      </trkpt>
      <trkpt lat="47.57511" lon="-2.91198">
        <time>2014-03-15T10:41:57Z</time>
      </trkpt>
      <trkpt lat="47.57517" lon="-2.91201">
        <time>2014-03-15T10:42:00Z</time>
      </trkpt>
      <trkpt lat="47.57523" lon="-2.91204">
        <time>2014-03-15T10:42:03Z</time>
      </trkpt>
      <trkpt lat="47.57529" lon="-2.91207">
        <time>2014-03-15T10:42:07Z</time>
      </trkpt>
      <trkpt lat="47.57535" lon="-2.9121">
        <time>2014-03-15T10:42:10Z</time>
      </trkpt>
      <trkpt lat="47.5754" lon="-2.91211">
        <time>2014-03-15T10:42:12Z</time>
      </trkpt>
      <trkpt lat="47.57546" lon="-2.91213">
        <time>2014-03-15T10:42:16Z</time>
      </trkpt>
      <trkpt lat="47.57552" lon="-2.91214">
        <time>2014-03-15T10:42:19Z</time>
      </trkpt>
      <trkpt lat="47.57559" lon="-2.91216">
        <time>2014-03-15T10:42:21Z</time>
      </trkpt>
      <trkpt lat="47.57565" lon="-2.91217">
        <time>2014-03-15T10:42:25Z</time>
      </trkpt>
      <trkpt lat="47.57571" lon="-2.91218">
        <time>2014-03-15T10:42:28Z</time>
      </trkpt>
      <trkpt lat="47.57577" lon="-2.9122">
        <time>2014-03-15T10:42:30Z</time>
      </trkpt>
      <trkpt lat="47.57583" lon="-2.91221">
        <time>2014-03-15T10:42:34Z</time>
      </trkpt>
      <trkpt lat="47.57589" lon="-2.91222">
        <time>2014-03-15T10:42:36Z</time>
      </trkpt>
      <trkpt lat="47.57595" lon="-2.91222">
        <time>2014-03-15T10:42:39Z</time>
      </trkpt>
      <trkpt lat="47.57601" lon="-2.91222">
        <time>2014-03-15T10:42:42Z</time>
      </trkpt>
      <trkpt lat="47.57606" lon="-2.91222">
        <time>2014-03-15T10:42:45Z</time>
      </trkpt>
      <trkpt lat="47.57611" lon="-2.91224">
        <time>2014-03-15T10:42:49Z</time>
      </trkpt>
      <trkpt lat="47.57617" lon="-2.91224">
        <time>2014-03-15T10:42:55Z</time>
      </trkpt>
      <trkpt lat="47.57621" lon="-2.91222">
        <time>2014-03-15T10:42:58Z</time>
      </trkpt>
      <trkpt lat="47.57627" lon="-2.91218">
        <time>2014-03-15T10:43:02Z</time>
      </trkpt>
      <trkpt lat="47.57631" lon="-2.91213">
        <time>2014-03-15T10:43:06Z</time>
      </trkpt>
      <trkpt lat="47.57635" lon="-2.91207">
        <time>2014-03-15T10:43:10Z</time>
      </trkpt>
      <trkpt lat="47.57638" lon="-2.91201">
        <time>2014-03-15T10:43:13Z</time>
      </trkpt>
      <trkpt lat="47.57641" lon="-2.91196">
        <time>2014-03-15T10:43:16Z</time>
      </trkpt>
      <trkpt lat="47.57644" lon="-2.91191">
        <time>2014-03-15T10:43:19Z</time>
      </trkpt>
      <trkpt lat="47.57647" lon="-2.91185">
        <time>2014-03-15T10:43:24Z</time>
      </trkpt>
      <trkpt lat="47.5765" lon="-2.91178">
        <time>2014-03-15T10:43:28Z</time>
      </trkpt>
      <trkpt lat="47.57654" lon="-2.91171">
        <time>2014-03-15T10:43:31Z</time>
      </trkpt>
      <trkpt lat="47.57656" lon="-2.91165">
        <ele>12</ele>
        <time>2014-03-15T10:43:35Z</time>
      </trkpt>
      <trkpt lat="47.5766" lon="-2.91159">
        <ele>12</ele>
        <time>2014-03-15T10:43:38Z</time>
      </trkpt>
      <trkpt lat="47.57663" lon="-2.91154">
        <ele>12</ele>
        <time>2014-03-15T10:43:42Z</time>
      </trkpt>
      <trkpt lat="47.57667" lon="-2.91147">
        <time>2014-03-15T10:43:45Z</time>
      </trkpt>
      <trkpt lat="47.5767" lon="-2.91142">
        <time>2014-03-15T10:43:48Z</time>
      </trkpt>
      <trkpt lat="47.57673" lon="-2.91136">
        <time>2014-03-15T10:43:51Z</time>
      </trkpt>
      <trkpt lat="47.57677" lon="-2.9113">
        <time>2014-03-15T10:43:56Z</time>
      </trkpt>
      <trkpt lat="47.57681" lon="-2.91124">
        <time>2014-03-15T10:43:59Z</time>
      </trkpt>
      <trkpt lat="47.57685" lon="-2.91118">
        <time>2014-03-15T10:44:03Z</time>
      </trkpt>
      <trkpt lat="47.57689" lon="-2.91114">
        <time>2014-03-15T10:44:06Z</time>
      </trkpt>
      <trkpt lat="47.57693" lon="-2.9111">
        <time>2014-03-15T10:44:10Z</time>
      </trkpt>
      <trkpt lat="47.57697" lon="-2.91106">
        <time>2014-03-15T10:44:13Z</time>
      </trkpt>
      <trkpt lat="47.57701" lon="-2.91101">
        <time>2014-03-15T10:44:17Z</time>
      </trkpt>
      <trkpt lat="47.57705" lon="-2.91097">
        <time>2014-03-15T10:44:22Z</time>
      </trkpt>
      <trkpt lat="47.57709" lon="-2.91091">
        <time>2014-03-15T10:44:25Z</time>
      </trkpt>
      <trkpt lat="47.57713" lon="-2.91086">
        <time>2014-03-15T10:44:29Z</time>
      </trkpt>
      <trkpt lat="47.57717" lon="-2.91082">
        <ele>15</ele>
        <time>2014-03-15T10:44:33Z</time>
      </trkpt>
      <trkpt lat="47.57722" lon="-2.91078">
        <ele>15</ele>
        <time>2014-03-15T10:44:37Z</time>
      </trkpt>
      <trkpt lat="47.57727" lon="-2.91074">
        <ele>15</ele>
        <time>2014-03-15T10:44:42Z</time>
      </trkpt>
      <trkpt lat="47.57731" lon="-2.9107">
        <ele>15</ele>
        <time>2014-03-15T10:44:45Z</time>
      </trkpt>
      <trkpt lat="47.57736" lon="-2.91065">
        <ele>15</ele>
        <time>2014-03-15T10:44:51Z</time>
      </trkpt>
      <trkpt lat="47.5774" lon="-2.91061">
        <ele>15</ele>
        <time>2014-03-15T10:44:55Z</time>
      </trkpt>
      <trkpt lat="47.57745" lon="-2.91057">
        <ele>15</ele>
        <time>2014-03-15T10:45:00Z</time>
      </trkpt>
      <trkpt lat="47.5775" lon="-2.91054">
        <ele>15</ele>
        <time>2014-03-15T10:45:05Z</time>
      </trkpt>
      <trkpt lat="47.57754" lon="-2.91051">
        <time>2014-03-15T10:45:11Z</time>
      </trkpt>
      <trkpt lat="47.57759" lon="-2.9105">
        <time>2014-03-15T10:45:16Z</time>
      </trkpt>
      <trkpt lat="47.57764" lon="-2.91048">
        <time>2014-03-15T10:45:21Z</time>
      </trkpt>
      <trkpt lat="47.57769" lon="-2.91047">
        <time>2014-03-15T10:45:25Z</time>
      </trkpt>
      <trkpt lat="47.57774" lon="-2.91045">
        <time>2014-03-15T10:45:30Z</time>
      </trkpt>
      <trkpt lat="47.57779" lon="-2.91041">
        <time>2014-03-15T10:45:36Z</time>
      </trkpt>
      <trkpt lat="47.57783" lon="-2.91035">
        <time>2014-03-15T10:45:40Z</time>
      </trkpt>
      <trkpt lat="47.57786" lon="-2.9103">
        <time>2014-03-15T10:45:44Z</time>
      </trkpt>
      <trkpt lat="47.57789" lon="-2.91023">
        <time>2014-03-15T10:45:49Z</time>
      </trkpt>
      <trkpt lat="47.57791" lon="-2.91017">
        <time>2014-03-15T10:45:52Z</time>
      </trkpt>
      <trkpt lat="47.57794" lon="-2.9101">
        <time>2014-03-15T10:45:57Z</time>
      </trkpt>
      <trkpt lat="47.57797" lon="-2.91002">
        <time>2014-03-15T10:46:00Z</time>
      </trkpt>
      <trkpt lat="47.57799" lon="-2.90996">
        <time>2014-03-15T10:46:04Z</time>
      </trkpt>
      <trkpt lat="47.57801" lon="-2.90989">
        <time>2014-03-15T10:46:07Z</time>
      </trkpt>
      <trkpt lat="47.57804" lon="-2.90981">
        <time>2014-03-15T10:46:11Z</time>
      </trkpt>
      <trkpt lat="47.57807" lon="-2.90975">
        <time>2014-03-15T10:46:15Z</time>
      </trkpt>
      <trkpt lat="47.57809" lon="-2.90969">
        <time>2014-03-15T10:46:17Z</time>
      </trkpt>
      <trkpt lat="47.57811" lon="-2.90962">
        <time>2014-03-15T10:46:20Z</time>
      </trkpt>
      <trkpt lat="47.57813" lon="-2.90956">
        <time>2014-03-15T10:46:24Z</time>
      </trkpt>
      <trkpt lat="47.57815" lon="-2.9095">
        <time>2014-03-15T10:46:26Z</time>
      </trkpt>
      <trkpt lat="47.57817" lon="-2.90943">
        <time>2014-03-15T10:46:30Z</time>
      </trkpt>
      <trkpt lat="47.57818" lon="-2.90936">
        <time>2014-03-15T10:46:32Z</time>
      </trkpt>
      <trkpt lat="47.5782" lon="-2.90929">
        <time>2014-03-15T10:46:36Z</time>
      </trkpt>
      <trkpt lat="47.57821" lon="-2.90922">
        <time>2014-03-15T10:46:38Z</time>
      </trkpt>
      <trkpt lat="47.57823" lon="-2.90915">
        <time>2014-03-15T10:46:41Z</time>
      </trkpt>
      <trkpt lat="47.57824" lon="-2.90908">
        <time>2014-03-15T10:46:44Z</time>
      </trkpt>
      <trkpt lat="47.57826" lon="-2.90901">
        <time>2014-03-15T10:46:47Z</time>
      </trkpt>
      <trkpt lat="47.57827" lon="-2.90892">
        <time>2014-03-15T10:46:52Z</time>
      </trkpt>
      <trkpt lat="47.57827" lon="-2.90885">
        <time>2014-03-15T10:46:54Z</time>
      </trkpt>
      <trkpt lat="47.57826" lon="-2.90878">
        <time>2014-03-15T10:46:58Z</time>
      </trkpt>
      <trkpt lat="47.57826" lon="-2.9087">
        <time>2014-03-15T10:47:00Z</time>
      </trkpt>
      <trkpt lat="47.57826" lon="-2.90862">
        <time>2014-03-15T10:47:03Z</time>
      </trkpt>
      <trkpt lat="47.57827" lon="-2.90854">
        <time>2014-03-15T10:47:06Z</time>
      </trkpt>
      <trkpt lat="47.57827" lon="-2.90846">
        <time>2014-03-15T10:47:09Z</time>
      </trkpt>
      <trkpt lat="47.57827" lon="-2.90839">
        <time>2014-03-15T10:47:12Z</time>
      </trkpt>
      <trkpt lat="47.57827" lon="-2.90831">
        <time>2014-03-15T10:47:15Z</time>
      </trkpt>
      <trkpt lat="47.57826" lon="-2.90823">
        <time>2014-03-15T10:47:18Z</time>
      </trkpt>
      <trkpt lat="47.57826" lon="-2.90816">
        <time>2014-03-15T10:47:21Z</time>
      </trkpt>
      <trkpt lat="47.57826" lon="-2.90809">
        <time>2014-03-15T10:47:24Z</time>
      </trkpt>
      <trkpt lat="47.57826" lon="-2.90802">
        <time>2014-03-15T10:47:28Z</time>
      </trkpt>
      <trkpt lat="47.57826" lon="-2.90795">
        <time>2014-03-15T10:47:30Z</time>
      </trkpt>
      <trkpt lat="47.57826" lon="-2.90787">
        <time>2014-03-15T10:47:33Z</time>
      </trkpt>
      <trkpt lat="47.57826" lon="-2.9078">
        <time>2014-03-15T10:47:37Z</time>
      </trkpt>
      <trkpt lat="47.57825" lon="-2.90773">
        <time>2014-03-15T10:47:39Z</time>
      </trkpt>
      <trkpt lat="47.57825" lon="-2.90766">
        <time>2014-03-15T10:47:42Z</time>
      </trkpt>
      <trkpt lat="47.57825" lon="-2.90759">
        <time>2014-03-15T10:47:45Z</time>
      </trkpt>
      <trkpt lat="47.57824" lon="-2.90752">
        <time>2014-03-15T10:47:48Z</time>
      </trkpt>
      <trkpt lat="47.57823" lon="-2.90745">
        <time>2014-03-15T10:47:52Z</time>
      </trkpt>
      <trkpt lat="47.57823" lon="-2.90737">
        <time>2014-03-15T10:47:54Z</time>
      </trkpt>
      <trkpt lat="47.57822" lon="-2.9073">
        <time>2014-03-15T10:47:57Z</time>
      </trkpt>
      <trkpt lat="47.57821" lon="-2.90723">
        <time>2014-03-15T10:48:00Z</time>
      </trkpt>
      <trkpt lat="47.5782" lon="-2.90716">
        <time>2014-03-15T10:48:04Z</time>
      </trkpt>
      <trkpt lat="47.57819" lon="-2.90708">
        <time>2014-03-15T10:48:06Z</time>
      </trkpt>
      <trkpt lat="47.57819" lon="-2.90701">
        <time>2014-03-15T10:48:10Z</time>
      </trkpt>
      <trkpt lat="47.57818" lon="-2.90693">
        <time>2014-03-15T10:48:13Z</time>
      </trkpt>
      <trkpt lat="47.57817" lon="-2.90686">
        <time>2014-03-15T10:48:16Z</time>
      </trkpt>
      <trkpt lat="47.57816" lon="-2.90677">
        <time>2014-03-15T10:48:21Z</time>
      </trkpt>
      <trkpt lat="47.57815" lon="-2.90671">
        <time>2014-03-15T10:48:23Z</time>
      </trkpt>
      <trkpt lat="47.57814" lon="-2.90664">
        <time>2014-03-15T10:48:26Z</time>
      </trkpt>
      <trkpt lat="47.57813" lon="-2.90657">
        <time>2014-03-15T10:48:29Z</time>
      </trkpt>
      <trkpt lat="47.57813" lon="-2.90649">
        <time>2014-03-15T10:48:33Z</time>
      </trkpt>
      <trkpt lat="47.57812" lon="-2.9064">
        <time>2014-03-15T10:48:38Z</time>
      </trkpt>
      <trkpt lat="47.57811" lon="-2.90633">
        <time>2014-03-15T10:48:40Z</time>
      </trkpt>
      <trkpt lat="47.57809" lon="-2.90625">
        <time>2014-03-15T10:48:45Z</time>
      </trkpt>
      <trkpt lat="47.57808" lon="-2.90616">
        <time>2014-03-15T10:48:49Z</time>
      </trkpt>
      <trkpt lat="47.57807" lon="-2.90608">
        <time>2014-03-15T10:48:52Z</time>
      </trkpt>
      <trkpt lat="47.57806" lon="-2.90602">
        <time>2014-03-15T10:48:56Z</time>
      </trkpt>
      <trkpt lat="47.57805" lon="-2.90595">
        <time>2014-03-15T10:48:59Z</time>
      </trkpt>
      <trkpt lat="47.57804" lon="-2.90588">
        <time>2014-03-15T10:49:02Z</time>
      </trkpt>
      <trkpt lat="47.57803" lon="-2.90581">
        <time>2014-03-15T10:49:05Z</time>
      </trkpt>
      <trkpt lat="47.57803" lon="-2.90573">
        <time>2014-03-15T10:49:07Z</time>
      </trkpt>
      <trkpt lat="47.57802" lon="-2.90566">
        <time>2014-03-15T10:49:11Z</time>
      </trkpt>
      <trkpt lat="47.57801" lon="-2.90559">
        <time>2014-03-15T10:49:13Z</time>
      </trkpt>
      <trkpt lat="47.57801" lon="-2.90553">
        <time>2014-03-15T10:49:16Z</time>
      </trkpt>
      <trkpt lat="47.578" lon="-2.90546">
        <time>2014-03-15T10:49:19Z</time>
      </trkpt>
      <trkpt lat="47.57798" lon="-2.90539">
        <time>2014-03-15T10:49:22Z</time>
      </trkpt>
      <trkpt lat="47.57797" lon="-2.90532">
        <time>2014-03-15T10:49:25Z</time>
      </trkpt>
      <trkpt lat="47.57796" lon="-2.90525">
        <time>2014-03-15T10:49:29Z</time>
      </trkpt>
      <trkpt lat="47.57794" lon="-2.90518">
        <time>2014-03-15T10:49:32Z</time>
      </trkpt>
      <trkpt lat="47.57793" lon="-2.9051">
        <time>2014-03-15T10:49:34Z</time>
      </trkpt>
      <trkpt lat="47.57791" lon="-2.90504">
        <time>2014-03-15T10:49:37Z</time>
      </trkpt>
      <trkpt lat="47.5779" lon="-2.90495">
        <time>2014-03-15T10:49:41Z</time>
      </trkpt>
      <trkpt lat="47.57788" lon="-2.90489">
        <time>2014-03-15T10:49:45Z</time>
      </trkpt>
      <trkpt lat="47.57786" lon="-2.90482">
        <time>2014-03-15T10:49:47Z</time>
      </trkpt>
      <trkpt lat="47.57785" lon="-2.90475">
        <time>2014-03-15T10:49:50Z</time>
      </trkpt>
      <trkpt lat="47.57784" lon="-2.90468">
        <time>2014-03-15T10:49:53Z</time>
      </trkpt>
      <trkpt lat="47.57782" lon="-2.90461">
        <time>2014-03-15T10:49:57Z</time>
      </trkpt>
      <trkpt lat="47.57781" lon="-2.90454">
        <time>2014-03-15T10:49:59Z</time>
      </trkpt>
      <trkpt lat="47.57779" lon="-2.90448">
        <time>2014-03-15T10:50:03Z</time>
      </trkpt>
      <trkpt lat="47.57778" lon="-2.90441">
        <time>2014-03-15T10:50:05Z</time>
      </trkpt>
      <trkpt lat="47.57776" lon="-2.90434">
        <time>2014-03-15T10:50:08Z</time>
      </trkpt>
      <trkpt lat="47.57775" lon="-2.90427">
        <time>2014-03-15T10:50:12Z</time>
      </trkpt>
      <trkpt lat="47.57774" lon="-2.9042">
        <time>2014-03-15T10:50:14Z</time>
      </trkpt>
      <trkpt lat="47.57772" lon="-2.90414">
        <time>2014-03-15T10:50:18Z</time>
      </trkpt>
      <trkpt lat="47.5777" lon="-2.90406">
        <time>2014-03-15T10:50:22Z</time>
      </trkpt>
      <trkpt lat="47.57768" lon="-2.90398">
        <time>2014-03-15T10:50:25Z</time>
      </trkpt>
      <trkpt lat="47.57767" lon="-2.90392">
        <time>2014-03-15T10:50:28Z</time>
      </trkpt>
      <trkpt lat="47.57765" lon="-2.90385">
        <time>2014-03-15T10:50:31Z</time>
      </trkpt>
      <trkpt lat="47.57764" lon="-2.90377">
        <time>2014-03-15T10:50:35Z</time>
      </trkpt>
      <trkpt lat="47.57762" lon="-2.90368">
        <time>2014-03-15T10:50:39Z</time>
      </trkpt>
      <trkpt lat="47.57761" lon="-2.90362">
        <time>2014-03-15T10:50:42Z</time>
      </trkpt>
      <trkpt lat="47.57759" lon="-2.90355">
        <time>2014-03-15T10:50:45Z</time>
      </trkpt>
      <trkpt lat="47.57758" lon="-2.90348">
        <time>2014-03-15T10:50:48Z</time>
      </trkpt>
      <trkpt lat="47.57756" lon="-2.90342">
        <time>2014-03-15T10:50:51Z</time>
      </trkpt>
      <trkpt lat="47.57755" lon="-2.90334">
        <time>2014-03-15T10:50:55Z</time>
      </trkpt>
      <trkpt lat="47.57754" lon="-2.90327">
        <time>2014-03-15T10:50:59Z</time>
      </trkpt>
      <trkpt lat="47.57753" lon="-2.9032">
        <time>2014-03-15T10:51:01Z</time>
      </trkpt>
      <trkpt lat="47.57753" lon="-2.90313">
        <time>2014-03-15T10:51:05Z</time>
      </trkpt>
      <trkpt lat="47.57752" lon="-2.90306">
        <time>2014-03-15T10:51:08Z</time>
      </trkpt>
      <trkpt lat="47.57751" lon="-2.90299">
        <time>2014-03-15T10:51:11Z</time>
      </trkpt>
      <trkpt lat="47.5775" lon="-2.90292">
        <time>2014-03-15T10:51:14Z</time>
      </trkpt>
      <trkpt lat="47.5775" lon="-2.90285">
        <time>2014-03-15T10:51:16Z</time>
      </trkpt>
      <trkpt lat="47.57749" lon="-2.90278">
        <time>2014-03-15T10:51:19Z</time>
      </trkpt>
      <trkpt lat="47.57749" lon="-2.9027">
        <time>2014-03-15T10:51:22Z</time>
      </trkpt>
      <trkpt lat="47.57749" lon="-2.90263">
        <time>2014-03-15T10:51:26Z</time>
      </trkpt>
      <trkpt lat="47.57749" lon="-2.90256">
        <time>2014-03-15T10:51:28Z</time>
      </trkpt>
      <trkpt lat="47.57748" lon="-2.90248">
        <time>2014-03-15T10:51:31Z</time>
      </trkpt>
      <trkpt lat="47.57748" lon="-2.9024">
        <time>2014-03-15T10:51:34Z</time>
      </trkpt>
      <trkpt lat="47.57747" lon="-2.90233">
        <time>2014-03-15T10:51:38Z</time>
      </trkpt>
      <trkpt lat="47.57748" lon="-2.90225">
        <time>2014-03-15T10:51:40Z</time>
      </trkpt>
      <trkpt lat="47.57748" lon="-2.90219">
        <time>2014-03-15T10:51:44Z</time>
      </trkpt>
      <trkpt lat="47.57748" lon="-2.90212">
        <time>2014-03-15T10:51:46Z</time>
      </trkpt>
      <trkpt lat="47.57748" lon="-2.90205">
        <time>2014-03-15T10:51:49Z</time>
      </trkpt>
      <trkpt lat="47.57748" lon="-2.90197">
        <time>2014-03-15T10:51:52Z</time>
      </trkpt>
      <trkpt lat="47.57748" lon="-2.9019">
        <time>2014-03-15T10:51:56Z</time>
      </trkpt>
      <trkpt lat="47.57747" lon="-2.90184">
        <time>2014-03-15T10:51:58Z</time>
      </trkpt>
      <trkpt lat="47.57747" lon="-2.90175">
        <time>2014-03-15T10:52:02Z</time>
      </trkpt>
      <trkpt lat="47.57746" lon="-2.90168">
        <time>2014-03-15T10:52:05Z</time>
      </trkpt>
      <trkpt lat="47.57746" lon="-2.90161">
        <time>2014-03-15T10:52:08Z</time>
      </trkpt>
      <trkpt lat="47.57746" lon="-2.90153">
        <time>2014-03-15T10:52:12Z</time>
      </trkpt>
      <trkpt lat="47.57745" lon="-2.90146">
        <time>2014-03-15T10:52:15Z</time>
      </trkpt>
      <trkpt lat="47.57745" lon="-2.90139">
        <time>2014-03-15T10:52:18Z</time>
      </trkpt>
      <trkpt lat="47.57744" lon="-2.90131">
        <time>2014-03-15T10:52:20Z</time>
      </trkpt>
      <trkpt lat="47.57744" lon="-2.90123">
        <time>2014-03-15T10:52:23Z</time>
      </trkpt>
      <trkpt lat="47.57743" lon="-2.90116">
        <time>2014-03-15T10:52:26Z</time>
      </trkpt>
      <trkpt lat="47.57743" lon="-2.90108">
        <time>2014-03-15T10:52:30Z</time>
      </trkpt>
      <trkpt lat="47.57743" lon="-2.90101">
        <time>2014-03-15T10:52:32Z</time>
      </trkpt>
      <trkpt lat="47.57742" lon="-2.90093">
        <time>2014-03-15T10:52:36Z</time>
      </trkpt>
      <trkpt lat="47.57742" lon="-2.90086">
        <time>2014-03-15T10:52:38Z</time>
      </trkpt>
      <trkpt lat="47.57741" lon="-2.90078">
        <time>2014-03-15T10:52:41Z</time>
      </trkpt>
      <trkpt lat="47.57741" lon="-2.9007">
        <time>2014-03-15T10:52:44Z</time>
      </trkpt>
      <trkpt lat="47.57741" lon="-2.90063">
        <time>2014-03-15T10:52:47Z</time>
      </trkpt>
      <trkpt lat="47.5774" lon="-2.90055">
        <time>2014-03-15T10:52:51Z</time>
      </trkpt>
      <trkpt lat="47.5774" lon="-2.90048">
        <time>2014-03-15T10:52:53Z</time>
      </trkpt>
      <trkpt lat="47.57739" lon="-2.9004">
        <time>2014-03-15T10:52:57Z</time>
      </trkpt>
      <trkpt lat="47.57739" lon="-2.90032">
        <time>2014-03-15T10:52:59Z</time>
      </trkpt>
      <trkpt lat="47.57738" lon="-2.90025">
        <time>2014-03-15T10:53:03Z</time>
      </trkpt>
      <trkpt lat="47.57738" lon="-2.90017">
        <time>2014-03-15T10:53:05Z</time>
      </trkpt>
      <trkpt lat="47.57737" lon="-2.90009">
        <time>2014-03-15T10:53:09Z</time>
      </trkpt>
      <trkpt lat="47.57737" lon="-2.90002">
        <time>2014-03-15T10:53:11Z</time>
      </trkpt>
      <trkpt lat="47.57738" lon="-2.89994">
        <time>2014-03-15T10:53:15Z</time>
      </trkpt>
      <trkpt lat="47.57738" lon="-2.89987">
        <time>2014-03-15T10:53:17Z</time>
      </trkpt>
      <trkpt lat="47.57738" lon="-2.89979">
        <time>2014-03-15T10:53:21Z</time>
      </trkpt>
      <trkpt lat="47.57739" lon="-2.89971">
        <time>2014-03-15T10:53:23Z</time>
      </trkpt>
      <trkpt lat="47.5774" lon="-2.89963">
        <time>2014-03-15T10:53:26Z</time>
      </trkpt>
      <trkpt lat="47.57741" lon="-2.89956">
        <time>2014-03-15T10:53:30Z</time>
      </trkpt>
      <trkpt lat="47.57742" lon="-2.89949">
        <time>2014-03-15T10:53:32Z</time>
      </trkpt>
      <trkpt lat="47.57743" lon="-2.89942">
        <time>2014-03-15T10:53:36Z</time>
      </trkpt>
      <trkpt lat="47.57745" lon="-2.89935">
        <time>2014-03-15T10:53:38Z</time>
      </trkpt>
      <trkpt lat="47.57747" lon="-2.89927">
        <time>2014-03-15T10:53:41Z</time>
      </trkpt>
      <trkpt lat="47.57749" lon="-2.8992">
        <time>2014-03-15T10:53:44Z</time>
      </trkpt>
      <trkpt lat="47.57751" lon="-2.89912">
        <time>2014-03-15T10:53:48Z</time>
      </trkpt>
      <trkpt lat="47.57753" lon="-2.89903">
        <time>2014-03-15T10:53:50Z</time>
      </trkpt>
      <trkpt lat="47.57755" lon="-2.89894">
        <time>2014-03-15T10:53:54Z</time>
      </trkpt>
      <trkpt lat="47.57757" lon="-2.89886">
        <time>2014-03-15T10:53:56Z</time>
      </trkpt>
      <trkpt lat="47.5776" lon="-2.89879">
        <time>2014-03-15T10:53:59Z</time>
      </trkpt>
      <trkpt lat="47.57762" lon="-2.89872">
        <time>2014-03-15T10:54:02Z</time>
      </trkpt>
      <trkpt lat="47.57765" lon="-2.89865">
        <time>2014-03-15T10:54:05Z</time>
      </trkpt>
      <trkpt lat="47.57768" lon="-2.89858">
        <time>2014-03-15T10:54:09Z</time>
      </trkpt>
      <trkpt lat="47.5777" lon="-2.89852">
        <time>2014-03-15T10:54:11Z</time>
      </trkpt>
      <trkpt lat="47.57773" lon="-2.89846">
        <time>2014-03-15T10:54:15Z</time>
      </trkpt>
      <trkpt lat="47.57775" lon="-2.8984">
        <time>2014-03-15T10:54:17Z</time>
      </trkpt>
      <trkpt lat="47.57778" lon="-2.89834">
        <time>2014-03-15T10:54:20Z</time>
      </trkpt>
      <trkpt lat="47.57781" lon="-2.89828">
        <time>2014-03-15T10:54:23Z</time>
      </trkpt>
      <trkpt lat="47.57784" lon="-2.89822">
        <time>2014-03-15T10:54:26Z</time>
      </trkpt>
      <trkpt lat="47.57788" lon="-2.89816">
        <time>2014-03-15T10:54:30Z</time>
      </trkpt>
      <trkpt lat="47.57791" lon="-2.8981">
        <time>2014-03-15T10:54:33Z</time>
      </trkpt>
      <trkpt lat="47.57795" lon="-2.89805">
        <time>2014-03-15T10:54:36Z</time>
      </trkpt>
      <trkpt lat="47.57799" lon="-2.898">
        <time>2014-03-15T10:54:38Z</time>
      </trkpt>
      <trkpt lat="47.57804" lon="-2.89796">
        <time>2014-03-15T10:54:41Z</time>
      </trkpt>
      <trkpt lat="47.57808" lon="-2.89792">
        <time>2014-03-15T10:54:44Z</time>
      </trkpt>
      <trkpt lat="47.57813" lon="-2.89787">
        <time>2014-03-15T10:54:48Z</time>
      </trkpt>
      <trkpt lat="47.57817" lon="-2.89783">
        <time>2014-03-15T10:54:50Z</time>
      </trkpt>
      <trkpt lat="47.57822" lon="-2.89779">
        <time>2014-03-15T10:54:53Z</time>
      </trkpt>
      <trkpt lat="47.57826" lon="-2.89775">
        <time>2014-03-15T10:54:56Z</time>
      </trkpt>
      <trkpt lat="47.57831" lon="-2.89771">
        <time>2014-03-15T10:55:00Z</time>
      </trkpt>
      <trkpt lat="47.57836" lon="-2.89768">
        <time>2014-03-15T10:55:03Z</time>
      </trkpt>
      <trkpt lat="47.57842" lon="-2.89764">
        <time>2014-03-15T10:55:06Z</time>
      </trkpt>
      <trkpt lat="47.57848" lon="-2.8976">
        <time>2014-03-15T10:55:09Z</time>
      </trkpt>
      <trkpt lat="47.57854" lon="-2.89756">
        <time>2014-03-15T10:55:11Z</time>
      </trkpt>
      <trkpt lat="47.5786" lon="-2.89752">
        <time>2014-03-15T10:55:14Z</time>
      </trkpt>
      <trkpt lat="47.57866" lon="-2.89748">
        <time>2014-03-15T10:55:17Z</time>
      </trkpt>
      <trkpt lat="47.57872" lon="-2.89744">
        <time>2014-03-15T10:55:21Z</time>
      </trkpt>
      <trkpt lat="47.57877" lon="-2.89742">
        <time>2014-03-15T10:55:23Z</time>
      </trkpt>
      <trkpt lat="47.57883" lon="-2.89741">
        <time>2014-03-15T10:55:27Z</time>
      </trkpt>
      <trkpt lat="47.5789" lon="-2.8974">
        <time>2014-03-15T10:55:29Z</time>
      </trkpt>
      <trkpt lat="47.57896" lon="-2.89739">
        <time>2014-03-15T10:55:33Z</time>
      </trkpt>
      <trkpt lat="47.57902" lon="-2.89737">
        <time>2014-03-15T10:55:35Z</time>
      </trkpt>
      <trkpt lat="47.57908" lon="-2.89735">
        <time>2014-03-15T10:55:39Z</time>
      </trkpt>
      <trkpt lat="47.57914" lon="-2.89733">
        <time>2014-03-15T10:55:41Z</time>
      </trkpt>
      <trkpt lat="47.5792" lon="-2.89731">
        <time>2014-03-15T10:55:44Z</time>
      </trkpt>
      <trkpt lat="47.57926" lon="-2.89729">
        <time>2014-03-15T10:55:48Z</time>
      </trkpt>
      <trkpt lat="47.57931" lon="-2.89726">
        <time>2014-03-15T10:55:50Z</time>
      </trkpt>
      <trkpt lat="47.57937" lon="-2.89722">
        <time>2014-03-15T10:55:53Z</time>
      </trkpt>
      <trkpt lat="47.57942" lon="-2.89719">
        <time>2014-03-15T10:55:56Z</time>
      </trkpt>
      <trkpt lat="47.57947" lon="-2.89717">
        <time>2014-03-15T10:55:59Z</time>
      </trkpt>
      <trkpt lat="47.57953" lon="-2.89714">
        <time>2014-03-15T10:56:02Z</time>
      </trkpt>
      <trkpt lat="47.57958" lon="-2.89711">
        <time>2014-03-15T10:56:06Z</time>
      </trkpt>
      <trkpt lat="47.57963" lon="-2.89708">
        <time>2014-03-15T10:56:08Z</time>
      </trkpt>
      <trkpt lat="47.57968" lon="-2.89706">
        <time>2014-03-15T10:56:12Z</time>
      </trkpt>
      <trkpt lat="47.57973" lon="-2.89703">
        <time>2014-03-15T10:56:15Z</time>
      </trkpt>
      <trkpt lat="47.57978" lon="-2.89701">
        <time>2014-03-15T10:56:18Z</time>
      </trkpt>
      <trkpt lat="47.57983" lon="-2.89699">
        <time>2014-03-15T10:56:21Z</time>
      </trkpt>
      <trkpt lat="47.57989" lon="-2.89697">
        <time>2014-03-15T10:56:23Z</time>
      </trkpt>
      <trkpt lat="47.57994" lon="-2.89696">
        <time>2014-03-15T10:56:27Z</time>
      </trkpt>
      <trkpt lat="47.58" lon="-2.89694">
        <time>2014-03-15T10:56:29Z</time>
      </trkpt>
      <trkpt lat="47.58006" lon="-2.89693">
        <time>2014-03-15T10:56:33Z</time>
      </trkpt>
      <trkpt lat="47.58012" lon="-2.89692">
        <time>2014-03-15T10:56:35Z</time>
      </trkpt>
      <trkpt lat="47.58019" lon="-2.89691">
        <time>2014-03-15T10:56:39Z</time>
      </trkpt>
      <trkpt lat="47.58025" lon="-2.8969">
        <time>2014-03-15T10:56:41Z</time>
      </trkpt>
      <trkpt lat="47.58031" lon="-2.89689">
        <time>2014-03-15T10:56:44Z</time>
      </trkpt>
      <trkpt lat="47.58038" lon="-2.89689">
        <time>2014-03-15T10:56:48Z</time>
      </trkpt>
      <trkpt lat="47.58044" lon="-2.89688">
        <time>2014-03-15T10:56:51Z</time>
      </trkpt>
      <trkpt lat="47.5805" lon="-2.89687">
        <time>2014-03-15T10:56:54Z</time>
      </trkpt>
      <trkpt lat="47.58056" lon="-2.89685">
        <time>2014-03-15T10:56:56Z</time>
      </trkpt>
      <trkpt lat="47.58063" lon="-2.89682">
        <time>2014-03-15T10:57:00Z</time>
      </trkpt>
      <trkpt lat="47.58067" lon="-2.8968">
        <time>2014-03-15T10:57:01Z</time>
      </trkpt>
      <trkpt lat="47.58073" lon="-2.89678">
        <time>2014-03-15T10:57:05Z</time>
      </trkpt>
      <trkpt lat="47.58079" lon="-2.89675">
        <time>2014-03-15T10:57:07Z</time>
      </trkpt>
      <trkpt lat="47.58085" lon="-2.89672">
        <time>2014-03-15T10:57:10Z</time>
      </trkpt>
      <trkpt lat="47.58092" lon="-2.8967">
        <time>2014-03-15T10:57:14Z</time>
      </trkpt>
      <trkpt lat="47.58098" lon="-2.89667">
        <time>2014-03-15T10:57:16Z</time>
      </trkpt>
      <trkpt lat="47.58105" lon="-2.89665">
        <time>2014-03-15T10:57:20Z</time>
      </trkpt>
      <trkpt lat="47.58109" lon="-2.89663">
        <time>2014-03-15T10:57:21Z</time>
      </trkpt>
      <trkpt lat="47.58114" lon="-2.89661">
        <time>2014-03-15T10:57:23Z</time>
      </trkpt>
      <trkpt lat="47.58118" lon="-2.89659">
        <time>2014-03-15T10:57:26Z</time>
      </trkpt>
      <trkpt lat="47.58122" lon="-2.89657">
        <time>2014-03-15T10:57:27Z</time>
      </trkpt>
      <trkpt lat="47.58127" lon="-2.89655">
        <time>2014-03-15T10:57:29Z</time>
      </trkpt>
      <trkpt lat="47.58131" lon="-2.89653">
        <time>2014-03-15T10:57:32Z</time>
      </trkpt>
      <trkpt lat="47.58138" lon="-2.8965">
        <time>2014-03-15T10:57:35Z</time>
      </trkpt>
      <trkpt lat="47.58144" lon="-2.89647">
        <time>2014-03-15T10:57:38Z</time>
      </trkpt>
      <trkpt lat="47.5815" lon="-2.89644">
        <time>2014-03-15T10:57:41Z</time>
      </trkpt>
      <trkpt lat="47.58155" lon="-2.8964">
        <time>2014-03-15T10:57:43Z</time>
      </trkpt>
      <trkpt lat="47.58159" lon="-2.89636">
        <time>2014-03-15T10:57:45Z</time>
      </trkpt>
      <trkpt lat="47.58165" lon="-2.89631">
        <time>2014-03-15T10:57:48Z</time>
      </trkpt>
      <trkpt lat="47.5817" lon="-2.89625">
        <time>2014-03-15T10:57:51Z</time>
      </trkpt>
      <trkpt lat="47.58175" lon="-2.8962">
        <time>2014-03-15T10:57:54Z</time>
      </trkpt>
      <trkpt lat="47.5818" lon="-2.89615">
        <time>2014-03-15T10:57:57Z</time>
      </trkpt>
      <trkpt lat="47.58184" lon="-2.8961">
        <time>2014-03-15T10:58:00Z</time>
      </trkpt>
      <trkpt lat="47.58186" lon="-2.89604">
        <time>2014-03-15T10:58:04Z</time>
      </trkpt>
      <trkpt lat="47.5819" lon="-2.89599">
        <time>2014-03-15T10:58:12Z</time>
      </trkpt>
      <trkpt lat="47.58194" lon="-2.89597">
        <time>2014-03-15T10:58:21Z</time>
      </trkpt>
      <trkpt lat="47.58199" lon="-2.89597">
        <ele>1</ele>
        <time>2014-03-15T10:58:27Z</time>
      </trkpt>
      <trkpt lat="47.58204" lon="-2.89598">
        <ele>1</ele>
        <time>2014-03-15T10:58:36Z</time>
      </trkpt>
      <trkpt lat="47.58209" lon="-2.89599">
        <ele>1</ele>
        <time>2014-03-15T10:59:53Z</time>
      </trkpt>
      <trkpt lat="47.58212" lon="-2.89595">
        <ele>1</ele>
        <time>2014-03-15T11:00:02Z</time>
      </trkpt>
      <trkpt lat="47.58215" lon="-2.89588">
        <ele>1</ele>
        <time>2014-03-15T11:02:13Z</time>
      </trkpt>
      <trkpt lat="47.58219" lon="-2.89582">
        <ele>4</ele>
        <time>2014-03-15T11:02:16Z</time>
      </trkpt>
      <trkpt lat="47.58222" lon="-2.89577">
        <ele>4</ele>
        <time>2014-03-15T11:02:20Z</time>
      </trkpt>
      <trkpt lat="47.58225" lon="-2.89571">
        <ele>4</ele>
        <time>2014-03-15T11:02:25Z</time>
      </trkpt>
      <trkpt lat="47.58228" lon="-2.89566">
        <ele>4</ele>
        <time>2014-03-15T11:02:29Z</time>
      </trkpt>
      <trkpt lat="47.58231" lon="-2.89561">
        <ele>4</ele>
        <time>2014-03-15T11:02:33Z</time>
      </trkpt>
      <trkpt lat="47.58235" lon="-2.89554">
        <ele>4</ele>
        <time>2014-03-15T11:02:39Z</time>
      </trkpt>
      <trkpt lat="47.58236" lon="-2.89547">
        <ele>4</ele>
        <time>2014-03-15T11:02:43Z</time>
      </trkpt>
      <trkpt lat="47.58235" lon="-2.8954">
        <ele>4</ele>
        <time>2014-03-15T11:02:46Z</time>
      </trkpt>
      <trkpt lat="47.58233" lon="-2.89534">
        <ele>4</ele>
        <time>2014-03-15T11:02:50Z</time>
      </trkpt>
      <trkpt lat="47.58229" lon="-2.8953">
        <ele>4</ele>
        <time>2014-03-15T11:02:54Z</time>
      </trkpt>
      <trkpt lat="47.58224" lon="-2.89527">
        <ele>4</ele>
        <time>2014-03-15T11:02:59Z</time>
      </trkpt>
      <trkpt lat="47.58219" lon="-2.89524">
        <ele>4</ele>
        <time>2014-03-15T11:03:02Z</time>
      </trkpt>
      <trkpt lat="47.58215" lon="-2.89521">
        <ele>4</ele>
        <time>2014-03-15T11:03:07Z</time>
      </trkpt>
      <trkpt lat="47.5821" lon="-2.89518">
        <ele>4</ele>
        <time>2014-03-15T11:03:13Z</time>
      </trkpt>
      <trkpt lat="47.58208" lon="-2.89512">
        <ele>4</ele>
        <time>2014-03-15T11:03:20Z</time>
      </trkpt>
      <trkpt lat="47.58204" lon="-2.89506">
        <ele>4</ele>
        <time>2014-03-15T11:03:23Z</time>
      </trkpt>
      <trkpt lat="47.58199" lon="-2.89505">
        <ele>4</ele>
        <time>2014-03-15T11:03:27Z</time>
      </trkpt>
      <trkpt lat="47.58195" lon="-2.8951">
        <ele>4</ele>
        <time>2014-03-15T11:03:33Z</time>
      </trkpt>
      <trkpt lat="47.58193" lon="-2.89517">
        <ele>4</ele>
        <time>2014-03-15T11:04:01Z</time>
      </trkpt>
    </trkseg>
  </trk>
</gpx>